<?xml version="1.0" encoding="UTF-8" standalone="no" ?>
<gpx xmlns="http://www.topografix.com/GPX/1/1" xmlns:xsi="http://www.w3.org/2001/XMLSchema-instance" xsi:schemaLocation="http://www.topografix.com/GPX/1/1 http://www.topografix.com/GPX/1/1/gpx.xsd" version="1.1" creator="VisuGPX - https://www.visugpx.com">
  <metadata>
    <name>RANDO LAVOUTE MONT COURANT 25 KM</name>
    <desc><![CDATA[VVVVVVVVVVVVVVVVVVVVVVVVVVVVVVVVVVVVVVVVVVVVVVVVVVVVVVV]]></desc>
  </metadata>
  <trk>
    <name><![CDATA[2025-01-15 15:58:05]]></name>
    <desc><![CDATA[]]></desc>
    <extensions>
      <line xmlns="http://www.topografix.com/GPX/gpx_style/0/2">
        <color>0000FF</color>
        <width>4</width>
      </line>
    </extensions>
    <trkseg>
      <trkpt lat="45.119" lon="3.90658">
        <ele>568.28</ele>
        <time>2025-01-15T07:58:34Z</time>
      </trkpt>
      <trkpt lat="45.11898" lon="3.90658">
        <ele>566.35</ele>
        <time>2025-01-15T07:58:59Z</time>
      </trkpt>
      <trkpt lat="45.11897" lon="3.90657">
        <ele>569.72</ele>
        <time>2025-01-15T07:59:15Z</time>
      </trkpt>
      <trkpt lat="45.11897" lon="3.90654">
        <ele>568.76</ele>
        <time>2025-01-15T07:59:32Z</time>
      </trkpt>
      <trkpt lat="45.11896" lon="3.90651">
        <ele>570.68</ele>
        <time>2025-01-15T07:59:49Z</time>
      </trkpt>
      <trkpt lat="45.11896" lon="3.90648">
        <ele>573.08</ele>
        <time>2025-01-15T08:00:10Z</time>
      </trkpt>
      <trkpt lat="45.11898" lon="3.90652">
        <ele>569.72</ele>
        <time>2025-01-15T08:00:29Z</time>
      </trkpt>
      <trkpt lat="45.11898" lon="3.90652">
        <ele>569.24</ele>
        <time>2025-01-15T08:00:47Z</time>
      </trkpt>
      <trkpt lat="45.11897" lon="3.90652">
        <ele>569.24</ele>
        <time>2025-01-15T08:01:03Z</time>
      </trkpt>
      <trkpt lat="45.11897" lon="3.90651">
        <ele>568.76</ele>
        <time>2025-01-15T08:01:15Z</time>
      </trkpt>
      <trkpt lat="45.11896" lon="3.90652">
        <ele>569.24</ele>
        <time>2025-01-15T08:01:32Z</time>
      </trkpt>
      <trkpt lat="45.11895" lon="3.90654">
        <ele>568.76</ele>
        <time>2025-01-15T08:01:47Z</time>
      </trkpt>
      <trkpt lat="45.11894" lon="3.90656">
        <ele>567.8</ele>
        <time>2025-01-15T08:02:10Z</time>
      </trkpt>
      <trkpt lat="45.11895" lon="3.90652">
        <ele>568.28</ele>
        <time>2025-01-15T08:02:26Z</time>
      </trkpt>
      <trkpt lat="45.11895" lon="3.90653">
        <ele>568.28</ele>
        <time>2025-01-15T08:02:37Z</time>
      </trkpt>
      <trkpt lat="45.11899" lon="3.90659">
        <ele>566.35</ele>
        <time>2025-01-15T08:02:51Z</time>
      </trkpt>
      <trkpt lat="45.11899" lon="3.90659">
        <ele>564.91</ele>
        <time>2025-01-15T08:03:02Z</time>
      </trkpt>
      <trkpt lat="45.119" lon="3.90659">
        <ele>564.91</ele>
        <time>2025-01-15T08:03:13Z</time>
      </trkpt>
      <trkpt lat="45.119" lon="3.90658">
        <ele>565.87</ele>
        <time>2025-01-15T08:03:24Z</time>
      </trkpt>
      <trkpt lat="45.11899" lon="3.90657">
        <ele>566.35</ele>
        <time>2025-01-15T08:03:35Z</time>
      </trkpt>
      <trkpt lat="45.11898" lon="3.90657">
        <ele>566.35</ele>
        <time>2025-01-15T08:03:50Z</time>
      </trkpt>
      <trkpt lat="45.11897" lon="3.90658">
        <ele>567.32</ele>
        <time>2025-01-15T08:04:00Z</time>
      </trkpt>
      <trkpt lat="45.11899" lon="3.90658">
        <ele>566.83</ele>
        <time>2025-01-15T08:04:11Z</time>
      </trkpt>
      <trkpt lat="45.119" lon="3.90657">
        <ele>565.87</ele>
        <time>2025-01-15T08:04:24Z</time>
      </trkpt>
      <trkpt lat="45.119" lon="3.90658">
        <ele>566.35</ele>
        <time>2025-01-15T08:04:35Z</time>
      </trkpt>
      <trkpt lat="45.11901" lon="3.90659">
        <ele>565.87</ele>
        <time>2025-01-15T08:04:46Z</time>
      </trkpt>
      <trkpt lat="45.11901" lon="3.90658">
        <ele>565.87</ele>
        <time>2025-01-15T08:04:57Z</time>
      </trkpt>
      <trkpt lat="45.11901" lon="3.90658">
        <ele>565.39</ele>
        <time>2025-01-15T08:05:10Z</time>
      </trkpt>
      <trkpt lat="45.11901" lon="3.90659">
        <ele>565.87</ele>
        <time>2025-01-15T08:05:23Z</time>
      </trkpt>
      <trkpt lat="45.11901" lon="3.90659">
        <ele>565.87</ele>
        <time>2025-01-15T08:05:32Z</time>
      </trkpt>
      <trkpt lat="45.119" lon="3.90657">
        <ele>564.43</ele>
        <time>2025-01-15T08:05:45Z</time>
      </trkpt>
      <trkpt lat="45.119" lon="3.90658">
        <ele>564.91</ele>
        <time>2025-01-15T08:05:57Z</time>
      </trkpt>
      <trkpt lat="45.11901" lon="3.90658">
        <ele>565.39</ele>
        <time>2025-01-15T08:06:13Z</time>
      </trkpt>
      <trkpt lat="45.11899" lon="3.90657">
        <ele>565.39</ele>
        <time>2025-01-15T08:06:26Z</time>
      </trkpt>
      <trkpt lat="45.11899" lon="3.9066">
        <ele>565.87</ele>
        <time>2025-01-15T08:06:38Z</time>
      </trkpt>
      <trkpt lat="45.11898" lon="3.90661">
        <ele>566.35</ele>
        <time>2025-01-15T08:06:52Z</time>
      </trkpt>
      <trkpt lat="45.11897" lon="3.9066">
        <ele>566.35</ele>
        <time>2025-01-15T08:07:03Z</time>
      </trkpt>
      <trkpt lat="45.11896" lon="3.90659">
        <ele>566.35</ele>
        <time>2025-01-15T08:07:14Z</time>
      </trkpt>
      <trkpt lat="45.11894" lon="3.9066">
        <ele>565.39</ele>
        <time>2025-01-15T08:07:27Z</time>
      </trkpt>
      <trkpt lat="45.11896" lon="3.90661">
        <ele>565.39</ele>
        <time>2025-01-15T08:07:43Z</time>
      </trkpt>
      <trkpt lat="45.11896" lon="3.9066">
        <ele>565.39</ele>
        <time>2025-01-15T08:08:00Z</time>
      </trkpt>
      <trkpt lat="45.11896" lon="3.9066">
        <ele>563.47</ele>
        <time>2025-01-15T08:08:18Z</time>
      </trkpt>
      <trkpt lat="45.11896" lon="3.9066">
        <ele>563.95</ele>
        <time>2025-01-15T08:08:33Z</time>
      </trkpt>
      <trkpt lat="45.11896" lon="3.90659">
        <ele>564.43</ele>
        <time>2025-01-15T08:08:51Z</time>
      </trkpt>
      <trkpt lat="45.11896" lon="3.90659">
        <ele>563.95</ele>
        <time>2025-01-15T08:09:09Z</time>
      </trkpt>
      <trkpt lat="45.11895" lon="3.9066">
        <ele>563.95</ele>
        <time>2025-01-15T08:09:27Z</time>
      </trkpt>
      <trkpt lat="45.11895" lon="3.9066">
        <ele>563.47</ele>
        <time>2025-01-15T08:09:42Z</time>
      </trkpt>
      <trkpt lat="45.11896" lon="3.90658">
        <ele>562.99</ele>
        <time>2025-01-15T08:09:56Z</time>
      </trkpt>
      <trkpt lat="45.11896" lon="3.90658">
        <ele>562.51</ele>
        <time>2025-01-15T08:10:12Z</time>
      </trkpt>
      <trkpt lat="45.11895" lon="3.90659">
        <ele>562.03</ele>
        <time>2025-01-15T08:10:28Z</time>
      </trkpt>
      <trkpt lat="45.11895" lon="3.90659">
        <ele>562.03</ele>
        <time>2025-01-15T08:10:46Z</time>
      </trkpt>
      <trkpt lat="45.11895" lon="3.90659">
        <ele>562.51</ele>
        <time>2025-01-15T08:10:58Z</time>
      </trkpt>
      <trkpt lat="45.11894" lon="3.9066">
        <ele>562.03</ele>
        <time>2025-01-15T08:11:19Z</time>
      </trkpt>
      <trkpt lat="45.11894" lon="3.90659">
        <ele>562.03</ele>
        <time>2025-01-15T08:11:30Z</time>
      </trkpt>
      <trkpt lat="45.11895" lon="3.90658">
        <ele>562.03</ele>
        <time>2025-01-15T08:11:45Z</time>
      </trkpt>
      <trkpt lat="45.11894" lon="3.90658">
        <ele>562.51</ele>
        <time>2025-01-15T08:11:57Z</time>
      </trkpt>
      <trkpt lat="45.11894" lon="3.90659">
        <ele>561.55</ele>
        <time>2025-01-15T08:12:16Z</time>
      </trkpt>
      <trkpt lat="45.11894" lon="3.9066">
        <ele>562.99</ele>
        <time>2025-01-15T08:12:32Z</time>
      </trkpt>
      <trkpt lat="45.11895" lon="3.90658">
        <ele>562.03</ele>
        <time>2025-01-15T08:12:47Z</time>
      </trkpt>
      <trkpt lat="45.11897" lon="3.90657">
        <ele>562.51</ele>
        <time>2025-01-15T08:12:58Z</time>
      </trkpt>
      <trkpt lat="45.11896" lon="3.90656">
        <ele>563.47</ele>
        <time>2025-01-15T08:13:11Z</time>
      </trkpt>
      <trkpt lat="45.11898" lon="3.90658">
        <ele>563.95</ele>
        <time>2025-01-15T08:13:23Z</time>
      </trkpt>
      <trkpt lat="45.11896" lon="3.90659">
        <ele>563.95</ele>
        <time>2025-01-15T08:13:40Z</time>
      </trkpt>
      <trkpt lat="45.11896" lon="3.90658">
        <ele>563.47</ele>
        <time>2025-01-15T08:13:57Z</time>
      </trkpt>
      <trkpt lat="45.11896" lon="3.90659">
        <ele>563.47</ele>
        <time>2025-01-15T08:14:14Z</time>
      </trkpt>
      <trkpt lat="45.11896" lon="3.90659">
        <ele>563.47</ele>
        <time>2025-01-15T08:14:31Z</time>
      </trkpt>
      <trkpt lat="45.11895" lon="3.90658">
        <ele>562.99</ele>
        <time>2025-01-15T08:14:47Z</time>
      </trkpt>
      <trkpt lat="45.11897" lon="3.90662">
        <ele>565.39</ele>
        <time>2025-01-15T08:14:58Z</time>
      </trkpt>
      <trkpt lat="45.11907" lon="3.90671">
        <ele>566.35</ele>
        <time>2025-01-15T08:15:13Z</time>
      </trkpt>
      <trkpt lat="45.11922" lon="3.90674">
        <ele>567.32</ele>
        <time>2025-01-15T08:15:29Z</time>
      </trkpt>
      <trkpt lat="45.11923" lon="3.90673">
        <ele>567.8</ele>
        <time>2025-01-15T08:15:30Z</time>
      </trkpt>
      <trkpt lat="45.11927" lon="3.90676">
        <ele>568.28</ele>
        <time>2025-01-15T08:15:34Z</time>
      </trkpt>
      <trkpt lat="45.11935" lon="3.90682">
        <ele>569.24</ele>
        <time>2025-01-15T08:15:46Z</time>
      </trkpt>
      <trkpt lat="45.11938" lon="3.90683">
        <ele>569.24</ele>
        <time>2025-01-15T08:15:50Z</time>
      </trkpt>
      <trkpt lat="45.11943" lon="3.90681">
        <ele>569.24</ele>
        <time>2025-01-15T08:15:55Z</time>
      </trkpt>
      <trkpt lat="45.11951" lon="3.90682">
        <ele>570.68</ele>
        <time>2025-01-15T08:16:02Z</time>
      </trkpt>
      <trkpt lat="45.11956" lon="3.90684">
        <ele>571.16</ele>
        <time>2025-01-15T08:16:06Z</time>
      </trkpt>
      <trkpt lat="45.1196" lon="3.90683">
        <ele>571.16</ele>
        <time>2025-01-15T08:16:10Z</time>
      </trkpt>
      <trkpt lat="45.11962" lon="3.90684">
        <ele>571.16</ele>
        <time>2025-01-15T08:16:12Z</time>
      </trkpt>
      <trkpt lat="45.11985" lon="3.90685">
        <ele>570.2</ele>
        <time>2025-01-15T08:16:30Z</time>
      </trkpt>
      <trkpt lat="45.12011" lon="3.90686">
        <ele>568.76</ele>
        <time>2025-01-15T08:16:49Z</time>
      </trkpt>
      <trkpt lat="45.12032" lon="3.90687">
        <ele>566.83</ele>
        <time>2025-01-15T08:17:06Z</time>
      </trkpt>
      <trkpt lat="45.12056" lon="3.90692">
        <ele>567.8</ele>
        <time>2025-01-15T08:17:24Z</time>
      </trkpt>
      <trkpt lat="45.12064" lon="3.90698">
        <ele>567.8</ele>
        <time>2025-01-15T08:17:31Z</time>
      </trkpt>
      <trkpt lat="45.12073" lon="3.90703">
        <ele>569.24</ele>
        <time>2025-01-15T08:17:45Z</time>
      </trkpt>
      <trkpt lat="45.12074" lon="3.90706">
        <ele>571.16</ele>
        <time>2025-01-15T08:17:56Z</time>
      </trkpt>
      <trkpt lat="45.12074" lon="3.90707">
        <ele>570.68</ele>
        <time>2025-01-15T08:18:10Z</time>
      </trkpt>
      <trkpt lat="45.12076" lon="3.90707">
        <ele>570.2</ele>
        <time>2025-01-15T08:18:20Z</time>
      </trkpt>
      <trkpt lat="45.12087" lon="3.90696">
        <ele>570.68</ele>
        <time>2025-01-15T08:18:30Z</time>
      </trkpt>
      <trkpt lat="45.12089" lon="3.90666">
        <ele>569.72</ele>
        <time>2025-01-15T08:18:47Z</time>
      </trkpt>
      <trkpt lat="45.12089" lon="3.90659">
        <ele>569.24</ele>
        <time>2025-01-15T08:18:51Z</time>
      </trkpt>
      <trkpt lat="45.12089" lon="3.90651">
        <ele>569.24</ele>
        <time>2025-01-15T08:18:56Z</time>
      </trkpt>
      <trkpt lat="45.12089" lon="3.90626">
        <ele>570.2</ele>
        <time>2025-01-15T08:19:09Z</time>
      </trkpt>
      <trkpt lat="45.12087" lon="3.90607">
        <ele>569.24</ele>
        <time>2025-01-15T08:19:19Z</time>
      </trkpt>
      <trkpt lat="45.12088" lon="3.90595">
        <ele>569.72</ele>
        <time>2025-01-15T08:19:26Z</time>
      </trkpt>
      <trkpt lat="45.12086" lon="3.90583">
        <ele>569.72</ele>
        <time>2025-01-15T08:19:33Z</time>
      </trkpt>
      <trkpt lat="45.12086" lon="3.90556">
        <ele>570.68</ele>
        <time>2025-01-15T08:19:49Z</time>
      </trkpt>
      <trkpt lat="45.12086" lon="3.90527">
        <ele>571.16</ele>
        <time>2025-01-15T08:20:05Z</time>
      </trkpt>
      <trkpt lat="45.12089" lon="3.90495">
        <ele>571.16</ele>
        <time>2025-01-15T08:20:23Z</time>
      </trkpt>
      <trkpt lat="45.12095" lon="3.90462">
        <ele>570.68</ele>
        <time>2025-01-15T08:20:40Z</time>
      </trkpt>
      <trkpt lat="45.12095" lon="3.9046">
        <ele>570.68</ele>
        <time>2025-01-15T08:20:41Z</time>
      </trkpt>
      <trkpt lat="45.12096" lon="3.90452">
        <ele>570.68</ele>
        <time>2025-01-15T08:20:45Z</time>
      </trkpt>
      <trkpt lat="45.12101" lon="3.90414">
        <ele>569.72</ele>
        <time>2025-01-15T08:21:05Z</time>
      </trkpt>
      <trkpt lat="45.12104" lon="3.90389">
        <ele>571.16</ele>
        <time>2025-01-15T08:21:19Z</time>
      </trkpt>
      <trkpt lat="45.12109" lon="3.90354">
        <ele>571.16</ele>
        <time>2025-01-15T08:21:37Z</time>
      </trkpt>
      <trkpt lat="45.12111" lon="3.90345">
        <ele>571.64</ele>
        <time>2025-01-15T08:21:42Z</time>
      </trkpt>
      <trkpt lat="45.12116" lon="3.90321">
        <ele>570.68</ele>
        <time>2025-01-15T08:21:56Z</time>
      </trkpt>
      <trkpt lat="45.12119" lon="3.90299">
        <ele>570.2</ele>
        <time>2025-01-15T08:22:09Z</time>
      </trkpt>
      <trkpt lat="45.1212" lon="3.90285">
        <ele>570.68</ele>
        <time>2025-01-15T08:22:16Z</time>
      </trkpt>
      <trkpt lat="45.12121" lon="3.90277">
        <ele>570.68</ele>
        <time>2025-01-15T08:22:20Z</time>
      </trkpt>
      <trkpt lat="45.12131" lon="3.90238">
        <ele>569.24</ele>
        <time>2025-01-15T08:22:42Z</time>
      </trkpt>
      <trkpt lat="45.1215" lon="3.90216">
        <ele>567.8</ele>
        <time>2025-01-15T08:23:00Z</time>
      </trkpt>
      <trkpt lat="45.1216" lon="3.90211">
        <ele>566.35</ele>
        <time>2025-01-15T08:23:08Z</time>
      </trkpt>
      <trkpt lat="45.12176" lon="3.90208">
        <ele>567.8</ele>
        <time>2025-01-15T08:23:23Z</time>
      </trkpt>
      <trkpt lat="45.12188" lon="3.90209">
        <ele>567.8</ele>
        <time>2025-01-15T08:23:33Z</time>
      </trkpt>
      <trkpt lat="45.12212" lon="3.90208">
        <ele>570.2</ele>
        <time>2025-01-15T08:23:53Z</time>
      </trkpt>
      <trkpt lat="45.12229" lon="3.90198">
        <ele>572.12</ele>
        <time>2025-01-15T08:24:09Z</time>
      </trkpt>
      <trkpt lat="45.12248" lon="3.90182">
        <ele>575.49</ele>
        <time>2025-01-15T08:24:26Z</time>
      </trkpt>
      <trkpt lat="45.12269" lon="3.9017">
        <ele>578.37</ele>
        <time>2025-01-15T08:24:44Z</time>
      </trkpt>
      <trkpt lat="45.12289" lon="3.90161">
        <ele>581.25</ele>
        <time>2025-01-15T08:25:00Z</time>
      </trkpt>
      <trkpt lat="45.12308" lon="3.90148">
        <ele>585.1</ele>
        <time>2025-01-15T08:25:17Z</time>
      </trkpt>
      <trkpt lat="45.12326" lon="3.90136">
        <ele>587.5</ele>
        <time>2025-01-15T08:25:33Z</time>
      </trkpt>
      <trkpt lat="45.12346" lon="3.90133">
        <ele>590.39</ele>
        <time>2025-01-15T08:25:49Z</time>
      </trkpt>
      <trkpt lat="45.12363" lon="3.90122">
        <ele>592.79</ele>
        <time>2025-01-15T08:26:05Z</time>
      </trkpt>
      <trkpt lat="45.12372" lon="3.90095">
        <ele>589.43</ele>
        <time>2025-01-15T08:26:22Z</time>
      </trkpt>
      <trkpt lat="45.12358" lon="3.90074">
        <ele>590.39</ele>
        <time>2025-01-15T08:26:40Z</time>
      </trkpt>
      <trkpt lat="45.12356" lon="3.90074">
        <ele>590.87</ele>
        <time>2025-01-15T08:26:42Z</time>
      </trkpt>
      <trkpt lat="45.12349" lon="3.90074">
        <ele>590.87</ele>
        <time>2025-01-15T08:26:49Z</time>
      </trkpt>
      <trkpt lat="45.12331" lon="3.90078">
        <ele>590.87</ele>
        <time>2025-01-15T08:27:05Z</time>
      </trkpt>
      <trkpt lat="45.12308" lon="3.90087">
        <ele>593.27</ele>
        <time>2025-01-15T08:27:22Z</time>
      </trkpt>
      <trkpt lat="45.12285" lon="3.90091">
        <ele>594.71</ele>
        <time>2025-01-15T08:27:38Z</time>
      </trkpt>
      <trkpt lat="45.12262" lon="3.90091">
        <ele>595.19</ele>
        <time>2025-01-15T08:27:55Z</time>
      </trkpt>
      <trkpt lat="45.12256" lon="3.9009">
        <ele>595.67</ele>
        <time>2025-01-15T08:28:00Z</time>
      </trkpt>
      <trkpt lat="45.12236" lon="3.90081">
        <ele>596.15</ele>
        <time>2025-01-15T08:28:18Z</time>
      </trkpt>
      <trkpt lat="45.12225" lon="3.90056">
        <ele>596.64</ele>
        <time>2025-01-15T08:28:34Z</time>
      </trkpt>
      <trkpt lat="45.12229" lon="3.90023">
        <ele>597.12</ele>
        <time>2025-01-15T08:28:53Z</time>
      </trkpt>
      <trkpt lat="45.12233" lon="3.90016">
        <ele>597.6</ele>
        <time>2025-01-15T08:28:58Z</time>
      </trkpt>
      <trkpt lat="45.12255" lon="3.90001">
        <ele>597.6</ele>
        <time>2025-01-15T08:29:18Z</time>
      </trkpt>
      <trkpt lat="45.12279" lon="3.89989">
        <ele>599.52</ele>
        <time>2025-01-15T08:29:37Z</time>
      </trkpt>
      <trkpt lat="45.12281" lon="3.89989">
        <ele>599.52</ele>
        <time>2025-01-15T08:29:39Z</time>
      </trkpt>
      <trkpt lat="45.12305" lon="3.89976">
        <ele>601.92</ele>
        <time>2025-01-15T08:29:58Z</time>
      </trkpt>
      <trkpt lat="45.12311" lon="3.89973">
        <ele>602.4</ele>
        <time>2025-01-15T08:30:13Z</time>
      </trkpt>
      <trkpt lat="45.12321" lon="3.89969">
        <ele>603.36</ele>
        <time>2025-01-15T08:30:24Z</time>
      </trkpt>
      <trkpt lat="45.12327" lon="3.89969">
        <ele>603.85</ele>
        <time>2025-01-15T08:30:28Z</time>
      </trkpt>
      <trkpt lat="45.12343" lon="3.89963">
        <ele>606.25</ele>
        <time>2025-01-15T08:30:43Z</time>
      </trkpt>
      <trkpt lat="45.12355" lon="3.89962">
        <ele>607.21</ele>
        <time>2025-01-15T08:30:55Z</time>
      </trkpt>
      <trkpt lat="45.12373" lon="3.89959">
        <ele>609.13</ele>
        <time>2025-01-15T08:31:11Z</time>
      </trkpt>
      <trkpt lat="45.12377" lon="3.89958">
        <ele>609.13</ele>
        <time>2025-01-15T08:31:15Z</time>
      </trkpt>
      <trkpt lat="45.12381" lon="3.89955">
        <ele>609.61</ele>
        <time>2025-01-15T08:31:19Z</time>
      </trkpt>
      <trkpt lat="45.12382" lon="3.89955">
        <ele>610.09</ele>
        <time>2025-01-15T08:31:21Z</time>
      </trkpt>
      <trkpt lat="45.12386" lon="3.89952">
        <ele>610.09</ele>
        <time>2025-01-15T08:31:25Z</time>
      </trkpt>
      <trkpt lat="45.12391" lon="3.8995">
        <ele>610.57</ele>
        <time>2025-01-15T08:31:29Z</time>
      </trkpt>
      <trkpt lat="45.12412" lon="3.89934">
        <ele>612.02</ele>
        <time>2025-01-15T08:31:49Z</time>
      </trkpt>
      <trkpt lat="45.12413" lon="3.89933">
        <ele>612.02</ele>
        <time>2025-01-15T08:31:50Z</time>
      </trkpt>
      <trkpt lat="45.12418" lon="3.8993">
        <ele>612.5</ele>
        <time>2025-01-15T08:31:54Z</time>
      </trkpt>
      <trkpt lat="45.12437" lon="3.8991">
        <ele>614.42</ele>
        <time>2025-01-15T08:32:13Z</time>
      </trkpt>
      <trkpt lat="45.12442" lon="3.89903">
        <ele>614.9</ele>
        <time>2025-01-15T08:32:19Z</time>
      </trkpt>
      <trkpt lat="45.12444" lon="3.89898">
        <ele>615.38</ele>
        <time>2025-01-15T08:32:23Z</time>
      </trkpt>
      <trkpt lat="45.12447" lon="3.89893">
        <ele>615.38</ele>
        <time>2025-01-15T08:32:27Z</time>
      </trkpt>
      <trkpt lat="45.12456" lon="3.89874">
        <ele>616.82</ele>
        <time>2025-01-15T08:32:41Z</time>
      </trkpt>
      <trkpt lat="45.12457" lon="3.89873">
        <ele>616.82</ele>
        <time>2025-01-15T08:32:42Z</time>
      </trkpt>
      <trkpt lat="45.12463" lon="3.89853">
        <ele>619.23</ele>
        <time>2025-01-15T08:32:56Z</time>
      </trkpt>
      <trkpt lat="45.12464" lon="3.8985">
        <ele>619.23</ele>
        <time>2025-01-15T08:32:58Z</time>
      </trkpt>
      <trkpt lat="45.12465" lon="3.89847">
        <ele>619.71</ele>
        <time>2025-01-15T08:33:00Z</time>
      </trkpt>
      <trkpt lat="45.12477" lon="3.89804">
        <ele>623.55</ele>
        <time>2025-01-15T08:33:21Z</time>
      </trkpt>
      <trkpt lat="45.12501" lon="3.89777">
        <ele>624.03</ele>
        <time>2025-01-15T08:33:41Z</time>
      </trkpt>
      <trkpt lat="45.12535" lon="3.89764">
        <ele>627.88</ele>
        <time>2025-01-15T08:34:04Z</time>
      </trkpt>
      <trkpt lat="45.12563" lon="3.89745">
        <ele>630.28</ele>
        <time>2025-01-15T08:34:25Z</time>
      </trkpt>
      <trkpt lat="45.12581" lon="3.89712">
        <ele>633.17</ele>
        <time>2025-01-15T08:34:46Z</time>
      </trkpt>
      <trkpt lat="45.12573" lon="3.89683">
        <ele>636.05</ele>
        <time>2025-01-15T08:35:02Z</time>
      </trkpt>
      <trkpt lat="45.12544" lon="3.89671">
        <ele>637.01</ele>
        <time>2025-01-15T08:35:22Z</time>
      </trkpt>
      <trkpt lat="45.12527" lon="3.89658">
        <ele>638.45</ele>
        <time>2025-01-15T08:35:37Z</time>
      </trkpt>
      <trkpt lat="45.1252" lon="3.89646">
        <ele>639.41</ele>
        <time>2025-01-15T08:35:46Z</time>
      </trkpt>
      <trkpt lat="45.12514" lon="3.89633">
        <ele>640.38</ele>
        <time>2025-01-15T08:35:55Z</time>
      </trkpt>
      <trkpt lat="45.12508" lon="3.89618">
        <ele>640.86</ele>
        <time>2025-01-15T08:36:05Z</time>
      </trkpt>
      <trkpt lat="45.12506" lon="3.89608">
        <ele>641.82</ele>
        <time>2025-01-15T08:36:11Z</time>
      </trkpt>
      <trkpt lat="45.12496" lon="3.89582">
        <ele>643.74</ele>
        <time>2025-01-15T08:36:28Z</time>
      </trkpt>
      <trkpt lat="45.12491" lon="3.89556">
        <ele>646.14</ele>
        <time>2025-01-15T08:36:44Z</time>
      </trkpt>
      <trkpt lat="45.12488" lon="3.89535">
        <ele>648.55</ele>
        <time>2025-01-15T08:36:59Z</time>
      </trkpt>
      <trkpt lat="45.12486" lon="3.89511">
        <ele>650.95</ele>
        <time>2025-01-15T08:37:15Z</time>
      </trkpt>
      <trkpt lat="45.12479" lon="3.8949">
        <ele>653.83</ele>
        <time>2025-01-15T08:37:31Z</time>
      </trkpt>
      <trkpt lat="45.12475" lon="3.8947">
        <ele>658.16</ele>
        <time>2025-01-15T08:37:47Z</time>
      </trkpt>
      <trkpt lat="45.12472" lon="3.89454">
        <ele>662.49</ele>
        <time>2025-01-15T08:38:00Z</time>
      </trkpt>
      <trkpt lat="45.12471" lon="3.89451">
        <ele>662.97</ele>
        <time>2025-01-15T08:38:02Z</time>
      </trkpt>
      <trkpt lat="45.12458" lon="3.8945">
        <ele>665.37</ele>
        <time>2025-01-15T08:38:16Z</time>
      </trkpt>
      <trkpt lat="45.12447" lon="3.89451">
        <ele>667.29</ele>
        <time>2025-01-15T08:38:28Z</time>
      </trkpt>
      <trkpt lat="45.12438" lon="3.89451">
        <ele>667.29</ele>
        <time>2025-01-15T08:38:38Z</time>
      </trkpt>
      <trkpt lat="45.12427" lon="3.89447">
        <ele>668.25</ele>
        <time>2025-01-15T08:38:51Z</time>
      </trkpt>
      <trkpt lat="45.12424" lon="3.8944">
        <ele>668.73</ele>
        <time>2025-01-15T08:38:58Z</time>
      </trkpt>
      <trkpt lat="45.12418" lon="3.89422">
        <ele>671.14</ele>
        <time>2025-01-15T08:39:12Z</time>
      </trkpt>
      <trkpt lat="45.12412" lon="3.89408">
        <ele>674.02</ele>
        <time>2025-01-15T08:39:26Z</time>
      </trkpt>
      <trkpt lat="45.12406" lon="3.89395">
        <ele>675.94</ele>
        <time>2025-01-15T08:39:36Z</time>
      </trkpt>
      <trkpt lat="45.12411" lon="3.89388">
        <ele>677.39</ele>
        <time>2025-01-15T08:39:49Z</time>
      </trkpt>
      <trkpt lat="45.12417" lon="3.89384">
        <ele>678.83</ele>
        <time>2025-01-15T08:40:05Z</time>
      </trkpt>
      <trkpt lat="45.12425" lon="3.89381">
        <ele>679.79</ele>
        <time>2025-01-15T08:40:18Z</time>
      </trkpt>
      <trkpt lat="45.12436" lon="3.89377">
        <ele>683.15</ele>
        <time>2025-01-15T08:40:32Z</time>
      </trkpt>
      <trkpt lat="45.12447" lon="3.89369">
        <ele>685.08</ele>
        <time>2025-01-15T08:40:48Z</time>
      </trkpt>
      <trkpt lat="45.12456" lon="3.89354">
        <ele>684.6</ele>
        <time>2025-01-15T08:41:02Z</time>
      </trkpt>
      <trkpt lat="45.12462" lon="3.89341">
        <ele>686.04</ele>
        <time>2025-01-15T08:41:16Z</time>
      </trkpt>
      <trkpt lat="45.12466" lon="3.89327">
        <ele>688.92</ele>
        <time>2025-01-15T08:41:28Z</time>
      </trkpt>
      <trkpt lat="45.12468" lon="3.89324">
        <ele>689.4</ele>
        <time>2025-01-15T08:41:30Z</time>
      </trkpt>
      <trkpt lat="45.12468" lon="3.89321">
        <ele>689.4</ele>
        <time>2025-01-15T08:41:32Z</time>
      </trkpt>
      <trkpt lat="45.12473" lon="3.89304">
        <ele>692.29</ele>
        <time>2025-01-15T08:41:46Z</time>
      </trkpt>
      <trkpt lat="45.12477" lon="3.89289">
        <ele>695.17</ele>
        <time>2025-01-15T08:42:00Z</time>
      </trkpt>
      <trkpt lat="45.12479" lon="3.89277">
        <ele>697.57</ele>
        <time>2025-01-15T08:42:12Z</time>
      </trkpt>
      <trkpt lat="45.12477" lon="3.89277">
        <ele>699.02</ele>
        <time>2025-01-15T08:42:15Z</time>
      </trkpt>
      <trkpt lat="45.12469" lon="3.89287">
        <ele>700.94</ele>
        <time>2025-01-15T08:42:28Z</time>
      </trkpt>
      <trkpt lat="45.12456" lon="3.89299">
        <ele>704.78</ele>
        <time>2025-01-15T08:42:43Z</time>
      </trkpt>
      <trkpt lat="45.12441" lon="3.89303">
        <ele>705.26</ele>
        <time>2025-01-15T08:42:59Z</time>
      </trkpt>
      <trkpt lat="45.12428" lon="3.89298">
        <ele>704.78</ele>
        <time>2025-01-15T08:43:12Z</time>
      </trkpt>
      <trkpt lat="45.12417" lon="3.89293">
        <ele>706.71</ele>
        <time>2025-01-15T08:43:23Z</time>
      </trkpt>
      <trkpt lat="45.12409" lon="3.89291">
        <ele>707.19</ele>
        <time>2025-01-15T08:43:31Z</time>
      </trkpt>
      <trkpt lat="45.12407" lon="3.89291">
        <ele>708.15</ele>
        <time>2025-01-15T08:43:33Z</time>
      </trkpt>
      <trkpt lat="45.12403" lon="3.89292">
        <ele>709.59</ele>
        <time>2025-01-15T08:43:37Z</time>
      </trkpt>
      <trkpt lat="45.124" lon="3.89291">
        <ele>709.59</ele>
        <time>2025-01-15T08:43:39Z</time>
      </trkpt>
      <trkpt lat="45.12397" lon="3.89291">
        <ele>710.07</ele>
        <time>2025-01-15T08:43:42Z</time>
      </trkpt>
      <trkpt lat="45.1239" lon="3.89288">
        <ele>709.59</ele>
        <time>2025-01-15T08:43:48Z</time>
      </trkpt>
      <trkpt lat="45.12377" lon="3.89272">
        <ele>709.59</ele>
        <time>2025-01-15T08:44:04Z</time>
      </trkpt>
      <trkpt lat="45.12369" lon="3.89261">
        <ele>710.07</ele>
        <time>2025-01-15T08:44:13Z</time>
      </trkpt>
      <trkpt lat="45.12366" lon="3.89257">
        <ele>710.55</ele>
        <time>2025-01-15T08:44:16Z</time>
      </trkpt>
      <trkpt lat="45.1235" lon="3.89246">
        <ele>711.99</ele>
        <time>2025-01-15T08:44:31Z</time>
      </trkpt>
      <trkpt lat="45.12345" lon="3.89242">
        <ele>712.95</ele>
        <time>2025-01-15T08:44:36Z</time>
      </trkpt>
      <trkpt lat="45.12341" lon="3.89239">
        <ele>713.44</ele>
        <time>2025-01-15T08:44:40Z</time>
      </trkpt>
      <trkpt lat="45.12339" lon="3.89235">
        <ele>714.4</ele>
        <time>2025-01-15T08:44:43Z</time>
      </trkpt>
      <trkpt lat="45.12331" lon="3.89214">
        <ele>714.4</ele>
        <time>2025-01-15T08:44:57Z</time>
      </trkpt>
      <trkpt lat="45.12325" lon="3.89193">
        <ele>715.84</ele>
        <time>2025-01-15T08:45:10Z</time>
      </trkpt>
      <trkpt lat="45.12322" lon="3.89172">
        <ele>715.84</ele>
        <time>2025-01-15T08:45:23Z</time>
      </trkpt>
      <trkpt lat="45.12321" lon="3.89171">
        <ele>716.32</ele>
        <time>2025-01-15T08:45:24Z</time>
      </trkpt>
      <trkpt lat="45.12315" lon="3.8915">
        <ele>719.68</ele>
        <time>2025-01-15T08:45:39Z</time>
      </trkpt>
      <trkpt lat="45.12312" lon="3.89133">
        <ele>721.61</ele>
        <time>2025-01-15T08:45:53Z</time>
      </trkpt>
      <trkpt lat="45.12308" lon="3.89116">
        <ele>723.05</ele>
        <time>2025-01-15T08:46:06Z</time>
      </trkpt>
      <trkpt lat="45.12308" lon="3.89105">
        <ele>724.49</ele>
        <time>2025-01-15T08:46:15Z</time>
      </trkpt>
      <trkpt lat="45.1231" lon="3.89088">
        <ele>727.37</ele>
        <time>2025-01-15T08:46:30Z</time>
      </trkpt>
      <trkpt lat="45.1231" lon="3.89087">
        <ele>727.86</ele>
        <time>2025-01-15T08:46:31Z</time>
      </trkpt>
      <trkpt lat="45.12308" lon="3.89082">
        <ele>728.34</ele>
        <time>2025-01-15T08:46:35Z</time>
      </trkpt>
      <trkpt lat="45.12296" lon="3.89086">
        <ele>731.22</ele>
        <time>2025-01-15T08:46:52Z</time>
      </trkpt>
      <trkpt lat="45.12294" lon="3.89088">
        <ele>731.22</ele>
        <time>2025-01-15T08:46:55Z</time>
      </trkpt>
      <trkpt lat="45.12289" lon="3.89092">
        <ele>732.18</ele>
        <time>2025-01-15T08:47:00Z</time>
      </trkpt>
      <trkpt lat="45.1228" lon="3.89101">
        <ele>730.26</ele>
        <time>2025-01-15T08:47:09Z</time>
      </trkpt>
      <trkpt lat="45.12277" lon="3.89099">
        <ele>730.74</ele>
        <time>2025-01-15T08:47:14Z</time>
      </trkpt>
      <trkpt lat="45.12275" lon="3.89081">
        <ele>729.78</ele>
        <time>2025-01-15T08:47:28Z</time>
      </trkpt>
      <trkpt lat="45.12276" lon="3.89078">
        <ele>730.74</ele>
        <time>2025-01-15T08:47:30Z</time>
      </trkpt>
      <trkpt lat="45.12277" lon="3.8906">
        <ele>733.62</ele>
        <time>2025-01-15T08:47:43Z</time>
      </trkpt>
      <trkpt lat="45.12267" lon="3.89044">
        <ele>739.39</ele>
        <time>2025-01-15T08:47:57Z</time>
      </trkpt>
      <trkpt lat="45.12257" lon="3.89029">
        <ele>743.24</ele>
        <time>2025-01-15T08:48:12Z</time>
      </trkpt>
      <trkpt lat="45.12253" lon="3.89016">
        <ele>743.72</ele>
        <time>2025-01-15T08:48:24Z</time>
      </trkpt>
      <trkpt lat="45.12253" lon="3.88994">
        <ele>746.12</ele>
        <time>2025-01-15T08:48:39Z</time>
      </trkpt>
      <trkpt lat="45.12253" lon="3.88993">
        <ele>746.12</ele>
        <time>2025-01-15T08:48:40Z</time>
      </trkpt>
      <trkpt lat="45.1225" lon="3.88983">
        <ele>747.08</ele>
        <time>2025-01-15T08:48:48Z</time>
      </trkpt>
      <trkpt lat="45.12246" lon="3.88973">
        <ele>749.97</ele>
        <time>2025-01-15T08:48:57Z</time>
      </trkpt>
      <trkpt lat="45.12238" lon="3.88947">
        <ele>753.33</ele>
        <time>2025-01-15T08:49:14Z</time>
      </trkpt>
      <trkpt lat="45.12229" lon="3.88924">
        <ele>756.69</ele>
        <time>2025-01-15T08:49:31Z</time>
      </trkpt>
      <trkpt lat="45.12217" lon="3.88906">
        <ele>759.58</ele>
        <time>2025-01-15T08:49:47Z</time>
      </trkpt>
      <trkpt lat="45.12207" lon="3.88891">
        <ele>761.5</ele>
        <time>2025-01-15T08:50:02Z</time>
      </trkpt>
      <trkpt lat="45.12205" lon="3.88884">
        <ele>755.73</ele>
        <time>2025-01-15T08:50:14Z</time>
      </trkpt>
      <trkpt lat="45.12203" lon="3.88877">
        <ele>752.37</ele>
        <time>2025-01-15T08:50:35Z</time>
      </trkpt>
      <trkpt lat="45.12204" lon="3.88879">
        <ele>749</ele>
        <time>2025-01-15T08:50:54Z</time>
      </trkpt>
      <trkpt lat="45.12201" lon="3.88877">
        <ele>746.12</ele>
        <time>2025-01-15T08:51:20Z</time>
      </trkpt>
      <trkpt lat="45.12199" lon="3.88877">
        <ele>744.68</ele>
        <time>2025-01-15T08:51:38Z</time>
      </trkpt>
      <trkpt lat="45.122" lon="3.88875">
        <ele>742.76</ele>
        <time>2025-01-15T08:51:56Z</time>
      </trkpt>
      <trkpt lat="45.122" lon="3.88876">
        <ele>742.76</ele>
        <time>2025-01-15T08:52:11Z</time>
      </trkpt>
      <trkpt lat="45.12201" lon="3.88877">
        <ele>745.64</ele>
        <time>2025-01-15T08:52:32Z</time>
      </trkpt>
      <trkpt lat="45.12201" lon="3.88877">
        <ele>745.16</ele>
        <time>2025-01-15T08:52:53Z</time>
      </trkpt>
      <trkpt lat="45.12201" lon="3.88875">
        <ele>744.2</ele>
        <time>2025-01-15T08:53:15Z</time>
      </trkpt>
      <trkpt lat="45.12202" lon="3.8887">
        <ele>746.6</ele>
        <time>2025-01-15T08:53:28Z</time>
      </trkpt>
      <trkpt lat="45.12206" lon="3.88852">
        <ele>749</ele>
        <time>2025-01-15T08:53:46Z</time>
      </trkpt>
      <trkpt lat="45.12211" lon="3.88841">
        <ele>751.41</ele>
        <time>2025-01-15T08:54:02Z</time>
      </trkpt>
      <trkpt lat="45.1221" lon="3.88845">
        <ele>750.93</ele>
        <time>2025-01-15T08:54:08Z</time>
      </trkpt>
      <trkpt lat="45.12205" lon="3.88868">
        <ele>748.52</ele>
        <time>2025-01-15T08:54:24Z</time>
      </trkpt>
      <trkpt lat="45.12202" lon="3.88879">
        <ele>745.16</ele>
        <time>2025-01-15T08:54:39Z</time>
      </trkpt>
      <trkpt lat="45.12199" lon="3.88877">
        <ele>744.68</ele>
        <time>2025-01-15T08:54:43Z</time>
      </trkpt>
      <trkpt lat="45.12195" lon="3.88865">
        <ele>739.39</ele>
        <time>2025-01-15T08:54:52Z</time>
      </trkpt>
      <trkpt lat="45.12193" lon="3.88854">
        <ele>735.07</ele>
        <time>2025-01-15T08:55:04Z</time>
      </trkpt>
      <trkpt lat="45.12192" lon="3.88845">
        <ele>732.66</ele>
        <time>2025-01-15T08:55:16Z</time>
      </trkpt>
      <trkpt lat="45.12192" lon="3.8883">
        <ele>732.18</ele>
        <time>2025-01-15T08:55:30Z</time>
      </trkpt>
      <trkpt lat="45.12189" lon="3.88825">
        <ele>730.26</ele>
        <time>2025-01-15T08:55:35Z</time>
      </trkpt>
      <trkpt lat="45.12187" lon="3.88809">
        <ele>729.3</ele>
        <time>2025-01-15T08:55:47Z</time>
      </trkpt>
      <trkpt lat="45.12188" lon="3.88805">
        <ele>729.3</ele>
        <time>2025-01-15T08:55:50Z</time>
      </trkpt>
      <trkpt lat="45.12188" lon="3.8879">
        <ele>725.45</ele>
        <time>2025-01-15T08:56:03Z</time>
      </trkpt>
      <trkpt lat="45.12189" lon="3.88775">
        <ele>719.68</ele>
        <time>2025-01-15T08:56:16Z</time>
      </trkpt>
      <trkpt lat="45.12189" lon="3.88773">
        <ele>719.2</ele>
        <time>2025-01-15T08:56:18Z</time>
      </trkpt>
      <trkpt lat="45.12193" lon="3.88756">
        <ele>714.88</ele>
        <time>2025-01-15T08:56:32Z</time>
      </trkpt>
      <trkpt lat="45.12196" lon="3.88741">
        <ele>711.99</ele>
        <time>2025-01-15T08:56:44Z</time>
      </trkpt>
      <trkpt lat="45.12201" lon="3.88726">
        <ele>711.51</ele>
        <time>2025-01-15T08:56:57Z</time>
      </trkpt>
      <trkpt lat="45.12204" lon="3.88717">
        <ele>713.44</ele>
        <time>2025-01-15T08:57:08Z</time>
      </trkpt>
      <trkpt lat="45.12206" lon="3.8871">
        <ele>712.95</ele>
        <time>2025-01-15T08:57:23Z</time>
      </trkpt>
      <trkpt lat="45.12209" lon="3.88705">
        <ele>714.4</ele>
        <time>2025-01-15T08:57:36Z</time>
      </trkpt>
      <trkpt lat="45.12213" lon="3.88699">
        <ele>712.47</ele>
        <time>2025-01-15T08:57:49Z</time>
      </trkpt>
      <trkpt lat="45.12212" lon="3.88697">
        <ele>712.47</ele>
        <time>2025-01-15T08:58:04Z</time>
      </trkpt>
      <trkpt lat="45.12209" lon="3.88698">
        <ele>712.95</ele>
        <time>2025-01-15T08:58:18Z</time>
      </trkpt>
      <trkpt lat="45.12201" lon="3.887">
        <ele>713.92</ele>
        <time>2025-01-15T08:58:33Z</time>
      </trkpt>
      <trkpt lat="45.12194" lon="3.88697">
        <ele>712.95</ele>
        <time>2025-01-15T08:58:40Z</time>
      </trkpt>
      <trkpt lat="45.12183" lon="3.88689">
        <ele>711.51</ele>
        <time>2025-01-15T08:58:51Z</time>
      </trkpt>
      <trkpt lat="45.12172" lon="3.88685">
        <ele>713.92</ele>
        <time>2025-01-15T08:59:05Z</time>
      </trkpt>
      <trkpt lat="45.12162" lon="3.88681">
        <ele>715.36</ele>
        <time>2025-01-15T08:59:17Z</time>
      </trkpt>
      <trkpt lat="45.12153" lon="3.88676">
        <ele>715.84</ele>
        <time>2025-01-15T08:59:30Z</time>
      </trkpt>
      <trkpt lat="45.12152" lon="3.88676">
        <ele>715.84</ele>
        <time>2025-01-15T08:59:31Z</time>
      </trkpt>
      <trkpt lat="45.12142" lon="3.88674">
        <ele>717.28</ele>
        <time>2025-01-15T08:59:44Z</time>
      </trkpt>
      <trkpt lat="45.12138" lon="3.88675">
        <ele>718.24</ele>
        <time>2025-01-15T08:59:56Z</time>
      </trkpt>
      <trkpt lat="45.12133" lon="3.88675">
        <ele>717.76</ele>
        <time>2025-01-15T09:00:08Z</time>
      </trkpt>
      <trkpt lat="45.12131" lon="3.88673">
        <ele>718.72</ele>
        <time>2025-01-15T09:00:25Z</time>
      </trkpt>
      <trkpt lat="45.1213" lon="3.88671">
        <ele>720.16</ele>
        <time>2025-01-15T09:00:35Z</time>
      </trkpt>
      <trkpt lat="45.12131" lon="3.8867">
        <ele>719.2</ele>
        <time>2025-01-15T09:00:47Z</time>
      </trkpt>
      <trkpt lat="45.12129" lon="3.88673">
        <ele>716.8</ele>
        <time>2025-01-15T09:01:02Z</time>
      </trkpt>
      <trkpt lat="45.12129" lon="3.88672">
        <ele>716.32</ele>
        <time>2025-01-15T09:01:18Z</time>
      </trkpt>
      <trkpt lat="45.12129" lon="3.88672">
        <ele>719.68</ele>
        <time>2025-01-15T09:01:39Z</time>
      </trkpt>
      <trkpt lat="45.1213" lon="3.88671">
        <ele>720.65</ele>
        <time>2025-01-15T09:01:58Z</time>
      </trkpt>
      <trkpt lat="45.12129" lon="3.88672">
        <ele>721.61</ele>
        <time>2025-01-15T09:02:17Z</time>
      </trkpt>
      <trkpt lat="45.1213" lon="3.88671">
        <ele>719.68</ele>
        <time>2025-01-15T09:02:40Z</time>
      </trkpt>
      <trkpt lat="45.12132" lon="3.88671">
        <ele>718.72</ele>
        <time>2025-01-15T09:03:01Z</time>
      </trkpt>
      <trkpt lat="45.12131" lon="3.88671">
        <ele>717.76</ele>
        <time>2025-01-15T09:03:20Z</time>
      </trkpt>
      <trkpt lat="45.12128" lon="3.8867">
        <ele>719.2</ele>
        <time>2025-01-15T09:03:34Z</time>
      </trkpt>
      <trkpt lat="45.12122" lon="3.88671">
        <ele>718.72</ele>
        <time>2025-01-15T09:03:46Z</time>
      </trkpt>
      <trkpt lat="45.12119" lon="3.88674">
        <ele>719.2</ele>
        <time>2025-01-15T09:03:59Z</time>
      </trkpt>
      <trkpt lat="45.12108" lon="3.88676">
        <ele>721.13</ele>
        <time>2025-01-15T09:04:14Z</time>
      </trkpt>
      <trkpt lat="45.12096" lon="3.88677">
        <ele>721.13</ele>
        <time>2025-01-15T09:04:29Z</time>
      </trkpt>
      <trkpt lat="45.12087" lon="3.88679">
        <ele>724.01</ele>
        <time>2025-01-15T09:04:42Z</time>
      </trkpt>
      <trkpt lat="45.12083" lon="3.88683">
        <ele>724.01</ele>
        <time>2025-01-15T09:04:53Z</time>
      </trkpt>
      <trkpt lat="45.12077" lon="3.8868">
        <ele>724.97</ele>
        <time>2025-01-15T09:05:07Z</time>
      </trkpt>
      <trkpt lat="45.12061" lon="3.88676">
        <ele>726.41</ele>
        <time>2025-01-15T09:05:22Z</time>
      </trkpt>
      <trkpt lat="45.12055" lon="3.88669">
        <ele>730.26</ele>
        <time>2025-01-15T09:05:38Z</time>
      </trkpt>
      <trkpt lat="45.12055" lon="3.88669">
        <ele>731.22</ele>
        <time>2025-01-15T09:05:49Z</time>
      </trkpt>
      <trkpt lat="45.12056" lon="3.88666">
        <ele>731.22</ele>
        <time>2025-01-15T09:06:07Z</time>
      </trkpt>
      <trkpt lat="45.12051" lon="3.88662">
        <ele>730.74</ele>
        <time>2025-01-15T09:06:15Z</time>
      </trkpt>
      <trkpt lat="45.12043" lon="3.8865">
        <ele>728.34</ele>
        <time>2025-01-15T09:06:30Z</time>
      </trkpt>
      <trkpt lat="45.1204" lon="3.88647">
        <ele>725.45</ele>
        <time>2025-01-15T09:06:43Z</time>
      </trkpt>
      <trkpt lat="45.12035" lon="3.88643">
        <ele>724.49</ele>
        <time>2025-01-15T09:06:55Z</time>
      </trkpt>
      <trkpt lat="45.12033" lon="3.88641">
        <ele>723.53</ele>
        <time>2025-01-15T09:07:15Z</time>
      </trkpt>
      <trkpt lat="45.12025" lon="3.8864">
        <ele>721.13</ele>
        <time>2025-01-15T09:07:26Z</time>
      </trkpt>
      <trkpt lat="45.12012" lon="3.88639">
        <ele>719.2</ele>
        <time>2025-01-15T09:07:40Z</time>
      </trkpt>
      <trkpt lat="45.12005" lon="3.88639">
        <ele>717.76</ele>
        <time>2025-01-15T09:07:47Z</time>
      </trkpt>
      <trkpt lat="45.12003" lon="3.88647">
        <ele>717.28</ele>
        <time>2025-01-15T09:08:00Z</time>
      </trkpt>
      <trkpt lat="45.12003" lon="3.88648">
        <ele>717.28</ele>
        <time>2025-01-15T09:08:01Z</time>
      </trkpt>
      <trkpt lat="45.12009" lon="3.88657">
        <ele>719.2</ele>
        <time>2025-01-15T09:08:16Z</time>
      </trkpt>
      <trkpt lat="45.12014" lon="3.8866">
        <ele>719.2</ele>
        <time>2025-01-15T09:08:21Z</time>
      </trkpt>
      <trkpt lat="45.12017" lon="3.88665">
        <ele>719.68</ele>
        <time>2025-01-15T09:08:25Z</time>
      </trkpt>
      <trkpt lat="45.12022" lon="3.88668">
        <ele>720.16</ele>
        <time>2025-01-15T09:08:30Z</time>
      </trkpt>
      <trkpt lat="45.12031" lon="3.88679">
        <ele>718.24</ele>
        <time>2025-01-15T09:08:45Z</time>
      </trkpt>
      <trkpt lat="45.12033" lon="3.88687">
        <ele>712.95</ele>
        <time>2025-01-15T09:08:58Z</time>
      </trkpt>
      <trkpt lat="45.12035" lon="3.88688">
        <ele>710.55</ele>
        <time>2025-01-15T09:09:17Z</time>
      </trkpt>
      <trkpt lat="45.12033" lon="3.88687">
        <ele>707.19</ele>
        <time>2025-01-15T09:09:35Z</time>
      </trkpt>
      <trkpt lat="45.1203" lon="3.88687">
        <ele>704.3</ele>
        <time>2025-01-15T09:09:50Z</time>
      </trkpt>
      <trkpt lat="45.12029" lon="3.88686">
        <ele>704.3</ele>
        <time>2025-01-15T09:10:10Z</time>
      </trkpt>
      <trkpt lat="45.12034" lon="3.8868">
        <ele>705.75</ele>
        <time>2025-01-15T09:10:26Z</time>
      </trkpt>
      <trkpt lat="45.12028" lon="3.88675">
        <ele>708.15</ele>
        <time>2025-01-15T09:10:38Z</time>
      </trkpt>
      <trkpt lat="45.12021" lon="3.8867">
        <ele>709.11</ele>
        <time>2025-01-15T09:10:49Z</time>
      </trkpt>
      <trkpt lat="45.12007" lon="3.88655">
        <ele>712.47</ele>
        <time>2025-01-15T09:11:04Z</time>
      </trkpt>
      <trkpt lat="45.11998" lon="3.88644">
        <ele>716.8</ele>
        <time>2025-01-15T09:11:18Z</time>
      </trkpt>
      <trkpt lat="45.12003" lon="3.88642">
        <ele>719.2</ele>
        <time>2025-01-15T09:11:26Z</time>
      </trkpt>
      <trkpt lat="45.12016" lon="3.88639">
        <ele>724.97</ele>
        <time>2025-01-15T09:11:42Z</time>
      </trkpt>
      <trkpt lat="45.12026" lon="3.88638">
        <ele>728.82</ele>
        <time>2025-01-15T09:11:55Z</time>
      </trkpt>
      <trkpt lat="45.12037" lon="3.88641">
        <ele>732.66</ele>
        <time>2025-01-15T09:12:10Z</time>
      </trkpt>
      <trkpt lat="45.12032" lon="3.88629">
        <ele>733.14</ele>
        <time>2025-01-15T09:12:25Z</time>
      </trkpt>
      <trkpt lat="45.12022" lon="3.88622">
        <ele>735.07</ele>
        <time>2025-01-15T09:12:39Z</time>
      </trkpt>
      <trkpt lat="45.12013" lon="3.88611">
        <ele>738.91</ele>
        <time>2025-01-15T09:12:54Z</time>
      </trkpt>
      <trkpt lat="45.12006" lon="3.88604">
        <ele>741.79</ele>
        <time>2025-01-15T09:13:04Z</time>
      </trkpt>
      <trkpt lat="45.11994" lon="3.88592">
        <ele>743.72</ele>
        <time>2025-01-15T09:13:18Z</time>
      </trkpt>
      <trkpt lat="45.11985" lon="3.88585">
        <ele>746.6</ele>
        <time>2025-01-15T09:13:31Z</time>
      </trkpt>
      <trkpt lat="45.11977" lon="3.88581">
        <ele>747.08</ele>
        <time>2025-01-15T09:13:43Z</time>
      </trkpt>
      <trkpt lat="45.11969" lon="3.88576">
        <ele>748.52</ele>
        <time>2025-01-15T09:13:57Z</time>
      </trkpt>
      <trkpt lat="45.1196" lon="3.88574">
        <ele>752.85</ele>
        <time>2025-01-15T09:14:10Z</time>
      </trkpt>
      <trkpt lat="45.11959" lon="3.88574">
        <ele>753.33</ele>
        <time>2025-01-15T09:14:13Z</time>
      </trkpt>
      <trkpt lat="45.1195" lon="3.88579">
        <ele>757.66</ele>
        <time>2025-01-15T09:14:26Z</time>
      </trkpt>
      <trkpt lat="45.1194" lon="3.88595">
        <ele>763.42</ele>
        <time>2025-01-15T09:14:41Z</time>
      </trkpt>
      <trkpt lat="45.11927" lon="3.88605">
        <ele>766.31</ele>
        <time>2025-01-15T09:14:55Z</time>
      </trkpt>
      <trkpt lat="45.11924" lon="3.88608">
        <ele>766.79</ele>
        <time>2025-01-15T09:14:58Z</time>
      </trkpt>
      <trkpt lat="45.1192" lon="3.88613">
        <ele>768.23</ele>
        <time>2025-01-15T09:15:02Z</time>
      </trkpt>
      <trkpt lat="45.11906" lon="3.8863">
        <ele>771.11</ele>
        <time>2025-01-15T09:15:18Z</time>
      </trkpt>
      <trkpt lat="45.11889" lon="3.88634">
        <ele>770.15</ele>
        <time>2025-01-15T09:15:32Z</time>
      </trkpt>
      <trkpt lat="45.11877" lon="3.88626">
        <ele>767.75</ele>
        <time>2025-01-15T09:15:43Z</time>
      </trkpt>
      <trkpt lat="45.11863" lon="3.8861">
        <ele>770.63</ele>
        <time>2025-01-15T09:16:01Z</time>
      </trkpt>
      <trkpt lat="45.11852" lon="3.88603">
        <ele>774</ele>
        <time>2025-01-15T09:16:14Z</time>
      </trkpt>
      <trkpt lat="45.1185" lon="3.88602">
        <ele>774.48</ele>
        <time>2025-01-15T09:16:16Z</time>
      </trkpt>
      <trkpt lat="45.11838" lon="3.88597">
        <ele>777.84</ele>
        <time>2025-01-15T09:16:32Z</time>
      </trkpt>
      <trkpt lat="45.11826" lon="3.88591">
        <ele>780.25</ele>
        <time>2025-01-15T09:16:48Z</time>
      </trkpt>
      <trkpt lat="45.11813" lon="3.88583">
        <ele>780.73</ele>
        <time>2025-01-15T09:17:03Z</time>
      </trkpt>
      <trkpt lat="45.11811" lon="3.8858">
        <ele>780.73</ele>
        <time>2025-01-15T09:17:08Z</time>
      </trkpt>
      <trkpt lat="45.11798" lon="3.88564">
        <ele>782.17</ele>
        <time>2025-01-15T09:17:25Z</time>
      </trkpt>
      <trkpt lat="45.11796" lon="3.88557">
        <ele>780.73</ele>
        <time>2025-01-15T09:17:29Z</time>
      </trkpt>
      <trkpt lat="45.11793" lon="3.88541">
        <ele>779.29</ele>
        <time>2025-01-15T09:17:41Z</time>
      </trkpt>
      <trkpt lat="45.11793" lon="3.88524">
        <ele>780.25</ele>
        <time>2025-01-15T09:17:57Z</time>
      </trkpt>
      <trkpt lat="45.11791" lon="3.88509">
        <ele>780.25</ele>
        <time>2025-01-15T09:18:12Z</time>
      </trkpt>
      <trkpt lat="45.11791" lon="3.88506">
        <ele>780.25</ele>
        <time>2025-01-15T09:18:26Z</time>
      </trkpt>
      <trkpt lat="45.1179" lon="3.88505">
        <ele>778.81</ele>
        <time>2025-01-15T09:18:42Z</time>
      </trkpt>
      <trkpt lat="45.11789" lon="3.88503">
        <ele>778.32</ele>
        <time>2025-01-15T09:19:06Z</time>
      </trkpt>
      <trkpt lat="45.11789" lon="3.88503">
        <ele>781.21</ele>
        <time>2025-01-15T09:19:26Z</time>
      </trkpt>
      <trkpt lat="45.1179" lon="3.88504">
        <ele>781.21</ele>
        <time>2025-01-15T09:19:43Z</time>
      </trkpt>
      <trkpt lat="45.11791" lon="3.88503">
        <ele>780.25</ele>
        <time>2025-01-15T09:20:09Z</time>
      </trkpt>
      <trkpt lat="45.1179" lon="3.88502">
        <ele>781.69</ele>
        <time>2025-01-15T09:20:35Z</time>
      </trkpt>
      <trkpt lat="45.11789" lon="3.88502">
        <ele>783.61</ele>
        <time>2025-01-15T09:21:07Z</time>
      </trkpt>
      <trkpt lat="45.1179" lon="3.88503">
        <ele>783.61</ele>
        <time>2025-01-15T09:21:36Z</time>
      </trkpt>
      <trkpt lat="45.11789" lon="3.88499">
        <ele>784.09</ele>
        <time>2025-01-15T09:22:04Z</time>
      </trkpt>
      <trkpt lat="45.11788" lon="3.88499">
        <ele>785.05</ele>
        <time>2025-01-15T09:22:34Z</time>
      </trkpt>
      <trkpt lat="45.11791" lon="3.88499">
        <ele>788.9</ele>
        <time>2025-01-15T09:23:02Z</time>
      </trkpt>
      <trkpt lat="45.11788" lon="3.88499">
        <ele>788.42</ele>
        <time>2025-01-15T09:23:23Z</time>
      </trkpt>
      <trkpt lat="45.11789" lon="3.88502">
        <ele>793.71</ele>
        <time>2025-01-15T09:23:48Z</time>
      </trkpt>
      <trkpt lat="45.11791" lon="3.88501">
        <ele>795.63</ele>
        <time>2025-01-15T09:24:17Z</time>
      </trkpt>
      <trkpt lat="45.1179" lon="3.88497">
        <ele>795.15</ele>
        <time>2025-01-15T09:24:41Z</time>
      </trkpt>
      <trkpt lat="45.11791" lon="3.88499">
        <ele>794.19</ele>
        <time>2025-01-15T09:24:55Z</time>
      </trkpt>
      <trkpt lat="45.1179" lon="3.88501">
        <ele>791.78</ele>
        <time>2025-01-15T09:25:12Z</time>
      </trkpt>
      <trkpt lat="45.11797" lon="3.88504">
        <ele>790.82</ele>
        <time>2025-01-15T09:25:26Z</time>
      </trkpt>
      <trkpt lat="45.11803" lon="3.88506">
        <ele>789.86</ele>
        <time>2025-01-15T09:25:33Z</time>
      </trkpt>
      <trkpt lat="45.11798" lon="3.88499">
        <ele>790.34</ele>
        <time>2025-01-15T09:25:47Z</time>
      </trkpt>
      <trkpt lat="45.11794" lon="3.88486">
        <ele>791.78</ele>
        <time>2025-01-15T09:26:02Z</time>
      </trkpt>
      <trkpt lat="45.11806" lon="3.88488">
        <ele>796.11</ele>
        <time>2025-01-15T09:26:16Z</time>
      </trkpt>
      <trkpt lat="45.1182" lon="3.88494">
        <ele>800.44</ele>
        <time>2025-01-15T09:26:32Z</time>
      </trkpt>
      <trkpt lat="45.11831" lon="3.8849">
        <ele>800.92</ele>
        <time>2025-01-15T09:26:46Z</time>
      </trkpt>
      <trkpt lat="45.11831" lon="3.88487">
        <ele>797.55</ele>
        <time>2025-01-15T09:26:58Z</time>
      </trkpt>
      <trkpt lat="45.1183" lon="3.88484">
        <ele>795.63</ele>
        <time>2025-01-15T09:27:11Z</time>
      </trkpt>
      <trkpt lat="45.11824" lon="3.88476">
        <ele>797.07</ele>
        <time>2025-01-15T09:27:25Z</time>
      </trkpt>
      <trkpt lat="45.11822" lon="3.88475">
        <ele>797.07</ele>
        <time>2025-01-15T09:27:28Z</time>
      </trkpt>
      <trkpt lat="45.11841" lon="3.88488">
        <ele>799.95</ele>
        <time>2025-01-15T09:27:47Z</time>
      </trkpt>
      <trkpt lat="45.11863" lon="3.88506">
        <ele>803.32</ele>
        <time>2025-01-15T09:28:06Z</time>
      </trkpt>
      <trkpt lat="45.11878" lon="3.88517">
        <ele>804.76</ele>
        <time>2025-01-15T09:28:21Z</time>
      </trkpt>
      <trkpt lat="45.11899" lon="3.88513">
        <ele>805.72</ele>
        <time>2025-01-15T09:28:38Z</time>
      </trkpt>
      <trkpt lat="45.1191" lon="3.8849">
        <ele>808.61</ele>
        <time>2025-01-15T09:28:56Z</time>
      </trkpt>
      <trkpt lat="45.11921" lon="3.88472">
        <ele>811.01</ele>
        <time>2025-01-15T09:29:13Z</time>
      </trkpt>
      <trkpt lat="45.11935" lon="3.88461">
        <ele>812.93</ele>
        <time>2025-01-15T09:29:29Z</time>
      </trkpt>
      <trkpt lat="45.11949" lon="3.88458">
        <ele>814.85</ele>
        <time>2025-01-15T09:29:42Z</time>
      </trkpt>
      <trkpt lat="45.11973" lon="3.88452">
        <ele>822.06</ele>
        <time>2025-01-15T09:30:01Z</time>
      </trkpt>
      <trkpt lat="45.11988" lon="3.88451">
        <ele>828.31</ele>
        <time>2025-01-15T09:30:17Z</time>
      </trkpt>
      <trkpt lat="45.11992" lon="3.88452">
        <ele>830.24</ele>
        <time>2025-01-15T09:30:21Z</time>
      </trkpt>
      <trkpt lat="45.11999" lon="3.88458">
        <ele>828.79</ele>
        <time>2025-01-15T09:30:36Z</time>
      </trkpt>
      <trkpt lat="45.12012" lon="3.88469">
        <ele>826.39</ele>
        <time>2025-01-15T09:30:50Z</time>
      </trkpt>
      <trkpt lat="45.12019" lon="3.88474">
        <ele>823.99</ele>
        <time>2025-01-15T09:31:05Z</time>
      </trkpt>
      <trkpt lat="45.12021" lon="3.88473">
        <ele>822.55</ele>
        <time>2025-01-15T09:31:18Z</time>
      </trkpt>
      <trkpt lat="45.12024" lon="3.88472">
        <ele>819.66</ele>
        <time>2025-01-15T09:31:35Z</time>
      </trkpt>
      <trkpt lat="45.12037" lon="3.88469">
        <ele>819.18</ele>
        <time>2025-01-15T09:31:49Z</time>
      </trkpt>
      <trkpt lat="45.12058" lon="3.88465">
        <ele>819.66</ele>
        <time>2025-01-15T09:32:08Z</time>
      </trkpt>
      <trkpt lat="45.12076" lon="3.88458">
        <ele>821.58</ele>
        <time>2025-01-15T09:32:25Z</time>
      </trkpt>
      <trkpt lat="45.12096" lon="3.88453">
        <ele>826.87</ele>
        <time>2025-01-15T09:32:42Z</time>
      </trkpt>
      <trkpt lat="45.12112" lon="3.88448">
        <ele>829.76</ele>
        <time>2025-01-15T09:32:57Z</time>
      </trkpt>
      <trkpt lat="45.12135" lon="3.88445">
        <ele>830.72</ele>
        <time>2025-01-15T09:33:14Z</time>
      </trkpt>
      <trkpt lat="45.12151" lon="3.88444">
        <ele>831.2</ele>
        <time>2025-01-15T09:33:29Z</time>
      </trkpt>
      <trkpt lat="45.12172" lon="3.88451">
        <ele>830.72</ele>
        <time>2025-01-15T09:33:46Z</time>
      </trkpt>
      <trkpt lat="45.12193" lon="3.88447">
        <ele>829.76</ele>
        <time>2025-01-15T09:34:03Z</time>
      </trkpt>
      <trkpt lat="45.12215" lon="3.8843">
        <ele>826.87</ele>
        <time>2025-01-15T09:34:23Z</time>
      </trkpt>
      <trkpt lat="45.12236" lon="3.88407">
        <ele>824.47</ele>
        <time>2025-01-15T09:34:44Z</time>
      </trkpt>
      <trkpt lat="45.12249" lon="3.88383">
        <ele>826.87</ele>
        <time>2025-01-15T09:35:02Z</time>
      </trkpt>
      <trkpt lat="45.12257" lon="3.88358">
        <ele>827.83</ele>
        <time>2025-01-15T09:35:18Z</time>
      </trkpt>
      <trkpt lat="45.12266" lon="3.88332">
        <ele>828.31</ele>
        <time>2025-01-15T09:35:35Z</time>
      </trkpt>
      <trkpt lat="45.12283" lon="3.88317">
        <ele>829.76</ele>
        <time>2025-01-15T09:35:52Z</time>
      </trkpt>
      <trkpt lat="45.12308" lon="3.88309">
        <ele>834.08</ele>
        <time>2025-01-15T09:36:12Z</time>
      </trkpt>
      <trkpt lat="45.12324" lon="3.883">
        <ele>836</ele>
        <time>2025-01-15T09:36:27Z</time>
      </trkpt>
      <trkpt lat="45.12335" lon="3.88282">
        <ele>836.96</ele>
        <time>2025-01-15T09:36:43Z</time>
      </trkpt>
      <trkpt lat="45.12344" lon="3.88252">
        <ele>836.48</ele>
        <time>2025-01-15T09:37:01Z</time>
      </trkpt>
      <trkpt lat="45.12357" lon="3.88218">
        <ele>835.52</ele>
        <time>2025-01-15T09:37:21Z</time>
      </trkpt>
      <trkpt lat="45.12364" lon="3.88193">
        <ele>835.04</ele>
        <time>2025-01-15T09:37:37Z</time>
      </trkpt>
      <trkpt lat="45.12364" lon="3.88186">
        <ele>834.56</ele>
        <time>2025-01-15T09:37:41Z</time>
      </trkpt>
      <trkpt lat="45.12369" lon="3.88161">
        <ele>834.08</ele>
        <time>2025-01-15T09:37:56Z</time>
      </trkpt>
      <trkpt lat="45.12369" lon="3.88158">
        <ele>834.08</ele>
        <time>2025-01-15T09:37:58Z</time>
      </trkpt>
      <trkpt lat="45.12373" lon="3.88131">
        <ele>834.08</ele>
        <time>2025-01-15T09:38:13Z</time>
      </trkpt>
      <trkpt lat="45.12375" lon="3.88093">
        <ele>833.6</ele>
        <time>2025-01-15T09:38:33Z</time>
      </trkpt>
      <trkpt lat="45.12377" lon="3.88059">
        <ele>834.56</ele>
        <time>2025-01-15T09:38:52Z</time>
      </trkpt>
      <trkpt lat="45.12382" lon="3.88024">
        <ele>836.48</ele>
        <time>2025-01-15T09:39:11Z</time>
      </trkpt>
      <trkpt lat="45.12384" lon="3.88013">
        <ele>837.45</ele>
        <time>2025-01-15T09:39:17Z</time>
      </trkpt>
      <trkpt lat="45.12391" lon="3.87993">
        <ele>837.93</ele>
        <time>2025-01-15T09:39:32Z</time>
      </trkpt>
      <trkpt lat="45.12395" lon="3.87983">
        <ele>837.93</ele>
        <time>2025-01-15T09:39:38Z</time>
      </trkpt>
      <trkpt lat="45.12396" lon="3.87981">
        <ele>837.45</ele>
        <time>2025-01-15T09:39:39Z</time>
      </trkpt>
      <trkpt lat="45.12396" lon="3.8798">
        <ele>837.45</ele>
        <time>2025-01-15T09:39:40Z</time>
      </trkpt>
      <trkpt lat="45.12397" lon="3.87979">
        <ele>837.45</ele>
        <time>2025-01-15T09:39:41Z</time>
      </trkpt>
      <trkpt lat="45.12398" lon="3.87978">
        <ele>837.45</ele>
        <time>2025-01-15T09:39:42Z</time>
      </trkpt>
      <trkpt lat="45.12399" lon="3.87977">
        <ele>837.45</ele>
        <time>2025-01-15T09:39:43Z</time>
      </trkpt>
      <trkpt lat="45.124" lon="3.87977">
        <ele>837.45</ele>
        <time>2025-01-15T09:39:44Z</time>
      </trkpt>
      <trkpt lat="45.12402" lon="3.87976">
        <ele>837.45</ele>
        <time>2025-01-15T09:39:45Z</time>
      </trkpt>
      <trkpt lat="45.12403" lon="3.87976">
        <ele>837.45</ele>
        <time>2025-01-15T09:39:46Z</time>
      </trkpt>
      <trkpt lat="45.1241" lon="3.87974">
        <ele>837.93</ele>
        <time>2025-01-15T09:39:55Z</time>
      </trkpt>
      <trkpt lat="45.12411" lon="3.87974">
        <ele>838.41</ele>
        <time>2025-01-15T09:39:56Z</time>
      </trkpt>
      <trkpt lat="45.1242" lon="3.87975">
        <ele>839.37</ele>
        <time>2025-01-15T09:40:10Z</time>
      </trkpt>
      <trkpt lat="45.12422" lon="3.87974">
        <ele>840.81</ele>
        <time>2025-01-15T09:40:28Z</time>
      </trkpt>
      <trkpt lat="45.12426" lon="3.87963">
        <ele>842.73</ele>
        <time>2025-01-15T09:40:40Z</time>
      </trkpt>
      <trkpt lat="45.12429" lon="3.87934">
        <ele>843.69</ele>
        <time>2025-01-15T09:40:59Z</time>
      </trkpt>
      <trkpt lat="45.12429" lon="3.87932">
        <ele>843.69</ele>
        <time>2025-01-15T09:41:00Z</time>
      </trkpt>
      <trkpt lat="45.1243" lon="3.87931">
        <ele>843.69</ele>
        <time>2025-01-15T09:41:01Z</time>
      </trkpt>
      <trkpt lat="45.12437" lon="3.879">
        <ele>844.66</ele>
        <time>2025-01-15T09:41:20Z</time>
      </trkpt>
      <trkpt lat="45.12454" lon="3.87867">
        <ele>845.62</ele>
        <time>2025-01-15T09:41:40Z</time>
      </trkpt>
      <trkpt lat="45.12475" lon="3.87854">
        <ele>846.1</ele>
        <time>2025-01-15T09:41:58Z</time>
      </trkpt>
      <trkpt lat="45.12498" lon="3.87851">
        <ele>847.54</ele>
        <time>2025-01-15T09:42:15Z</time>
      </trkpt>
      <trkpt lat="45.12516" lon="3.87847">
        <ele>849.46</ele>
        <time>2025-01-15T09:42:29Z</time>
      </trkpt>
      <trkpt lat="45.12534" lon="3.87839">
        <ele>849.94</ele>
        <time>2025-01-15T09:42:44Z</time>
      </trkpt>
      <trkpt lat="45.1255" lon="3.87814">
        <ele>848.5</ele>
        <time>2025-01-15T09:43:01Z</time>
      </trkpt>
      <trkpt lat="45.12553" lon="3.87786">
        <ele>848.02</ele>
        <time>2025-01-15T09:43:18Z</time>
      </trkpt>
      <trkpt lat="45.1255" lon="3.87752">
        <ele>849.94</ele>
        <time>2025-01-15T09:43:37Z</time>
      </trkpt>
      <trkpt lat="45.12547" lon="3.87719">
        <ele>850.9</ele>
        <time>2025-01-15T09:43:54Z</time>
      </trkpt>
      <trkpt lat="45.12542" lon="3.87689">
        <ele>851.38</ele>
        <time>2025-01-15T09:44:11Z</time>
      </trkpt>
      <trkpt lat="45.12538" lon="3.8766">
        <ele>853.31</ele>
        <time>2025-01-15T09:44:28Z</time>
      </trkpt>
      <trkpt lat="45.12533" lon="3.8763">
        <ele>854.27</ele>
        <time>2025-01-15T09:44:45Z</time>
      </trkpt>
      <trkpt lat="45.12531" lon="3.87621">
        <ele>853.31</ele>
        <time>2025-01-15T09:44:51Z</time>
      </trkpt>
      <trkpt lat="45.12531" lon="3.87619">
        <ele>853.79</ele>
        <time>2025-01-15T09:44:54Z</time>
      </trkpt>
      <trkpt lat="45.12533" lon="3.87598">
        <ele>853.79</ele>
        <time>2025-01-15T09:45:09Z</time>
      </trkpt>
      <trkpt lat="45.12534" lon="3.87597">
        <ele>853.79</ele>
        <time>2025-01-15T09:45:10Z</time>
      </trkpt>
      <trkpt lat="45.12535" lon="3.87595">
        <ele>853.79</ele>
        <time>2025-01-15T09:45:11Z</time>
      </trkpt>
      <trkpt lat="45.12536" lon="3.87595">
        <ele>853.79</ele>
        <time>2025-01-15T09:45:12Z</time>
      </trkpt>
      <trkpt lat="45.12537" lon="3.87595">
        <ele>853.79</ele>
        <time>2025-01-15T09:45:13Z</time>
      </trkpt>
      <trkpt lat="45.12539" lon="3.87595">
        <ele>853.79</ele>
        <time>2025-01-15T09:45:14Z</time>
      </trkpt>
      <trkpt lat="45.1254" lon="3.87595">
        <ele>853.79</ele>
        <time>2025-01-15T09:45:15Z</time>
      </trkpt>
      <trkpt lat="45.12541" lon="3.87595">
        <ele>853.79</ele>
        <time>2025-01-15T09:45:16Z</time>
      </trkpt>
      <trkpt lat="45.12543" lon="3.87595">
        <ele>854.27</ele>
        <time>2025-01-15T09:45:17Z</time>
      </trkpt>
      <trkpt lat="45.12544" lon="3.87595">
        <ele>854.27</ele>
        <time>2025-01-15T09:45:18Z</time>
      </trkpt>
      <trkpt lat="45.12545" lon="3.87595">
        <ele>854.75</ele>
        <time>2025-01-15T09:45:19Z</time>
      </trkpt>
      <trkpt lat="45.12547" lon="3.87594">
        <ele>854.75</ele>
        <time>2025-01-15T09:45:20Z</time>
      </trkpt>
      <trkpt lat="45.12568" lon="3.87593">
        <ele>859.56</ele>
        <time>2025-01-15T09:45:37Z</time>
      </trkpt>
      <trkpt lat="45.12577" lon="3.87593">
        <ele>860.04</ele>
        <time>2025-01-15T09:45:44Z</time>
      </trkpt>
      <trkpt lat="45.12578" lon="3.87593">
        <ele>860.04</ele>
        <time>2025-01-15T09:45:45Z</time>
      </trkpt>
      <trkpt lat="45.12579" lon="3.87593">
        <ele>860.04</ele>
        <time>2025-01-15T09:45:46Z</time>
      </trkpt>
      <trkpt lat="45.12581" lon="3.87593">
        <ele>860.04</ele>
        <time>2025-01-15T09:45:47Z</time>
      </trkpt>
      <trkpt lat="45.12582" lon="3.87593">
        <ele>860.04</ele>
        <time>2025-01-15T09:45:48Z</time>
      </trkpt>
      <trkpt lat="45.12612" lon="3.87594">
        <ele>860.04</ele>
        <time>2025-01-15T09:46:09Z</time>
      </trkpt>
      <trkpt lat="45.12632" lon="3.87595">
        <ele>860.52</ele>
        <time>2025-01-15T09:46:25Z</time>
      </trkpt>
      <trkpt lat="45.12646" lon="3.87597">
        <ele>860.52</ele>
        <time>2025-01-15T09:46:41Z</time>
      </trkpt>
      <trkpt lat="45.12672" lon="3.87602">
        <ele>861.96</ele>
        <time>2025-01-15T09:47:01Z</time>
      </trkpt>
      <trkpt lat="45.1269" lon="3.87606">
        <ele>861.48</ele>
        <time>2025-01-15T09:47:17Z</time>
      </trkpt>
      <trkpt lat="45.12702" lon="3.87614">
        <ele>860.52</ele>
        <time>2025-01-15T09:47:29Z</time>
      </trkpt>
      <trkpt lat="45.12718" lon="3.87622">
        <ele>861.96</ele>
        <time>2025-01-15T09:47:44Z</time>
      </trkpt>
      <trkpt lat="45.12734" lon="3.87638">
        <ele>863.4</ele>
        <time>2025-01-15T09:48:02Z</time>
      </trkpt>
      <trkpt lat="45.12748" lon="3.87649">
        <ele>863.4</ele>
        <time>2025-01-15T09:48:14Z</time>
      </trkpt>
      <trkpt lat="45.12751" lon="3.87652">
        <ele>863.88</ele>
        <time>2025-01-15T09:48:17Z</time>
      </trkpt>
      <trkpt lat="45.12754" lon="3.87653">
        <ele>863.88</ele>
        <time>2025-01-15T09:48:20Z</time>
      </trkpt>
      <trkpt lat="45.12755" lon="3.87654">
        <ele>863.4</ele>
        <time>2025-01-15T09:48:21Z</time>
      </trkpt>
      <trkpt lat="45.12756" lon="3.87656">
        <ele>863.4</ele>
        <time>2025-01-15T09:48:22Z</time>
      </trkpt>
      <trkpt lat="45.12757" lon="3.87657">
        <ele>862.92</ele>
        <time>2025-01-15T09:48:23Z</time>
      </trkpt>
      <trkpt lat="45.12758" lon="3.87658">
        <ele>862.92</ele>
        <time>2025-01-15T09:48:24Z</time>
      </trkpt>
      <trkpt lat="45.12759" lon="3.8766">
        <ele>862.92</ele>
        <time>2025-01-15T09:48:25Z</time>
      </trkpt>
      <trkpt lat="45.1276" lon="3.87662">
        <ele>862.44</ele>
        <time>2025-01-15T09:48:26Z</time>
      </trkpt>
      <trkpt lat="45.12768" lon="3.87675">
        <ele>861</ele>
        <time>2025-01-15T09:48:36Z</time>
      </trkpt>
      <trkpt lat="45.12783" lon="3.87701">
        <ele>861.96</ele>
        <time>2025-01-15T09:48:55Z</time>
      </trkpt>
      <trkpt lat="45.12793" lon="3.87716">
        <ele>862.44</ele>
        <time>2025-01-15T09:49:07Z</time>
      </trkpt>
      <trkpt lat="45.12793" lon="3.87717">
        <ele>862.44</ele>
        <time>2025-01-15T09:49:08Z</time>
      </trkpt>
      <trkpt lat="45.12794" lon="3.87719">
        <ele>862.44</ele>
        <time>2025-01-15T09:49:09Z</time>
      </trkpt>
      <trkpt lat="45.12795" lon="3.8772">
        <ele>862.44</ele>
        <time>2025-01-15T09:49:10Z</time>
      </trkpt>
      <trkpt lat="45.12796" lon="3.87722">
        <ele>862.44</ele>
        <time>2025-01-15T09:49:11Z</time>
      </trkpt>
      <trkpt lat="45.12797" lon="3.87723">
        <ele>862.44</ele>
        <time>2025-01-15T09:49:12Z</time>
      </trkpt>
      <trkpt lat="45.12797" lon="3.87724">
        <ele>862.44</ele>
        <time>2025-01-15T09:49:13Z</time>
      </trkpt>
      <trkpt lat="45.12798" lon="3.87726">
        <ele>862.44</ele>
        <time>2025-01-15T09:49:14Z</time>
      </trkpt>
      <trkpt lat="45.12799" lon="3.87727">
        <ele>861.96</ele>
        <time>2025-01-15T09:49:15Z</time>
      </trkpt>
      <trkpt lat="45.128" lon="3.87728">
        <ele>861.96</ele>
        <time>2025-01-15T09:49:16Z</time>
      </trkpt>
      <trkpt lat="45.12801" lon="3.8773">
        <ele>861.96</ele>
        <time>2025-01-15T09:49:17Z</time>
      </trkpt>
      <trkpt lat="45.12811" lon="3.87751">
        <ele>862.44</ele>
        <time>2025-01-15T09:49:32Z</time>
      </trkpt>
      <trkpt lat="45.12814" lon="3.87756">
        <ele>862.44</ele>
        <time>2025-01-15T09:49:36Z</time>
      </trkpt>
      <trkpt lat="45.12815" lon="3.87758">
        <ele>862.92</ele>
        <time>2025-01-15T09:49:37Z</time>
      </trkpt>
      <trkpt lat="45.12815" lon="3.8776">
        <ele>862.92</ele>
        <time>2025-01-15T09:49:38Z</time>
      </trkpt>
      <trkpt lat="45.12816" lon="3.87761">
        <ele>862.92</ele>
        <time>2025-01-15T09:49:39Z</time>
      </trkpt>
      <trkpt lat="45.12817" lon="3.87762">
        <ele>862.92</ele>
        <time>2025-01-15T09:49:40Z</time>
      </trkpt>
      <trkpt lat="45.12818" lon="3.87763">
        <ele>863.4</ele>
        <time>2025-01-15T09:49:41Z</time>
      </trkpt>
      <trkpt lat="45.12827" lon="3.87775">
        <ele>863.4</ele>
        <time>2025-01-15T09:49:52Z</time>
      </trkpt>
      <trkpt lat="45.12845" lon="3.87793">
        <ele>864.84</ele>
        <time>2025-01-15T09:50:09Z</time>
      </trkpt>
      <trkpt lat="45.12864" lon="3.87811">
        <ele>864.84</ele>
        <time>2025-01-15T09:50:26Z</time>
      </trkpt>
      <trkpt lat="45.12885" lon="3.87827">
        <ele>864.84</ele>
        <time>2025-01-15T09:50:44Z</time>
      </trkpt>
      <trkpt lat="45.12901" lon="3.87837">
        <ele>866.29</ele>
        <time>2025-01-15T09:50:58Z</time>
      </trkpt>
      <trkpt lat="45.12924" lon="3.87845">
        <ele>867.73</ele>
        <time>2025-01-15T09:51:16Z</time>
      </trkpt>
      <trkpt lat="45.12932" lon="3.87853">
        <ele>867.73</ele>
        <time>2025-01-15T09:51:26Z</time>
      </trkpt>
      <trkpt lat="45.12934" lon="3.87856">
        <ele>867.73</ele>
        <time>2025-01-15T09:51:29Z</time>
      </trkpt>
      <trkpt lat="45.12935" lon="3.87856">
        <ele>867.73</ele>
        <time>2025-01-15T09:51:30Z</time>
      </trkpt>
      <trkpt lat="45.12936" lon="3.87858">
        <ele>867.73</ele>
        <time>2025-01-15T09:51:31Z</time>
      </trkpt>
      <trkpt lat="45.12937" lon="3.87859">
        <ele>867.73</ele>
        <time>2025-01-15T09:51:32Z</time>
      </trkpt>
      <trkpt lat="45.12938" lon="3.87859">
        <ele>868.21</ele>
        <time>2025-01-15T09:51:33Z</time>
      </trkpt>
      <trkpt lat="45.12939" lon="3.8786">
        <ele>868.21</ele>
        <time>2025-01-15T09:51:34Z</time>
      </trkpt>
      <trkpt lat="45.1294" lon="3.87861">
        <ele>868.21</ele>
        <time>2025-01-15T09:51:35Z</time>
      </trkpt>
      <trkpt lat="45.12951" lon="3.87865">
        <ele>868.69</ele>
        <time>2025-01-15T09:51:44Z</time>
      </trkpt>
      <trkpt lat="45.12957" lon="3.87867">
        <ele>868.21</ele>
        <time>2025-01-15T09:51:51Z</time>
      </trkpt>
      <trkpt lat="45.12959" lon="3.87867">
        <ele>868.21</ele>
        <time>2025-01-15T09:51:52Z</time>
      </trkpt>
      <trkpt lat="45.1296" lon="3.87868">
        <ele>868.21</ele>
        <time>2025-01-15T09:51:53Z</time>
      </trkpt>
      <trkpt lat="45.12965" lon="3.87869">
        <ele>868.69</ele>
        <time>2025-01-15T09:51:57Z</time>
      </trkpt>
      <trkpt lat="45.12966" lon="3.87868">
        <ele>868.69</ele>
        <time>2025-01-15T09:51:58Z</time>
      </trkpt>
      <trkpt lat="45.12967" lon="3.87868">
        <ele>868.21</ele>
        <time>2025-01-15T09:51:59Z</time>
      </trkpt>
      <trkpt lat="45.12993" lon="3.87869">
        <ele>868.21</ele>
        <time>2025-01-15T09:52:17Z</time>
      </trkpt>
      <trkpt lat="45.13011" lon="3.87868">
        <ele>866.77</ele>
        <time>2025-01-15T09:52:31Z</time>
      </trkpt>
      <trkpt lat="45.13012" lon="3.87868">
        <ele>866.77</ele>
        <time>2025-01-15T09:52:32Z</time>
      </trkpt>
      <trkpt lat="45.13013" lon="3.87868">
        <ele>866.77</ele>
        <time>2025-01-15T09:52:33Z</time>
      </trkpt>
      <trkpt lat="45.13014" lon="3.87868">
        <ele>866.77</ele>
        <time>2025-01-15T09:52:34Z</time>
      </trkpt>
      <trkpt lat="45.13016" lon="3.87868">
        <ele>866.77</ele>
        <time>2025-01-15T09:52:35Z</time>
      </trkpt>
      <trkpt lat="45.13031" lon="3.87874">
        <ele>865.8</ele>
        <time>2025-01-15T09:52:46Z</time>
      </trkpt>
      <trkpt lat="45.13049" lon="3.879">
        <ele>864.84</ele>
        <time>2025-01-15T09:53:05Z</time>
      </trkpt>
      <trkpt lat="45.13061" lon="3.8792">
        <ele>863.88</ele>
        <time>2025-01-15T09:53:21Z</time>
      </trkpt>
      <trkpt lat="45.13073" lon="3.87938">
        <ele>861.96</ele>
        <time>2025-01-15T09:53:36Z</time>
      </trkpt>
      <trkpt lat="45.13086" lon="3.87961">
        <ele>860.52</ele>
        <time>2025-01-15T09:53:54Z</time>
      </trkpt>
      <trkpt lat="45.13098" lon="3.87985">
        <ele>861</ele>
        <time>2025-01-15T09:54:11Z</time>
      </trkpt>
      <trkpt lat="45.1311" lon="3.88">
        <ele>860.52</ele>
        <time>2025-01-15T09:54:27Z</time>
      </trkpt>
      <trkpt lat="45.13127" lon="3.88006">
        <ele>859.56</ele>
        <time>2025-01-15T09:54:43Z</time>
      </trkpt>
      <trkpt lat="45.13142" lon="3.88005">
        <ele>857.63</ele>
        <time>2025-01-15T09:54:58Z</time>
      </trkpt>
      <trkpt lat="45.13147" lon="3.88006">
        <ele>857.15</ele>
        <time>2025-01-15T09:55:05Z</time>
      </trkpt>
      <trkpt lat="45.13164" lon="3.88009">
        <ele>858.11</ele>
        <time>2025-01-15T09:55:20Z</time>
      </trkpt>
      <trkpt lat="45.13179" lon="3.8801">
        <ele>857.15</ele>
        <time>2025-01-15T09:55:35Z</time>
      </trkpt>
      <trkpt lat="45.13188" lon="3.88007">
        <ele>855.71</ele>
        <time>2025-01-15T09:55:47Z</time>
      </trkpt>
      <trkpt lat="45.13196" lon="3.88005">
        <ele>853.79</ele>
        <time>2025-01-15T09:55:57Z</time>
      </trkpt>
      <trkpt lat="45.13214" lon="3.88002">
        <ele>849.46</ele>
        <time>2025-01-15T09:56:12Z</time>
      </trkpt>
      <trkpt lat="45.13229" lon="3.88014">
        <ele>847.06</ele>
        <time>2025-01-15T09:56:28Z</time>
      </trkpt>
      <trkpt lat="45.13234" lon="3.88025">
        <ele>848.02</ele>
        <time>2025-01-15T09:56:36Z</time>
      </trkpt>
      <trkpt lat="45.13233" lon="3.88053">
        <ele>850.42</ele>
        <time>2025-01-15T09:56:52Z</time>
      </trkpt>
      <trkpt lat="45.13231" lon="3.88062">
        <ele>852.83</ele>
        <time>2025-01-15T09:56:57Z</time>
      </trkpt>
      <trkpt lat="45.13221" lon="3.88092">
        <ele>858.11</ele>
        <time>2025-01-15T09:57:16Z</time>
      </trkpt>
      <trkpt lat="45.13213" lon="3.88111">
        <ele>860.52</ele>
        <time>2025-01-15T09:57:32Z</time>
      </trkpt>
      <trkpt lat="45.13206" lon="3.88131">
        <ele>861.96</ele>
        <time>2025-01-15T09:57:47Z</time>
      </trkpt>
      <trkpt lat="45.132" lon="3.88144">
        <ele>860.04</ele>
        <time>2025-01-15T09:57:57Z</time>
      </trkpt>
      <trkpt lat="45.13204" lon="3.88158">
        <ele>862.92</ele>
        <time>2025-01-15T09:58:14Z</time>
      </trkpt>
      <trkpt lat="45.13207" lon="3.88172">
        <ele>866.29</ele>
        <time>2025-01-15T09:58:27Z</time>
      </trkpt>
      <trkpt lat="45.13213" lon="3.88187">
        <ele>869.65</ele>
        <time>2025-01-15T09:58:43Z</time>
      </trkpt>
      <trkpt lat="45.13221" lon="3.88201">
        <ele>872.05</ele>
        <time>2025-01-15T09:58:57Z</time>
      </trkpt>
      <trkpt lat="45.13236" lon="3.88217">
        <ele>871.57</ele>
        <time>2025-01-15T09:59:13Z</time>
      </trkpt>
      <trkpt lat="45.13248" lon="3.88231">
        <ele>872.05</ele>
        <time>2025-01-15T09:59:28Z</time>
      </trkpt>
      <trkpt lat="45.13261" lon="3.88247">
        <ele>873.98</ele>
        <time>2025-01-15T09:59:42Z</time>
      </trkpt>
      <trkpt lat="45.13279" lon="3.88253">
        <ele>875.9</ele>
        <time>2025-01-15T09:59:57Z</time>
      </trkpt>
      <trkpt lat="45.13293" lon="3.88261">
        <ele>874.94</ele>
        <time>2025-01-15T10:00:09Z</time>
      </trkpt>
      <trkpt lat="45.13313" lon="3.88257">
        <ele>873.01</ele>
        <time>2025-01-15T10:00:27Z</time>
      </trkpt>
      <trkpt lat="45.13324" lon="3.88253">
        <ele>868.21</ele>
        <time>2025-01-15T10:00:41Z</time>
      </trkpt>
      <trkpt lat="45.13326" lon="3.88254">
        <ele>865.8</ele>
        <time>2025-01-15T10:00:58Z</time>
      </trkpt>
      <trkpt lat="45.13325" lon="3.88255">
        <ele>863.88</ele>
        <time>2025-01-15T10:01:13Z</time>
      </trkpt>
      <trkpt lat="45.13328" lon="3.88256">
        <ele>863.88</ele>
        <time>2025-01-15T10:01:32Z</time>
      </trkpt>
      <trkpt lat="45.13328" lon="3.88259">
        <ele>864.36</ele>
        <time>2025-01-15T10:01:51Z</time>
      </trkpt>
      <trkpt lat="45.1333" lon="3.8826">
        <ele>865.8</ele>
        <time>2025-01-15T10:02:06Z</time>
      </trkpt>
      <trkpt lat="45.13332" lon="3.88277">
        <ele>864.36</ele>
        <time>2025-01-15T10:02:19Z</time>
      </trkpt>
      <trkpt lat="45.13332" lon="3.88285">
        <ele>863.88</ele>
        <time>2025-01-15T10:02:25Z</time>
      </trkpt>
      <trkpt lat="45.1333" lon="3.88312">
        <ele>862.44</ele>
        <time>2025-01-15T10:02:43Z</time>
      </trkpt>
      <trkpt lat="45.1333" lon="3.88341">
        <ele>863.88</ele>
        <time>2025-01-15T10:03:01Z</time>
      </trkpt>
      <trkpt lat="45.13329" lon="3.88356">
        <ele>862.44</ele>
        <time>2025-01-15T10:03:11Z</time>
      </trkpt>
      <trkpt lat="45.13324" lon="3.8839">
        <ele>860.04</ele>
        <time>2025-01-15T10:03:31Z</time>
      </trkpt>
      <trkpt lat="45.13321" lon="3.88405">
        <ele>860.04</ele>
        <time>2025-01-15T10:03:39Z</time>
      </trkpt>
      <trkpt lat="45.13309" lon="3.88431">
        <ele>859.56</ele>
        <time>2025-01-15T10:04:00Z</time>
      </trkpt>
      <trkpt lat="45.13302" lon="3.88458">
        <ele>856.19</ele>
        <time>2025-01-15T10:04:18Z</time>
      </trkpt>
      <trkpt lat="45.13305" lon="3.88481">
        <ele>854.27</ele>
        <time>2025-01-15T10:04:36Z</time>
      </trkpt>
      <trkpt lat="45.1331" lon="3.88505">
        <ele>853.31</ele>
        <time>2025-01-15T10:04:52Z</time>
      </trkpt>
      <trkpt lat="45.13317" lon="3.88523">
        <ele>853.31</ele>
        <time>2025-01-15T10:05:04Z</time>
      </trkpt>
      <trkpt lat="45.13319" lon="3.88523">
        <ele>853.31</ele>
        <time>2025-01-15T10:05:07Z</time>
      </trkpt>
      <trkpt lat="45.13325" lon="3.88508">
        <ele>854.27</ele>
        <time>2025-01-15T10:05:24Z</time>
      </trkpt>
      <trkpt lat="45.13327" lon="3.88497">
        <ele>854.75</ele>
        <time>2025-01-15T10:05:31Z</time>
      </trkpt>
      <trkpt lat="45.13344" lon="3.88477">
        <ele>853.31</ele>
        <time>2025-01-15T10:05:51Z</time>
      </trkpt>
      <trkpt lat="45.13345" lon="3.88476">
        <ele>852.83</ele>
        <time>2025-01-15T10:05:52Z</time>
      </trkpt>
      <trkpt lat="45.13361" lon="3.88476">
        <ele>847.54</ele>
        <time>2025-01-15T10:06:07Z</time>
      </trkpt>
      <trkpt lat="45.1337" lon="3.88484">
        <ele>844.18</ele>
        <time>2025-01-15T10:06:25Z</time>
      </trkpt>
      <trkpt lat="45.13371" lon="3.88488">
        <ele>843.21</ele>
        <time>2025-01-15T10:06:45Z</time>
      </trkpt>
      <trkpt lat="45.13372" lon="3.88493">
        <ele>842.73</ele>
        <time>2025-01-15T10:07:16Z</time>
      </trkpt>
      <trkpt lat="45.13373" lon="3.88498">
        <ele>842.25</ele>
        <time>2025-01-15T10:07:33Z</time>
      </trkpt>
      <trkpt lat="45.13377" lon="3.88518">
        <ele>841.29</ele>
        <time>2025-01-15T10:07:51Z</time>
      </trkpt>
      <trkpt lat="45.13381" lon="3.88542">
        <ele>840.81</ele>
        <time>2025-01-15T10:08:08Z</time>
      </trkpt>
      <trkpt lat="45.13382" lon="3.88551">
        <ele>840.81</ele>
        <time>2025-01-15T10:08:14Z</time>
      </trkpt>
      <trkpt lat="45.13385" lon="3.88578">
        <ele>839.85</ele>
        <time>2025-01-15T10:08:32Z</time>
      </trkpt>
      <trkpt lat="45.13392" lon="3.88601">
        <ele>838.89</ele>
        <time>2025-01-15T10:08:52Z</time>
      </trkpt>
      <trkpt lat="45.13404" lon="3.8862">
        <ele>836</ele>
        <time>2025-01-15T10:09:09Z</time>
      </trkpt>
      <trkpt lat="45.13413" lon="3.88629">
        <ele>836</ele>
        <time>2025-01-15T10:09:21Z</time>
      </trkpt>
      <trkpt lat="45.13415" lon="3.8863">
        <ele>836</ele>
        <time>2025-01-15T10:09:23Z</time>
      </trkpt>
      <trkpt lat="45.13434" lon="3.88632">
        <ele>834.56</ele>
        <time>2025-01-15T10:09:42Z</time>
      </trkpt>
      <trkpt lat="45.13438" lon="3.88633">
        <ele>834.08</ele>
        <time>2025-01-15T10:09:46Z</time>
      </trkpt>
      <trkpt lat="45.13458" lon="3.8863">
        <ele>831.68</ele>
        <time>2025-01-15T10:10:03Z</time>
      </trkpt>
      <trkpt lat="45.13477" lon="3.88625">
        <ele>829.76</ele>
        <time>2025-01-15T10:10:20Z</time>
      </trkpt>
      <trkpt lat="45.1349" lon="3.88619">
        <ele>828.31</ele>
        <time>2025-01-15T10:10:34Z</time>
      </trkpt>
      <trkpt lat="45.13512" lon="3.88613">
        <ele>823.99</ele>
        <time>2025-01-15T10:10:51Z</time>
      </trkpt>
      <trkpt lat="45.13532" lon="3.88608">
        <ele>819.66</ele>
        <time>2025-01-15T10:11:08Z</time>
      </trkpt>
      <trkpt lat="45.1354" lon="3.88624">
        <ele>816.3</ele>
        <time>2025-01-15T10:11:22Z</time>
      </trkpt>
      <trkpt lat="45.13545" lon="3.88659">
        <ele>811.97</ele>
        <time>2025-01-15T10:11:40Z</time>
      </trkpt>
      <trkpt lat="45.13542" lon="3.88674">
        <ele>809.57</ele>
        <time>2025-01-15T10:11:50Z</time>
      </trkpt>
      <trkpt lat="45.13539" lon="3.88688">
        <ele>807.16</ele>
        <time>2025-01-15T10:11:59Z</time>
      </trkpt>
      <trkpt lat="45.1354" lon="3.88713">
        <ele>805.24</ele>
        <time>2025-01-15T10:12:16Z</time>
      </trkpt>
      <trkpt lat="45.1354" lon="3.88741">
        <ele>802.36</ele>
        <time>2025-01-15T10:12:35Z</time>
      </trkpt>
      <trkpt lat="45.13541" lon="3.88765">
        <ele>800.44</ele>
        <time>2025-01-15T10:12:51Z</time>
      </trkpt>
      <trkpt lat="45.13541" lon="3.8879">
        <ele>798.51</ele>
        <time>2025-01-15T10:13:09Z</time>
      </trkpt>
      <trkpt lat="45.13549" lon="3.88811">
        <ele>797.55</ele>
        <time>2025-01-15T10:13:26Z</time>
      </trkpt>
      <trkpt lat="45.13549" lon="3.88812">
        <ele>797.55</ele>
        <time>2025-01-15T10:13:27Z</time>
      </trkpt>
      <trkpt lat="45.13552" lon="3.88817">
        <ele>796.59</ele>
        <time>2025-01-15T10:13:31Z</time>
      </trkpt>
      <trkpt lat="45.13568" lon="3.88822">
        <ele>795.15</ele>
        <time>2025-01-15T10:13:47Z</time>
      </trkpt>
      <trkpt lat="45.13581" lon="3.88827">
        <ele>793.71</ele>
        <time>2025-01-15T10:14:03Z</time>
      </trkpt>
      <trkpt lat="45.13597" lon="3.88827">
        <ele>791.3</ele>
        <time>2025-01-15T10:14:20Z</time>
      </trkpt>
      <trkpt lat="45.1361" lon="3.88826">
        <ele>791.3</ele>
        <time>2025-01-15T10:14:35Z</time>
      </trkpt>
      <trkpt lat="45.13626" lon="3.88823">
        <ele>789.86</ele>
        <time>2025-01-15T10:14:53Z</time>
      </trkpt>
      <trkpt lat="45.13636" lon="3.88827">
        <ele>786.5</ele>
        <time>2025-01-15T10:15:05Z</time>
      </trkpt>
      <trkpt lat="45.13649" lon="3.88839">
        <ele>784.09</ele>
        <time>2025-01-15T10:15:21Z</time>
      </trkpt>
      <trkpt lat="45.13664" lon="3.88843">
        <ele>782.65</ele>
        <time>2025-01-15T10:15:38Z</time>
      </trkpt>
      <trkpt lat="45.13677" lon="3.88846">
        <ele>780.73</ele>
        <time>2025-01-15T10:15:53Z</time>
      </trkpt>
      <trkpt lat="45.13693" lon="3.88846">
        <ele>777.36</ele>
        <time>2025-01-15T10:16:09Z</time>
      </trkpt>
      <trkpt lat="45.13694" lon="3.88846">
        <ele>777.36</ele>
        <time>2025-01-15T10:16:10Z</time>
      </trkpt>
      <trkpt lat="45.13708" lon="3.88842">
        <ele>776.4</ele>
        <time>2025-01-15T10:16:26Z</time>
      </trkpt>
      <trkpt lat="45.13723" lon="3.88845">
        <ele>775.44</ele>
        <time>2025-01-15T10:16:41Z</time>
      </trkpt>
      <trkpt lat="45.13737" lon="3.88857">
        <ele>772.56</ele>
        <time>2025-01-15T10:16:56Z</time>
      </trkpt>
      <trkpt lat="45.13751" lon="3.88876">
        <ele>768.71</ele>
        <time>2025-01-15T10:17:14Z</time>
      </trkpt>
      <trkpt lat="45.1376" lon="3.88896">
        <ele>767.27</ele>
        <time>2025-01-15T10:17:30Z</time>
      </trkpt>
      <trkpt lat="45.13767" lon="3.88911">
        <ele>765.83</ele>
        <time>2025-01-15T10:17:44Z</time>
      </trkpt>
      <trkpt lat="45.1377" lon="3.88921">
        <ele>765.83</ele>
        <time>2025-01-15T10:18:00Z</time>
      </trkpt>
      <trkpt lat="45.13772" lon="3.88933">
        <ele>764.87</ele>
        <time>2025-01-15T10:18:12Z</time>
      </trkpt>
      <trkpt lat="45.13768" lon="3.8895">
        <ele>761.98</ele>
        <time>2025-01-15T10:18:28Z</time>
      </trkpt>
      <trkpt lat="45.13761" lon="3.88962">
        <ele>761.98</ele>
        <time>2025-01-15T10:18:41Z</time>
      </trkpt>
      <trkpt lat="45.13744" lon="3.88974">
        <ele>762.94</ele>
        <time>2025-01-15T10:18:59Z</time>
      </trkpt>
      <trkpt lat="45.13738" lon="3.88982">
        <ele>761.5</ele>
        <time>2025-01-15T10:19:13Z</time>
      </trkpt>
      <trkpt lat="45.13749" lon="3.88983">
        <ele>759.58</ele>
        <time>2025-01-15T10:19:31Z</time>
      </trkpt>
      <trkpt lat="45.1376" lon="3.88995">
        <ele>758.62</ele>
        <time>2025-01-15T10:19:46Z</time>
      </trkpt>
      <trkpt lat="45.13765" lon="3.89003">
        <ele>758.14</ele>
        <time>2025-01-15T10:19:53Z</time>
      </trkpt>
      <trkpt lat="45.13778" lon="3.89018">
        <ele>758.14</ele>
        <time>2025-01-15T10:20:09Z</time>
      </trkpt>
      <trkpt lat="45.13791" lon="3.89031">
        <ele>756.21</ele>
        <time>2025-01-15T10:20:25Z</time>
      </trkpt>
      <trkpt lat="45.13803" lon="3.89041">
        <ele>755.73</ele>
        <time>2025-01-15T10:20:41Z</time>
      </trkpt>
      <trkpt lat="45.13818" lon="3.8905">
        <ele>755.25</ele>
        <time>2025-01-15T10:20:57Z</time>
      </trkpt>
      <trkpt lat="45.13824" lon="3.89055">
        <ele>755.25</ele>
        <time>2025-01-15T10:21:02Z</time>
      </trkpt>
      <trkpt lat="45.13832" lon="3.89063">
        <ele>754.77</ele>
        <time>2025-01-15T10:21:10Z</time>
      </trkpt>
      <trkpt lat="45.13843" lon="3.89082">
        <ele>755.73</ele>
        <time>2025-01-15T10:21:26Z</time>
      </trkpt>
      <trkpt lat="45.13855" lon="3.89103">
        <ele>752.37</ele>
        <time>2025-01-15T10:21:43Z</time>
      </trkpt>
      <trkpt lat="45.13866" lon="3.89117">
        <ele>750.93</ele>
        <time>2025-01-15T10:21:57Z</time>
      </trkpt>
      <trkpt lat="45.13877" lon="3.89126">
        <ele>748.04</ele>
        <time>2025-01-15T10:22:14Z</time>
      </trkpt>
      <trkpt lat="45.13885" lon="3.89136">
        <ele>744.68</ele>
        <time>2025-01-15T10:22:27Z</time>
      </trkpt>
      <trkpt lat="45.13902" lon="3.89154">
        <ele>739.87</ele>
        <time>2025-01-15T10:22:45Z</time>
      </trkpt>
      <trkpt lat="45.13909" lon="3.89165">
        <ele>738.43</ele>
        <time>2025-01-15T10:22:59Z</time>
      </trkpt>
      <trkpt lat="45.13911" lon="3.8917">
        <ele>736.51</ele>
        <time>2025-01-15T10:23:12Z</time>
      </trkpt>
      <trkpt lat="45.13909" lon="3.89174">
        <ele>736.03</ele>
        <time>2025-01-15T10:23:29Z</time>
      </trkpt>
      <trkpt lat="45.13909" lon="3.89174">
        <ele>734.1</ele>
        <time>2025-01-15T10:23:48Z</time>
      </trkpt>
      <trkpt lat="45.1391" lon="3.8918">
        <ele>734.58</ele>
        <time>2025-01-15T10:24:01Z</time>
      </trkpt>
      <trkpt lat="45.13912" lon="3.89193">
        <ele>734.58</ele>
        <time>2025-01-15T10:24:11Z</time>
      </trkpt>
      <trkpt lat="45.13915" lon="3.89194">
        <ele>733.62</ele>
        <time>2025-01-15T10:24:16Z</time>
      </trkpt>
      <trkpt lat="45.13918" lon="3.89191">
        <ele>732.66</ele>
        <time>2025-01-15T10:24:20Z</time>
      </trkpt>
      <trkpt lat="45.13924" lon="3.89176">
        <ele>733.14</ele>
        <time>2025-01-15T10:24:34Z</time>
      </trkpt>
      <trkpt lat="45.13928" lon="3.89163">
        <ele>734.1</ele>
        <time>2025-01-15T10:24:44Z</time>
      </trkpt>
      <trkpt lat="45.13943" lon="3.89153">
        <ele>735.55</ele>
        <time>2025-01-15T10:25:00Z</time>
      </trkpt>
      <trkpt lat="45.13957" lon="3.89148">
        <ele>732.66</ele>
        <time>2025-01-15T10:25:12Z</time>
      </trkpt>
      <trkpt lat="45.13973" lon="3.89144">
        <ele>733.14</ele>
        <time>2025-01-15T10:25:26Z</time>
      </trkpt>
      <trkpt lat="45.13978" lon="3.89144">
        <ele>734.1</ele>
        <time>2025-01-15T10:25:31Z</time>
      </trkpt>
      <trkpt lat="45.13991" lon="3.89141">
        <ele>736.03</ele>
        <time>2025-01-15T10:25:43Z</time>
      </trkpt>
      <trkpt lat="45.14013" lon="3.89136">
        <ele>731.7</ele>
        <time>2025-01-15T10:26:01Z</time>
      </trkpt>
      <trkpt lat="45.14029" lon="3.89139">
        <ele>728.82</ele>
        <time>2025-01-15T10:26:14Z</time>
      </trkpt>
      <trkpt lat="45.14043" lon="3.89152">
        <ele>724.01</ele>
        <time>2025-01-15T10:26:28Z</time>
      </trkpt>
      <trkpt lat="45.14055" lon="3.89183">
        <ele>720.16</ele>
        <time>2025-01-15T10:26:47Z</time>
      </trkpt>
      <trkpt lat="45.14057" lon="3.8919">
        <ele>719.68</ele>
        <time>2025-01-15T10:26:51Z</time>
      </trkpt>
      <trkpt lat="45.14067" lon="3.89224">
        <ele>715.36</ele>
        <time>2025-01-15T10:27:10Z</time>
      </trkpt>
      <trkpt lat="45.14074" lon="3.89247">
        <ele>711.51</ele>
        <time>2025-01-15T10:27:26Z</time>
      </trkpt>
      <trkpt lat="45.14082" lon="3.8927">
        <ele>707.19</ele>
        <time>2025-01-15T10:27:42Z</time>
      </trkpt>
      <trkpt lat="45.14089" lon="3.89295">
        <ele>703.34</ele>
        <time>2025-01-15T10:27:58Z</time>
      </trkpt>
      <trkpt lat="45.14098" lon="3.89318">
        <ele>699.5</ele>
        <time>2025-01-15T10:28:13Z</time>
      </trkpt>
      <trkpt lat="45.14111" lon="3.8934">
        <ele>696.61</ele>
        <time>2025-01-15T10:28:28Z</time>
      </trkpt>
      <trkpt lat="45.14122" lon="3.89368">
        <ele>693.25</ele>
        <time>2025-01-15T10:28:47Z</time>
      </trkpt>
      <trkpt lat="45.14128" lon="3.89396">
        <ele>689.88</ele>
        <time>2025-01-15T10:29:05Z</time>
      </trkpt>
      <trkpt lat="45.14129" lon="3.89396">
        <ele>689.4</ele>
        <time>2025-01-15T10:29:06Z</time>
      </trkpt>
      <trkpt lat="45.14137" lon="3.8941">
        <ele>686.52</ele>
        <time>2025-01-15T10:29:19Z</time>
      </trkpt>
      <trkpt lat="45.14135" lon="3.89421">
        <ele>685.56</ele>
        <time>2025-01-15T10:29:26Z</time>
      </trkpt>
      <trkpt lat="45.1413" lon="3.89435">
        <ele>685.56</ele>
        <time>2025-01-15T10:29:41Z</time>
      </trkpt>
      <trkpt lat="45.14127" lon="3.89449">
        <ele>685.56</ele>
        <time>2025-01-15T10:29:52Z</time>
      </trkpt>
      <trkpt lat="45.14118" lon="3.89477">
        <ele>685.08</ele>
        <time>2025-01-15T10:30:10Z</time>
      </trkpt>
      <trkpt lat="45.14108" lon="3.89503">
        <ele>683.15</ele>
        <time>2025-01-15T10:30:27Z</time>
      </trkpt>
      <trkpt lat="45.14097" lon="3.89522">
        <ele>680.27</ele>
        <time>2025-01-15T10:30:41Z</time>
      </trkpt>
      <trkpt lat="45.14089" lon="3.89544">
        <ele>679.31</ele>
        <time>2025-01-15T10:30:56Z</time>
      </trkpt>
      <trkpt lat="45.14086" lon="3.89554">
        <ele>678.83</ele>
        <time>2025-01-15T10:31:02Z</time>
      </trkpt>
      <trkpt lat="45.14087" lon="3.8956">
        <ele>676.42</ele>
        <time>2025-01-15T10:31:08Z</time>
      </trkpt>
      <trkpt lat="45.14097" lon="3.89561">
        <ele>674.5</ele>
        <time>2025-01-15T10:31:24Z</time>
      </trkpt>
      <trkpt lat="45.14107" lon="3.89562">
        <ele>672.1</ele>
        <time>2025-01-15T10:31:34Z</time>
      </trkpt>
      <trkpt lat="45.14112" lon="3.89583">
        <ele>667.77</ele>
        <time>2025-01-15T10:31:49Z</time>
      </trkpt>
      <trkpt lat="45.14115" lon="3.89601">
        <ele>666.33</ele>
        <time>2025-01-15T10:32:03Z</time>
      </trkpt>
      <trkpt lat="45.14113" lon="3.89625">
        <ele>663.45</ele>
        <time>2025-01-15T10:32:21Z</time>
      </trkpt>
      <trkpt lat="45.14108" lon="3.89652">
        <ele>660.56</ele>
        <time>2025-01-15T10:32:38Z</time>
      </trkpt>
      <trkpt lat="45.14104" lon="3.89663">
        <ele>658.16</ele>
        <time>2025-01-15T10:32:53Z</time>
      </trkpt>
      <trkpt lat="45.14103" lon="3.89668">
        <ele>658.16</ele>
        <time>2025-01-15T10:33:07Z</time>
      </trkpt>
      <trkpt lat="45.141" lon="3.89688">
        <ele>655.28</ele>
        <time>2025-01-15T10:33:21Z</time>
      </trkpt>
      <trkpt lat="45.14096" lon="3.8971">
        <ele>653.35</ele>
        <time>2025-01-15T10:33:38Z</time>
      </trkpt>
      <trkpt lat="45.14094" lon="3.89722">
        <ele>651.43</ele>
        <time>2025-01-15T10:33:53Z</time>
      </trkpt>
      <trkpt lat="45.14093" lon="3.89731">
        <ele>650.47</ele>
        <time>2025-01-15T10:34:08Z</time>
      </trkpt>
      <trkpt lat="45.1409" lon="3.89747">
        <ele>649.03</ele>
        <time>2025-01-15T10:34:22Z</time>
      </trkpt>
      <trkpt lat="45.14084" lon="3.89768">
        <ele>647.1</ele>
        <time>2025-01-15T10:34:38Z</time>
      </trkpt>
      <trkpt lat="45.14081" lon="3.89786">
        <ele>645.18</ele>
        <time>2025-01-15T10:34:50Z</time>
      </trkpt>
      <trkpt lat="45.14077" lon="3.89813">
        <ele>641.82</ele>
        <time>2025-01-15T10:35:08Z</time>
      </trkpt>
      <trkpt lat="45.14077" lon="3.89816">
        <ele>641.82</ele>
        <time>2025-01-15T10:35:10Z</time>
      </trkpt>
      <trkpt lat="45.14075" lon="3.89841">
        <ele>639.89</ele>
        <time>2025-01-15T10:35:26Z</time>
      </trkpt>
      <trkpt lat="45.14076" lon="3.89853">
        <ele>639.41</ele>
        <time>2025-01-15T10:35:34Z</time>
      </trkpt>
      <trkpt lat="45.14077" lon="3.89884">
        <ele>637.01</ele>
        <time>2025-01-15T10:35:52Z</time>
      </trkpt>
      <trkpt lat="45.14078" lon="3.89905">
        <ele>635.57</ele>
        <time>2025-01-15T10:36:06Z</time>
      </trkpt>
      <trkpt lat="45.14078" lon="3.89911">
        <ele>635.09</ele>
        <time>2025-01-15T10:36:11Z</time>
      </trkpt>
      <trkpt lat="45.14079" lon="3.89916">
        <ele>635.57</ele>
        <time>2025-01-15T10:36:14Z</time>
      </trkpt>
      <trkpt lat="45.14082" lon="3.89938">
        <ele>634.13</ele>
        <time>2025-01-15T10:36:29Z</time>
      </trkpt>
      <trkpt lat="45.14083" lon="3.89944">
        <ele>633.17</ele>
        <time>2025-01-15T10:36:41Z</time>
      </trkpt>
      <trkpt lat="45.14088" lon="3.89946">
        <ele>634.13</ele>
        <time>2025-01-15T10:36:53Z</time>
      </trkpt>
      <trkpt lat="45.14088" lon="3.89945">
        <ele>634.13</ele>
        <time>2025-01-15T10:36:54Z</time>
      </trkpt>
      <trkpt lat="45.14095" lon="3.89943">
        <ele>634.61</ele>
        <time>2025-01-15T10:37:06Z</time>
      </trkpt>
      <trkpt lat="45.14095" lon="3.89943">
        <ele>634.61</ele>
        <time>2025-01-15T10:37:07Z</time>
      </trkpt>
      <trkpt lat="45.14093" lon="3.89945">
        <ele>634.13</ele>
        <time>2025-01-15T10:37:13Z</time>
      </trkpt>
      <trkpt lat="45.1409" lon="3.89947">
        <ele>634.13</ele>
        <time>2025-01-15T10:37:16Z</time>
      </trkpt>
      <trkpt lat="45.14083" lon="3.89943">
        <ele>633.17</ele>
        <time>2025-01-15T10:37:30Z</time>
      </trkpt>
      <trkpt lat="45.14083" lon="3.89943">
        <ele>633.65</ele>
        <time>2025-01-15T10:37:34Z</time>
      </trkpt>
      <trkpt lat="45.14085" lon="3.89944">
        <ele>633.17</ele>
        <time>2025-01-15T10:37:47Z</time>
      </trkpt>
      <trkpt lat="45.14085" lon="3.89945">
        <ele>633.17</ele>
        <time>2025-01-15T10:38:24Z</time>
      </trkpt>
      <trkpt lat="45.14084" lon="3.89943">
        <ele>633.65</ele>
        <time>2025-01-15T10:39:00Z</time>
      </trkpt>
      <trkpt lat="45.14083" lon="3.89945">
        <ele>632.68</ele>
        <time>2025-01-15T10:39:40Z</time>
      </trkpt>
      <trkpt lat="45.14084" lon="3.89943">
        <ele>634.13</ele>
        <time>2025-01-15T10:40:32Z</time>
      </trkpt>
      <trkpt lat="45.14083" lon="3.89942">
        <ele>634.61</ele>
        <time>2025-01-15T10:41:19Z</time>
      </trkpt>
      <trkpt lat="45.14084" lon="3.89942">
        <ele>633.65</ele>
        <time>2025-01-15T10:42:10Z</time>
      </trkpt>
      <trkpt lat="45.14084" lon="3.89942">
        <ele>635.09</ele>
        <time>2025-01-15T10:42:52Z</time>
      </trkpt>
      <trkpt lat="45.14084" lon="3.8994">
        <ele>635.09</ele>
        <time>2025-01-15T10:43:32Z</time>
      </trkpt>
      <trkpt lat="45.14084" lon="3.89941">
        <ele>633.65</ele>
        <time>2025-01-15T10:44:16Z</time>
      </trkpt>
      <trkpt lat="45.14084" lon="3.89942">
        <ele>633.65</ele>
        <time>2025-01-15T10:45:09Z</time>
      </trkpt>
      <trkpt lat="45.14085" lon="3.89942">
        <ele>634.13</ele>
        <time>2025-01-15T10:45:53Z</time>
      </trkpt>
      <trkpt lat="45.14084" lon="3.89943">
        <ele>633.17</ele>
        <time>2025-01-15T10:46:31Z</time>
      </trkpt>
      <trkpt lat="45.14082" lon="3.89942">
        <ele>632.68</ele>
        <time>2025-01-15T10:46:45Z</time>
      </trkpt>
      <trkpt lat="45.1408" lon="3.89941">
        <ele>632.2</ele>
        <time>2025-01-15T10:46:59Z</time>
      </trkpt>
      <trkpt lat="45.14081" lon="3.89944">
        <ele>634.13</ele>
        <time>2025-01-15T10:47:14Z</time>
      </trkpt>
      <trkpt lat="45.14081" lon="3.89947">
        <ele>633.17</ele>
        <time>2025-01-15T10:47:26Z</time>
      </trkpt>
      <trkpt lat="45.14083" lon="3.89943">
        <ele>633.65</ele>
        <time>2025-01-15T10:47:43Z</time>
      </trkpt>
      <trkpt lat="45.14081" lon="3.89942">
        <ele>634.61</ele>
        <time>2025-01-15T10:47:54Z</time>
      </trkpt>
      <trkpt lat="45.14082" lon="3.89942">
        <ele>636.05</ele>
        <time>2025-01-15T10:48:10Z</time>
      </trkpt>
      <trkpt lat="45.14082" lon="3.89946">
        <ele>635.57</ele>
        <time>2025-01-15T10:48:20Z</time>
      </trkpt>
      <trkpt lat="45.14081" lon="3.89946">
        <ele>636.53</ele>
        <time>2025-01-15T10:48:46Z</time>
      </trkpt>
      <trkpt lat="45.14081" lon="3.89947">
        <ele>636.05</ele>
        <time>2025-01-15T10:48:56Z</time>
      </trkpt>
      <trkpt lat="45.14081" lon="3.89949">
        <ele>636.05</ele>
        <time>2025-01-15T10:49:09Z</time>
      </trkpt>
      <trkpt lat="45.14086" lon="3.89947">
        <ele>634.61</ele>
        <time>2025-01-15T10:49:31Z</time>
      </trkpt>
      <trkpt lat="45.14087" lon="3.89946">
        <ele>634.61</ele>
        <time>2025-01-15T10:49:32Z</time>
      </trkpt>
      <trkpt lat="45.14092" lon="3.89945">
        <ele>634.61</ele>
        <time>2025-01-15T10:49:37Z</time>
      </trkpt>
      <trkpt lat="45.14111" lon="3.89933">
        <ele>636.05</ele>
        <time>2025-01-15T10:49:55Z</time>
      </trkpt>
      <trkpt lat="45.14136" lon="3.89918">
        <ele>636.53</ele>
        <time>2025-01-15T10:50:16Z</time>
      </trkpt>
      <trkpt lat="45.14158" lon="3.89899">
        <ele>637.01</ele>
        <time>2025-01-15T10:50:35Z</time>
      </trkpt>
      <trkpt lat="45.14184" lon="3.89875">
        <ele>636.05</ele>
        <time>2025-01-15T10:50:56Z</time>
      </trkpt>
      <trkpt lat="45.14209" lon="3.89852">
        <ele>634.61</ele>
        <time>2025-01-15T10:51:17Z</time>
      </trkpt>
      <trkpt lat="45.1423" lon="3.89832">
        <ele>633.65</ele>
        <time>2025-01-15T10:51:35Z</time>
      </trkpt>
      <trkpt lat="45.14255" lon="3.89811">
        <ele>632.2</ele>
        <time>2025-01-15T10:51:56Z</time>
      </trkpt>
      <trkpt lat="45.14277" lon="3.8979">
        <ele>631.72</ele>
        <time>2025-01-15T10:52:14Z</time>
      </trkpt>
      <trkpt lat="45.143" lon="3.89765">
        <ele>632.2</ele>
        <time>2025-01-15T10:52:35Z</time>
      </trkpt>
      <trkpt lat="45.1432" lon="3.89744">
        <ele>631.24</ele>
        <time>2025-01-15T10:52:52Z</time>
      </trkpt>
      <trkpt lat="45.14344" lon="3.8972">
        <ele>633.65</ele>
        <time>2025-01-15T10:53:13Z</time>
      </trkpt>
      <trkpt lat="45.14367" lon="3.89695">
        <ele>634.61</ele>
        <time>2025-01-15T10:53:34Z</time>
      </trkpt>
      <trkpt lat="45.14388" lon="3.89668">
        <ele>635.09</ele>
        <time>2025-01-15T10:53:54Z</time>
      </trkpt>
      <trkpt lat="45.1441" lon="3.89643">
        <ele>634.61</ele>
        <time>2025-01-15T10:54:14Z</time>
      </trkpt>
      <trkpt lat="45.14432" lon="3.89631">
        <ele>632.2</ele>
        <time>2025-01-15T10:54:31Z</time>
      </trkpt>
      <trkpt lat="45.1446" lon="3.89637">
        <ele>631.24</ele>
        <time>2025-01-15T10:54:51Z</time>
      </trkpt>
      <trkpt lat="45.14485" lon="3.8963">
        <ele>630.28</ele>
        <time>2025-01-15T10:55:10Z</time>
      </trkpt>
      <trkpt lat="45.14509" lon="3.89623">
        <ele>631.24</ele>
        <time>2025-01-15T10:55:28Z</time>
      </trkpt>
      <trkpt lat="45.14537" lon="3.89617">
        <ele>630.76</ele>
        <time>2025-01-15T10:55:48Z</time>
      </trkpt>
      <trkpt lat="45.14547" lon="3.89615">
        <ele>629.8</ele>
        <time>2025-01-15T10:55:58Z</time>
      </trkpt>
      <trkpt lat="45.14576" lon="3.89608">
        <ele>629.8</ele>
        <time>2025-01-15T10:56:18Z</time>
      </trkpt>
      <trkpt lat="45.14591" lon="3.89605">
        <ele>630.28</ele>
        <time>2025-01-15T10:56:30Z</time>
      </trkpt>
      <trkpt lat="45.14594" lon="3.89605">
        <ele>630.28</ele>
        <time>2025-01-15T10:56:41Z</time>
      </trkpt>
      <trkpt lat="45.14619" lon="3.89597">
        <ele>630.76</ele>
        <time>2025-01-15T10:57:00Z</time>
      </trkpt>
      <trkpt lat="45.1464" lon="3.89594">
        <ele>630.76</ele>
        <time>2025-01-15T10:57:15Z</time>
      </trkpt>
      <trkpt lat="45.14654" lon="3.89591">
        <ele>630.76</ele>
        <time>2025-01-15T10:57:28Z</time>
      </trkpt>
      <trkpt lat="45.14655" lon="3.89591">
        <ele>630.28</ele>
        <time>2025-01-15T10:57:30Z</time>
      </trkpt>
      <trkpt lat="45.14677" lon="3.89584">
        <ele>630.76</ele>
        <time>2025-01-15T10:57:48Z</time>
      </trkpt>
      <trkpt lat="45.147" lon="3.89583">
        <ele>630.76</ele>
        <time>2025-01-15T10:58:05Z</time>
      </trkpt>
      <trkpt lat="45.14728" lon="3.89585">
        <ele>630.28</ele>
        <time>2025-01-15T10:58:25Z</time>
      </trkpt>
      <trkpt lat="45.1476" lon="3.89578">
        <ele>629.32</ele>
        <time>2025-01-15T10:58:49Z</time>
      </trkpt>
      <trkpt lat="45.14763" lon="3.89577">
        <ele>628.84</ele>
        <time>2025-01-15T10:58:51Z</time>
      </trkpt>
      <trkpt lat="45.14786" lon="3.89571">
        <ele>627.4</ele>
        <time>2025-01-15T10:59:09Z</time>
      </trkpt>
      <trkpt lat="45.148" lon="3.89565">
        <ele>625.96</ele>
        <time>2025-01-15T10:59:26Z</time>
      </trkpt>
      <trkpt lat="45.148" lon="3.89565">
        <ele>626.44</ele>
        <time>2025-01-15T10:59:30Z</time>
      </trkpt>
      <trkpt lat="45.14802" lon="3.89563">
        <ele>626.44</ele>
        <time>2025-01-15T10:59:34Z</time>
      </trkpt>
      <trkpt lat="45.14825" lon="3.89545">
        <ele>626.44</ele>
        <time>2025-01-15T10:59:52Z</time>
      </trkpt>
      <trkpt lat="45.14853" lon="3.89521">
        <ele>624.51</ele>
        <time>2025-01-15T11:00:14Z</time>
      </trkpt>
      <trkpt lat="45.14876" lon="3.89512">
        <ele>623.55</ele>
        <time>2025-01-15T11:00:30Z</time>
      </trkpt>
      <trkpt lat="45.14913" lon="3.89503">
        <ele>622.11</ele>
        <time>2025-01-15T11:00:55Z</time>
      </trkpt>
      <trkpt lat="45.14944" lon="3.89488">
        <ele>622.11</ele>
        <time>2025-01-15T11:01:16Z</time>
      </trkpt>
      <trkpt lat="45.14974" lon="3.89469">
        <ele>622.11</ele>
        <time>2025-01-15T11:01:38Z</time>
      </trkpt>
      <trkpt lat="45.15" lon="3.8945">
        <ele>620.19</ele>
        <time>2025-01-15T11:01:57Z</time>
      </trkpt>
      <trkpt lat="45.15032" lon="3.89429">
        <ele>620.67</ele>
        <time>2025-01-15T11:02:19Z</time>
      </trkpt>
      <trkpt lat="45.15065" lon="3.89409">
        <ele>620.67</ele>
        <time>2025-01-15T11:02:42Z</time>
      </trkpt>
      <trkpt lat="45.15096" lon="3.89386">
        <ele>620.19</ele>
        <time>2025-01-15T11:03:05Z</time>
      </trkpt>
      <trkpt lat="45.15126" lon="3.89362">
        <ele>620.19</ele>
        <time>2025-01-15T11:03:29Z</time>
      </trkpt>
      <trkpt lat="45.1514" lon="3.89352">
        <ele>621.15</ele>
        <time>2025-01-15T11:03:40Z</time>
      </trkpt>
      <trkpt lat="45.15167" lon="3.89335">
        <ele>623.55</ele>
        <time>2025-01-15T11:04:01Z</time>
      </trkpt>
      <trkpt lat="45.15187" lon="3.8932">
        <ele>622.59</ele>
        <time>2025-01-15T11:04:18Z</time>
      </trkpt>
      <trkpt lat="45.15214" lon="3.89304">
        <ele>620.67</ele>
        <time>2025-01-15T11:04:37Z</time>
      </trkpt>
      <trkpt lat="45.15243" lon="3.89292">
        <ele>617.78</ele>
        <time>2025-01-15T11:04:57Z</time>
      </trkpt>
      <trkpt lat="45.1527" lon="3.89286">
        <ele>617.78</ele>
        <time>2025-01-15T11:05:16Z</time>
      </trkpt>
      <trkpt lat="45.15295" lon="3.89282">
        <ele>618.26</ele>
        <time>2025-01-15T11:05:33Z</time>
      </trkpt>
      <trkpt lat="45.15323" lon="3.89264">
        <ele>622.11</ele>
        <time>2025-01-15T11:05:55Z</time>
      </trkpt>
      <trkpt lat="45.1535" lon="3.89262">
        <ele>621.15</ele>
        <time>2025-01-15T11:06:15Z</time>
      </trkpt>
      <trkpt lat="45.15379" lon="3.89264">
        <ele>621.63</ele>
        <time>2025-01-15T11:06:35Z</time>
      </trkpt>
      <trkpt lat="45.15405" lon="3.89265">
        <ele>621.15</ele>
        <time>2025-01-15T11:06:53Z</time>
      </trkpt>
      <trkpt lat="45.15433" lon="3.89267">
        <ele>621.63</ele>
        <time>2025-01-15T11:07:13Z</time>
      </trkpt>
      <trkpt lat="45.15461" lon="3.89267">
        <ele>623.55</ele>
        <time>2025-01-15T11:07:32Z</time>
      </trkpt>
      <trkpt lat="45.1549" lon="3.89268">
        <ele>625.96</ele>
        <time>2025-01-15T11:07:53Z</time>
      </trkpt>
      <trkpt lat="45.15515" lon="3.89265">
        <ele>628.84</ele>
        <time>2025-01-15T11:08:12Z</time>
      </trkpt>
      <trkpt lat="45.15539" lon="3.89259">
        <ele>631.72</ele>
        <time>2025-01-15T11:08:31Z</time>
      </trkpt>
      <trkpt lat="45.15561" lon="3.89248">
        <ele>631.72</ele>
        <time>2025-01-15T11:08:49Z</time>
      </trkpt>
      <trkpt lat="45.15583" lon="3.8922">
        <ele>631.72</ele>
        <time>2025-01-15T11:09:10Z</time>
      </trkpt>
      <trkpt lat="45.15593" lon="3.89185">
        <ele>633.65</ele>
        <time>2025-01-15T11:09:31Z</time>
      </trkpt>
      <trkpt lat="45.15616" lon="3.89154">
        <ele>634.13</ele>
        <time>2025-01-15T11:09:51Z</time>
      </trkpt>
      <trkpt lat="45.15645" lon="3.89125">
        <ele>633.17</ele>
        <time>2025-01-15T11:10:15Z</time>
      </trkpt>
      <trkpt lat="45.15667" lon="3.89111">
        <ele>631.72</ele>
        <time>2025-01-15T11:10:33Z</time>
      </trkpt>
      <trkpt lat="45.15696" lon="3.89104">
        <ele>631.72</ele>
        <time>2025-01-15T11:10:53Z</time>
      </trkpt>
      <trkpt lat="45.15723" lon="3.89102">
        <ele>630.76</ele>
        <time>2025-01-15T11:11:12Z</time>
      </trkpt>
      <trkpt lat="45.15753" lon="3.891">
        <ele>629.8</ele>
        <time>2025-01-15T11:11:33Z</time>
      </trkpt>
      <trkpt lat="45.15778" lon="3.89099">
        <ele>628.36</ele>
        <time>2025-01-15T11:11:50Z</time>
      </trkpt>
      <trkpt lat="45.15805" lon="3.89103">
        <ele>627.88</ele>
        <time>2025-01-15T11:12:09Z</time>
      </trkpt>
      <trkpt lat="45.1584" lon="3.89113">
        <ele>627.4</ele>
        <time>2025-01-15T11:12:34Z</time>
      </trkpt>
      <trkpt lat="45.15867" lon="3.89111">
        <ele>628.84</ele>
        <time>2025-01-15T11:12:54Z</time>
      </trkpt>
      <trkpt lat="45.15895" lon="3.89101">
        <ele>630.28</ele>
        <time>2025-01-15T11:13:14Z</time>
      </trkpt>
      <trkpt lat="45.15929" lon="3.89086">
        <ele>630.28</ele>
        <time>2025-01-15T11:13:39Z</time>
      </trkpt>
      <trkpt lat="45.15959" lon="3.89074">
        <ele>630.28</ele>
        <time>2025-01-15T11:14:01Z</time>
      </trkpt>
      <trkpt lat="45.15986" lon="3.8906">
        <ele>632.68</ele>
        <time>2025-01-15T11:14:21Z</time>
      </trkpt>
      <trkpt lat="45.16012" lon="3.89044">
        <ele>634.13</ele>
        <time>2025-01-15T11:14:41Z</time>
      </trkpt>
      <trkpt lat="45.16039" lon="3.89029">
        <ele>635.09</ele>
        <time>2025-01-15T11:15:02Z</time>
      </trkpt>
      <trkpt lat="45.16061" lon="3.89009">
        <ele>636.53</ele>
        <time>2025-01-15T11:15:21Z</time>
      </trkpt>
      <trkpt lat="45.16077" lon="3.88989">
        <ele>637.49</ele>
        <time>2025-01-15T11:15:37Z</time>
      </trkpt>
      <trkpt lat="45.16078" lon="3.88988">
        <ele>637.49</ele>
        <time>2025-01-15T11:15:38Z</time>
      </trkpt>
      <trkpt lat="45.16079" lon="3.88987">
        <ele>637.49</ele>
        <time>2025-01-15T11:15:39Z</time>
      </trkpt>
      <trkpt lat="45.1608" lon="3.88985">
        <ele>637.49</ele>
        <time>2025-01-15T11:15:40Z</time>
      </trkpt>
      <trkpt lat="45.1608" lon="3.88984">
        <ele>637.49</ele>
        <time>2025-01-15T11:15:41Z</time>
      </trkpt>
      <trkpt lat="45.16092" lon="3.88949">
        <ele>636.53</ele>
        <time>2025-01-15T11:16:03Z</time>
      </trkpt>
      <trkpt lat="45.16095" lon="3.88945">
        <ele>636.05</ele>
        <time>2025-01-15T11:16:06Z</time>
      </trkpt>
      <trkpt lat="45.16113" lon="3.8894">
        <ele>631.24</ele>
        <time>2025-01-15T11:16:24Z</time>
      </trkpt>
      <trkpt lat="45.16115" lon="3.8894">
        <ele>630.76</ele>
        <time>2025-01-15T11:16:26Z</time>
      </trkpt>
      <trkpt lat="45.16116" lon="3.8894">
        <ele>630.76</ele>
        <time>2025-01-15T11:16:27Z</time>
      </trkpt>
      <trkpt lat="45.1612" lon="3.88941">
        <ele>630.76</ele>
        <time>2025-01-15T11:16:31Z</time>
      </trkpt>
      <trkpt lat="45.16121" lon="3.88941">
        <ele>630.76</ele>
        <time>2025-01-15T11:16:32Z</time>
      </trkpt>
      <trkpt lat="45.16123" lon="3.88941">
        <ele>630.76</ele>
        <time>2025-01-15T11:16:33Z</time>
      </trkpt>
      <trkpt lat="45.16124" lon="3.88941">
        <ele>630.76</ele>
        <time>2025-01-15T11:16:34Z</time>
      </trkpt>
      <trkpt lat="45.16126" lon="3.88941">
        <ele>630.76</ele>
        <time>2025-01-15T11:16:35Z</time>
      </trkpt>
      <trkpt lat="45.16127" lon="3.88941">
        <ele>630.76</ele>
        <time>2025-01-15T11:16:36Z</time>
      </trkpt>
      <trkpt lat="45.16136" lon="3.88938">
        <ele>629.32</ele>
        <time>2025-01-15T11:16:45Z</time>
      </trkpt>
      <trkpt lat="45.16137" lon="3.88937">
        <ele>629.32</ele>
        <time>2025-01-15T11:16:46Z</time>
      </trkpt>
      <trkpt lat="45.16139" lon="3.88932">
        <ele>629.8</ele>
        <time>2025-01-15T11:16:50Z</time>
      </trkpt>
      <trkpt lat="45.16139" lon="3.88931">
        <ele>629.8</ele>
        <time>2025-01-15T11:16:51Z</time>
      </trkpt>
      <trkpt lat="45.16128" lon="3.889">
        <ele>629.8</ele>
        <time>2025-01-15T11:17:09Z</time>
      </trkpt>
      <trkpt lat="45.16119" lon="3.88871">
        <ele>631.72</ele>
        <time>2025-01-15T11:17:26Z</time>
      </trkpt>
      <trkpt lat="45.1611" lon="3.88845">
        <ele>632.68</ele>
        <time>2025-01-15T11:17:42Z</time>
      </trkpt>
      <trkpt lat="45.16102" lon="3.88817">
        <ele>635.57</ele>
        <time>2025-01-15T11:17:58Z</time>
      </trkpt>
      <trkpt lat="45.16097" lon="3.888">
        <ele>637.01</ele>
        <time>2025-01-15T11:18:07Z</time>
      </trkpt>
      <trkpt lat="45.16097" lon="3.88798">
        <ele>637.01</ele>
        <time>2025-01-15T11:18:08Z</time>
      </trkpt>
      <trkpt lat="45.16096" lon="3.88796">
        <ele>636.53</ele>
        <time>2025-01-15T11:18:09Z</time>
      </trkpt>
      <trkpt lat="45.16095" lon="3.88794">
        <ele>637.01</ele>
        <time>2025-01-15T11:18:10Z</time>
      </trkpt>
      <trkpt lat="45.16095" lon="3.88791">
        <ele>637.01</ele>
        <time>2025-01-15T11:18:11Z</time>
      </trkpt>
      <trkpt lat="45.16094" lon="3.8879">
        <ele>637.01</ele>
        <time>2025-01-15T11:18:12Z</time>
      </trkpt>
      <trkpt lat="45.16091" lon="3.88778">
        <ele>638.45</ele>
        <time>2025-01-15T11:18:20Z</time>
      </trkpt>
      <trkpt lat="45.16085" lon="3.88754">
        <ele>640.38</ele>
        <time>2025-01-15T11:18:35Z</time>
      </trkpt>
      <trkpt lat="45.16084" lon="3.88751">
        <ele>640.86</ele>
        <time>2025-01-15T11:18:37Z</time>
      </trkpt>
      <trkpt lat="45.16083" lon="3.88749">
        <ele>640.86</ele>
        <time>2025-01-15T11:18:38Z</time>
      </trkpt>
      <trkpt lat="45.16082" lon="3.88747">
        <ele>640.86</ele>
        <time>2025-01-15T11:18:39Z</time>
      </trkpt>
      <trkpt lat="45.16081" lon="3.88745">
        <ele>640.86</ele>
        <time>2025-01-15T11:18:40Z</time>
      </trkpt>
      <trkpt lat="45.1608" lon="3.88743">
        <ele>640.86</ele>
        <time>2025-01-15T11:18:41Z</time>
      </trkpt>
      <trkpt lat="45.16075" lon="3.88728">
        <ele>640.86</ele>
        <time>2025-01-15T11:18:49Z</time>
      </trkpt>
      <trkpt lat="45.16072" lon="3.88719">
        <ele>641.82</ele>
        <time>2025-01-15T11:18:54Z</time>
      </trkpt>
      <trkpt lat="45.16072" lon="3.88717">
        <ele>641.82</ele>
        <time>2025-01-15T11:18:55Z</time>
      </trkpt>
      <trkpt lat="45.16071" lon="3.88715">
        <ele>642.3</ele>
        <time>2025-01-15T11:18:56Z</time>
      </trkpt>
      <trkpt lat="45.16071" lon="3.88714">
        <ele>642.3</ele>
        <time>2025-01-15T11:18:57Z</time>
      </trkpt>
      <trkpt lat="45.1607" lon="3.88712">
        <ele>642.78</ele>
        <time>2025-01-15T11:18:58Z</time>
      </trkpt>
      <trkpt lat="45.1607" lon="3.8871">
        <ele>642.78</ele>
        <time>2025-01-15T11:18:59Z</time>
      </trkpt>
      <trkpt lat="45.16069" lon="3.88708">
        <ele>642.78</ele>
        <time>2025-01-15T11:19:00Z</time>
      </trkpt>
      <trkpt lat="45.16069" lon="3.88707">
        <ele>643.26</ele>
        <time>2025-01-15T11:19:01Z</time>
      </trkpt>
      <trkpt lat="45.16068" lon="3.88705">
        <ele>643.26</ele>
        <time>2025-01-15T11:19:02Z</time>
      </trkpt>
      <trkpt lat="45.16068" lon="3.88703">
        <ele>643.74</ele>
        <time>2025-01-15T11:19:03Z</time>
      </trkpt>
      <trkpt lat="45.16067" lon="3.88701">
        <ele>643.74</ele>
        <time>2025-01-15T11:19:04Z</time>
      </trkpt>
      <trkpt lat="45.16063" lon="3.88678">
        <ele>648.07</ele>
        <time>2025-01-15T11:19:17Z</time>
      </trkpt>
      <trkpt lat="45.16059" lon="3.88658">
        <ele>653.35</ele>
        <time>2025-01-15T11:19:30Z</time>
      </trkpt>
      <trkpt lat="45.1605" lon="3.88636">
        <ele>655.76</ele>
        <time>2025-01-15T11:19:44Z</time>
      </trkpt>
      <trkpt lat="45.16042" lon="3.88612">
        <ele>659.12</ele>
        <time>2025-01-15T11:19:58Z</time>
      </trkpt>
      <trkpt lat="45.16031" lon="3.88581">
        <ele>660.08</ele>
        <time>2025-01-15T11:20:14Z</time>
      </trkpt>
      <trkpt lat="45.16024" lon="3.88549">
        <ele>662.01</ele>
        <time>2025-01-15T11:20:31Z</time>
      </trkpt>
      <trkpt lat="45.16023" lon="3.88543">
        <ele>662.97</ele>
        <time>2025-01-15T11:20:34Z</time>
      </trkpt>
      <trkpt lat="45.16022" lon="3.88542">
        <ele>663.45</ele>
        <time>2025-01-15T11:20:35Z</time>
      </trkpt>
      <trkpt lat="45.16018" lon="3.88531">
        <ele>665.37</ele>
        <time>2025-01-15T11:20:42Z</time>
      </trkpt>
      <trkpt lat="45.16018" lon="3.88529">
        <ele>665.37</ele>
        <time>2025-01-15T11:20:43Z</time>
      </trkpt>
      <trkpt lat="45.16018" lon="3.88527">
        <ele>665.37</ele>
        <time>2025-01-15T11:20:44Z</time>
      </trkpt>
      <trkpt lat="45.16018" lon="3.88525">
        <ele>665.37</ele>
        <time>2025-01-15T11:20:45Z</time>
      </trkpt>
      <trkpt lat="45.16018" lon="3.88523">
        <ele>665.37</ele>
        <time>2025-01-15T11:20:46Z</time>
      </trkpt>
      <trkpt lat="45.16017" lon="3.88521">
        <ele>665.37</ele>
        <time>2025-01-15T11:20:47Z</time>
      </trkpt>
      <trkpt lat="45.16017" lon="3.88519">
        <ele>665.37</ele>
        <time>2025-01-15T11:20:48Z</time>
      </trkpt>
      <trkpt lat="45.16017" lon="3.88517">
        <ele>665.37</ele>
        <time>2025-01-15T11:20:49Z</time>
      </trkpt>
      <trkpt lat="45.1601" lon="3.88489">
        <ele>664.89</ele>
        <time>2025-01-15T11:21:04Z</time>
      </trkpt>
      <trkpt lat="45.16006" lon="3.88459">
        <ele>665.37</ele>
        <time>2025-01-15T11:21:18Z</time>
      </trkpt>
      <trkpt lat="45.16004" lon="3.88435">
        <ele>665.37</ele>
        <time>2025-01-15T11:21:30Z</time>
      </trkpt>
      <trkpt lat="45.16003" lon="3.88433">
        <ele>664.89</ele>
        <time>2025-01-15T11:21:31Z</time>
      </trkpt>
      <trkpt lat="45.16001" lon="3.88423">
        <ele>664.41</ele>
        <time>2025-01-15T11:21:36Z</time>
      </trkpt>
      <trkpt lat="45.16" lon="3.8842">
        <ele>664.41</ele>
        <time>2025-01-15T11:21:37Z</time>
      </trkpt>
      <trkpt lat="45.15989" lon="3.88386">
        <ele>662.97</ele>
        <time>2025-01-15T11:21:54Z</time>
      </trkpt>
      <trkpt lat="45.15985" lon="3.88364">
        <ele>662.97</ele>
        <time>2025-01-15T11:22:07Z</time>
      </trkpt>
      <trkpt lat="45.15985" lon="3.88362">
        <ele>662.97</ele>
        <time>2025-01-15T11:22:08Z</time>
      </trkpt>
      <trkpt lat="45.15984" lon="3.8836">
        <ele>662.97</ele>
        <time>2025-01-15T11:22:09Z</time>
      </trkpt>
      <trkpt lat="45.15984" lon="3.88352">
        <ele>662.49</ele>
        <time>2025-01-15T11:22:13Z</time>
      </trkpt>
      <trkpt lat="45.15984" lon="3.8835">
        <ele>662.49</ele>
        <time>2025-01-15T11:22:14Z</time>
      </trkpt>
      <trkpt lat="45.15984" lon="3.88348">
        <ele>662.49</ele>
        <time>2025-01-15T11:22:15Z</time>
      </trkpt>
      <trkpt lat="45.15984" lon="3.88346">
        <ele>662.97</ele>
        <time>2025-01-15T11:22:16Z</time>
      </trkpt>
      <trkpt lat="45.15984" lon="3.88344">
        <ele>662.97</ele>
        <time>2025-01-15T11:22:17Z</time>
      </trkpt>
      <trkpt lat="45.15984" lon="3.88342">
        <ele>662.97</ele>
        <time>2025-01-15T11:22:18Z</time>
      </trkpt>
      <trkpt lat="45.15984" lon="3.8834">
        <ele>662.97</ele>
        <time>2025-01-15T11:22:19Z</time>
      </trkpt>
      <trkpt lat="45.15982" lon="3.88309">
        <ele>663.93</ele>
        <time>2025-01-15T11:22:36Z</time>
      </trkpt>
      <trkpt lat="45.15981" lon="3.88303">
        <ele>663.93</ele>
        <time>2025-01-15T11:22:39Z</time>
      </trkpt>
      <trkpt lat="45.15981" lon="3.88301">
        <ele>663.93</ele>
        <time>2025-01-15T11:22:40Z</time>
      </trkpt>
      <trkpt lat="45.15981" lon="3.88299">
        <ele>663.93</ele>
        <time>2025-01-15T11:22:41Z</time>
      </trkpt>
      <trkpt lat="45.15981" lon="3.88296">
        <ele>663.93</ele>
        <time>2025-01-15T11:22:42Z</time>
      </trkpt>
      <trkpt lat="45.15981" lon="3.88294">
        <ele>663.93</ele>
        <time>2025-01-15T11:22:43Z</time>
      </trkpt>
      <trkpt lat="45.15979" lon="3.8826">
        <ele>661.52</ele>
        <time>2025-01-15T11:22:59Z</time>
      </trkpt>
      <trkpt lat="45.15976" lon="3.88228">
        <ele>659.6</ele>
        <time>2025-01-15T11:23:14Z</time>
      </trkpt>
      <trkpt lat="45.15974" lon="3.8819">
        <ele>659.6</ele>
        <time>2025-01-15T11:23:34Z</time>
      </trkpt>
      <trkpt lat="45.1598" lon="3.88159">
        <ele>660.08</ele>
        <time>2025-01-15T11:23:52Z</time>
      </trkpt>
      <trkpt lat="45.1598" lon="3.88157">
        <ele>660.08</ele>
        <time>2025-01-15T11:23:53Z</time>
      </trkpt>
      <trkpt lat="45.15985" lon="3.88127">
        <ele>661.52</ele>
        <time>2025-01-15T11:24:09Z</time>
      </trkpt>
      <trkpt lat="45.15984" lon="3.88091">
        <ele>659.6</ele>
        <time>2025-01-15T11:24:26Z</time>
      </trkpt>
      <trkpt lat="45.15981" lon="3.88069">
        <ele>662.97</ele>
        <time>2025-01-15T11:24:41Z</time>
      </trkpt>
      <trkpt lat="45.15981" lon="3.88067">
        <ele>662.97</ele>
        <time>2025-01-15T11:24:42Z</time>
      </trkpt>
      <trkpt lat="45.15981" lon="3.88065">
        <ele>663.45</ele>
        <time>2025-01-15T11:24:43Z</time>
      </trkpt>
      <trkpt lat="45.15981" lon="3.88063">
        <ele>663.45</ele>
        <time>2025-01-15T11:24:44Z</time>
      </trkpt>
      <trkpt lat="45.15982" lon="3.8806">
        <ele>663.45</ele>
        <time>2025-01-15T11:24:45Z</time>
      </trkpt>
      <trkpt lat="45.15982" lon="3.88058">
        <ele>663.93</ele>
        <time>2025-01-15T11:24:46Z</time>
      </trkpt>
      <trkpt lat="45.15984" lon="3.88027">
        <ele>668.73</ele>
        <time>2025-01-15T11:25:04Z</time>
      </trkpt>
      <trkpt lat="45.1599" lon="3.87992">
        <ele>674.02</ele>
        <time>2025-01-15T11:25:22Z</time>
      </trkpt>
      <trkpt lat="45.15988" lon="3.87963">
        <ele>675.46</ele>
        <time>2025-01-15T11:25:36Z</time>
      </trkpt>
      <trkpt lat="45.15985" lon="3.87924">
        <ele>670.66</ele>
        <time>2025-01-15T11:25:53Z</time>
      </trkpt>
      <trkpt lat="45.15986" lon="3.87909">
        <ele>668.25</ele>
        <time>2025-01-15T11:26:01Z</time>
      </trkpt>
      <trkpt lat="45.15988" lon="3.87898">
        <ele>667.29</ele>
        <time>2025-01-15T11:26:08Z</time>
      </trkpt>
      <trkpt lat="45.15989" lon="3.87893">
        <ele>666.81</ele>
        <time>2025-01-15T11:26:11Z</time>
      </trkpt>
      <trkpt lat="45.15989" lon="3.87891">
        <ele>666.81</ele>
        <time>2025-01-15T11:26:12Z</time>
      </trkpt>
      <trkpt lat="45.1599" lon="3.87889">
        <ele>666.81</ele>
        <time>2025-01-15T11:26:13Z</time>
      </trkpt>
      <trkpt lat="45.1599" lon="3.87887">
        <ele>666.33</ele>
        <time>2025-01-15T11:26:14Z</time>
      </trkpt>
      <trkpt lat="45.15991" lon="3.87885">
        <ele>665.85</ele>
        <time>2025-01-15T11:26:15Z</time>
      </trkpt>
      <trkpt lat="45.15998" lon="3.87867">
        <ele>663.45</ele>
        <time>2025-01-15T11:26:26Z</time>
      </trkpt>
      <trkpt lat="45.15998" lon="3.87865">
        <ele>663.45</ele>
        <time>2025-01-15T11:26:27Z</time>
      </trkpt>
      <trkpt lat="45.16002" lon="3.87826">
        <ele>661.52</ele>
        <time>2025-01-15T11:26:46Z</time>
      </trkpt>
      <trkpt lat="45.15999" lon="3.878">
        <ele>664.89</ele>
        <time>2025-01-15T11:27:01Z</time>
      </trkpt>
      <trkpt lat="45.15995" lon="3.87766">
        <ele>665.85</ele>
        <time>2025-01-15T11:27:18Z</time>
      </trkpt>
      <trkpt lat="45.1599" lon="3.8774">
        <ele>669.22</ele>
        <time>2025-01-15T11:27:34Z</time>
      </trkpt>
      <trkpt lat="45.15985" lon="3.87715">
        <ele>670.66</ele>
        <time>2025-01-15T11:27:49Z</time>
      </trkpt>
      <trkpt lat="45.15982" lon="3.87708">
        <ele>670.18</ele>
        <time>2025-01-15T11:27:54Z</time>
      </trkpt>
      <trkpt lat="45.15981" lon="3.87706">
        <ele>670.18</ele>
        <time>2025-01-15T11:27:55Z</time>
      </trkpt>
      <trkpt lat="45.15981" lon="3.87704">
        <ele>670.18</ele>
        <time>2025-01-15T11:27:56Z</time>
      </trkpt>
      <trkpt lat="45.15972" lon="3.87678">
        <ele>671.62</ele>
        <time>2025-01-15T11:28:12Z</time>
      </trkpt>
      <trkpt lat="45.15968" lon="3.87669">
        <ele>671.62</ele>
        <time>2025-01-15T11:28:18Z</time>
      </trkpt>
      <trkpt lat="45.15967" lon="3.87666">
        <ele>671.62</ele>
        <time>2025-01-15T11:28:20Z</time>
      </trkpt>
      <trkpt lat="45.15954" lon="3.87639">
        <ele>672.1</ele>
        <time>2025-01-15T11:28:36Z</time>
      </trkpt>
      <trkpt lat="45.15942" lon="3.87617">
        <ele>673.54</ele>
        <time>2025-01-15T11:28:51Z</time>
      </trkpt>
      <trkpt lat="45.1593" lon="3.87598">
        <ele>674.02</ele>
        <time>2025-01-15T11:29:06Z</time>
      </trkpt>
      <trkpt lat="45.15913" lon="3.87579">
        <ele>674.5</ele>
        <time>2025-01-15T11:29:23Z</time>
      </trkpt>
      <trkpt lat="45.15894" lon="3.87557">
        <ele>676.42</ele>
        <time>2025-01-15T11:29:41Z</time>
      </trkpt>
      <trkpt lat="45.15875" lon="3.87541">
        <ele>677.39</ele>
        <time>2025-01-15T11:29:57Z</time>
      </trkpt>
      <trkpt lat="45.15855" lon="3.87524">
        <ele>679.31</ele>
        <time>2025-01-15T11:30:14Z</time>
      </trkpt>
      <trkpt lat="45.15839" lon="3.87505">
        <ele>680.75</ele>
        <time>2025-01-15T11:30:30Z</time>
      </trkpt>
      <trkpt lat="45.15818" lon="3.87486">
        <ele>677.87</ele>
        <time>2025-01-15T11:30:47Z</time>
      </trkpt>
      <trkpt lat="45.15802" lon="3.87466">
        <ele>676.42</ele>
        <time>2025-01-15T11:31:03Z</time>
      </trkpt>
      <trkpt lat="45.1579" lon="3.87447">
        <ele>679.31</ele>
        <time>2025-01-15T11:31:18Z</time>
      </trkpt>
      <trkpt lat="45.15782" lon="3.87438">
        <ele>679.31</ele>
        <time>2025-01-15T11:31:25Z</time>
      </trkpt>
      <trkpt lat="45.15781" lon="3.87438">
        <ele>679.79</ele>
        <time>2025-01-15T11:31:26Z</time>
      </trkpt>
      <trkpt lat="45.1578" lon="3.87437">
        <ele>679.79</ele>
        <time>2025-01-15T11:31:27Z</time>
      </trkpt>
      <trkpt lat="45.15779" lon="3.87436">
        <ele>679.79</ele>
        <time>2025-01-15T11:31:28Z</time>
      </trkpt>
      <trkpt lat="45.15778" lon="3.87435">
        <ele>679.79</ele>
        <time>2025-01-15T11:31:29Z</time>
      </trkpt>
      <trkpt lat="45.15777" lon="3.87433">
        <ele>679.79</ele>
        <time>2025-01-15T11:31:30Z</time>
      </trkpt>
      <trkpt lat="45.15761" lon="3.87418">
        <ele>681.23</ele>
        <time>2025-01-15T11:31:44Z</time>
      </trkpt>
      <trkpt lat="45.1576" lon="3.87417">
        <ele>681.23</ele>
        <time>2025-01-15T11:31:45Z</time>
      </trkpt>
      <trkpt lat="45.15759" lon="3.87415">
        <ele>681.23</ele>
        <time>2025-01-15T11:31:46Z</time>
      </trkpt>
      <trkpt lat="45.15757" lon="3.87413">
        <ele>681.71</ele>
        <time>2025-01-15T11:31:48Z</time>
      </trkpt>
      <trkpt lat="45.15755" lon="3.87412">
        <ele>681.23</ele>
        <time>2025-01-15T11:31:49Z</time>
      </trkpt>
      <trkpt lat="45.15743" lon="3.87394">
        <ele>682.19</ele>
        <time>2025-01-15T11:32:04Z</time>
      </trkpt>
      <trkpt lat="45.15728" lon="3.87371">
        <ele>683.63</ele>
        <time>2025-01-15T11:32:20Z</time>
      </trkpt>
      <trkpt lat="45.15716" lon="3.8735">
        <ele>684.6</ele>
        <time>2025-01-15T11:32:34Z</time>
      </trkpt>
      <trkpt lat="45.15715" lon="3.87348">
        <ele>685.08</ele>
        <time>2025-01-15T11:32:35Z</time>
      </trkpt>
      <trkpt lat="45.15708" lon="3.87332">
        <ele>686.04</ele>
        <time>2025-01-15T11:32:46Z</time>
      </trkpt>
      <trkpt lat="45.15706" lon="3.87324">
        <ele>687</ele>
        <time>2025-01-15T11:32:51Z</time>
      </trkpt>
      <trkpt lat="45.15697" lon="3.87298">
        <ele>690.84</ele>
        <time>2025-01-15T11:33:07Z</time>
      </trkpt>
      <trkpt lat="45.15697" lon="3.87295">
        <ele>691.81</ele>
        <time>2025-01-15T11:33:09Z</time>
      </trkpt>
      <trkpt lat="45.1569" lon="3.87274">
        <ele>696.61</ele>
        <time>2025-01-15T11:33:23Z</time>
      </trkpt>
      <trkpt lat="45.15683" lon="3.87247">
        <ele>697.57</ele>
        <time>2025-01-15T11:33:39Z</time>
      </trkpt>
      <trkpt lat="45.15675" lon="3.87224">
        <ele>700.46</ele>
        <time>2025-01-15T11:33:55Z</time>
      </trkpt>
      <trkpt lat="45.15674" lon="3.87221">
        <ele>701.42</ele>
        <time>2025-01-15T11:33:57Z</time>
      </trkpt>
      <trkpt lat="45.1567" lon="3.87202">
        <ele>704.78</ele>
        <time>2025-01-15T11:34:12Z</time>
      </trkpt>
      <trkpt lat="45.15665" lon="3.87195">
        <ele>706.71</ele>
        <time>2025-01-15T11:34:25Z</time>
      </trkpt>
      <trkpt lat="45.15665" lon="3.87185">
        <ele>707.19</ele>
        <time>2025-01-15T11:34:43Z</time>
      </trkpt>
      <trkpt lat="45.15662" lon="3.87184">
        <ele>707.19</ele>
        <time>2025-01-15T11:34:56Z</time>
      </trkpt>
      <trkpt lat="45.15659" lon="3.87184">
        <ele>707.67</ele>
        <time>2025-01-15T11:35:15Z</time>
      </trkpt>
      <trkpt lat="45.15659" lon="3.87189">
        <ele>706.23</ele>
        <time>2025-01-15T11:35:41Z</time>
      </trkpt>
      <trkpt lat="45.15654" lon="3.8719">
        <ele>702.38</ele>
        <time>2025-01-15T11:36:07Z</time>
      </trkpt>
      <trkpt lat="45.15651" lon="3.87189">
        <ele>698.53</ele>
        <time>2025-01-15T11:36:33Z</time>
      </trkpt>
      <trkpt lat="45.15652" lon="3.87178">
        <ele>699.98</ele>
        <time>2025-01-15T11:36:48Z</time>
      </trkpt>
      <trkpt lat="45.15647" lon="3.87154">
        <ele>703.82</ele>
        <time>2025-01-15T11:37:06Z</time>
      </trkpt>
      <trkpt lat="45.15642" lon="3.87131">
        <ele>706.71</ele>
        <time>2025-01-15T11:37:22Z</time>
      </trkpt>
      <trkpt lat="45.1564" lon="3.87109">
        <ele>708.15</ele>
        <time>2025-01-15T11:37:37Z</time>
      </trkpt>
      <trkpt lat="45.15639" lon="3.87085">
        <ele>711.03</ele>
        <time>2025-01-15T11:37:53Z</time>
      </trkpt>
      <trkpt lat="45.15636" lon="3.87057">
        <ele>714.88</ele>
        <time>2025-01-15T11:38:11Z</time>
      </trkpt>
      <trkpt lat="45.15633" lon="3.87036">
        <ele>718.24</ele>
        <time>2025-01-15T11:38:25Z</time>
      </trkpt>
      <trkpt lat="45.15635" lon="3.87003">
        <ele>720.16</ele>
        <time>2025-01-15T11:38:43Z</time>
      </trkpt>
      <trkpt lat="45.15634" lon="3.86986">
        <ele>719.68</ele>
        <time>2025-01-15T11:38:52Z</time>
      </trkpt>
      <trkpt lat="45.15633" lon="3.86968">
        <ele>720.16</ele>
        <time>2025-01-15T11:39:04Z</time>
      </trkpt>
      <trkpt lat="45.15631" lon="3.86962">
        <ele>720.65</ele>
        <time>2025-01-15T11:39:08Z</time>
      </trkpt>
      <trkpt lat="45.15623" lon="3.86938">
        <ele>722.09</ele>
        <time>2025-01-15T11:39:24Z</time>
      </trkpt>
      <trkpt lat="45.15619" lon="3.86923">
        <ele>723.05</ele>
        <time>2025-01-15T11:39:34Z</time>
      </trkpt>
      <trkpt lat="45.15618" lon="3.86921">
        <ele>723.05</ele>
        <time>2025-01-15T11:39:35Z</time>
      </trkpt>
      <trkpt lat="45.15618" lon="3.86919">
        <ele>723.05</ele>
        <time>2025-01-15T11:39:36Z</time>
      </trkpt>
      <trkpt lat="45.15618" lon="3.86892">
        <ele>724.01</ele>
        <time>2025-01-15T11:39:53Z</time>
      </trkpt>
      <trkpt lat="45.15619" lon="3.86867">
        <ele>726.41</ele>
        <time>2025-01-15T11:40:08Z</time>
      </trkpt>
      <trkpt lat="45.15619" lon="3.86841">
        <ele>729.78</ele>
        <time>2025-01-15T11:40:24Z</time>
      </trkpt>
      <trkpt lat="45.15616" lon="3.86811">
        <ele>731.7</ele>
        <time>2025-01-15T11:40:43Z</time>
      </trkpt>
      <trkpt lat="45.15613" lon="3.86781">
        <ele>734.1</ele>
        <time>2025-01-15T11:41:01Z</time>
      </trkpt>
      <trkpt lat="45.15604" lon="3.86754">
        <ele>733.62</ele>
        <time>2025-01-15T11:41:17Z</time>
      </trkpt>
      <trkpt lat="45.15598" lon="3.86739">
        <ele>734.58</ele>
        <time>2025-01-15T11:41:28Z</time>
      </trkpt>
      <trkpt lat="45.15589" lon="3.8672">
        <ele>736.51</ele>
        <time>2025-01-15T11:41:43Z</time>
      </trkpt>
      <trkpt lat="45.15587" lon="3.86717">
        <ele>737.47</ele>
        <time>2025-01-15T11:41:46Z</time>
      </trkpt>
      <trkpt lat="45.15586" lon="3.86716">
        <ele>737.47</ele>
        <time>2025-01-15T11:41:47Z</time>
      </trkpt>
      <trkpt lat="45.15583" lon="3.86708">
        <ele>738.91</ele>
        <time>2025-01-15T11:41:53Z</time>
      </trkpt>
      <trkpt lat="45.15576" lon="3.86693">
        <ele>740.83</ele>
        <time>2025-01-15T11:42:05Z</time>
      </trkpt>
      <trkpt lat="45.15565" lon="3.86674">
        <ele>743.24</ele>
        <time>2025-01-15T11:42:20Z</time>
      </trkpt>
      <trkpt lat="45.15556" lon="3.86654">
        <ele>746.12</ele>
        <time>2025-01-15T11:42:35Z</time>
      </trkpt>
      <trkpt lat="45.15546" lon="3.86631">
        <ele>748.52</ele>
        <time>2025-01-15T11:42:51Z</time>
      </trkpt>
      <trkpt lat="45.15535" lon="3.86605">
        <ele>749.97</ele>
        <time>2025-01-15T11:43:08Z</time>
      </trkpt>
      <trkpt lat="45.15535" lon="3.86604">
        <ele>749.97</ele>
        <time>2025-01-15T11:43:09Z</time>
      </trkpt>
      <trkpt lat="45.15532" lon="3.86599">
        <ele>750.93</ele>
        <time>2025-01-15T11:43:13Z</time>
      </trkpt>
      <trkpt lat="45.1552" lon="3.86584">
        <ele>752.85</ele>
        <time>2025-01-15T11:43:29Z</time>
      </trkpt>
      <trkpt lat="45.155" lon="3.86573">
        <ele>755.73</ele>
        <time>2025-01-15T11:43:45Z</time>
      </trkpt>
      <trkpt lat="45.15483" lon="3.86563">
        <ele>760.06</ele>
        <time>2025-01-15T11:44:00Z</time>
      </trkpt>
      <trkpt lat="45.15467" lon="3.86555">
        <ele>760.54</ele>
        <time>2025-01-15T11:44:13Z</time>
      </trkpt>
      <trkpt lat="45.15455" lon="3.86538">
        <ele>761.5</ele>
        <time>2025-01-15T11:44:26Z</time>
      </trkpt>
      <trkpt lat="45.15454" lon="3.86537">
        <ele>761.5</ele>
        <time>2025-01-15T11:44:27Z</time>
      </trkpt>
      <trkpt lat="45.15454" lon="3.86535">
        <ele>761.5</ele>
        <time>2025-01-15T11:44:28Z</time>
      </trkpt>
      <trkpt lat="45.15452" lon="3.86514">
        <ele>762.94</ele>
        <time>2025-01-15T11:44:42Z</time>
      </trkpt>
      <trkpt lat="45.15448" lon="3.86489">
        <ele>767.75</ele>
        <time>2025-01-15T11:44:59Z</time>
      </trkpt>
      <trkpt lat="45.15439" lon="3.86462">
        <ele>769.67</ele>
        <time>2025-01-15T11:45:15Z</time>
      </trkpt>
      <trkpt lat="45.15428" lon="3.86446">
        <ele>770.63</ele>
        <time>2025-01-15T11:45:28Z</time>
      </trkpt>
      <trkpt lat="45.15427" lon="3.86443">
        <ele>771.11</ele>
        <time>2025-01-15T11:45:30Z</time>
      </trkpt>
      <trkpt lat="45.15417" lon="3.86422">
        <ele>772.08</ele>
        <time>2025-01-15T11:45:44Z</time>
      </trkpt>
      <trkpt lat="45.15415" lon="3.86417">
        <ele>772.56</ele>
        <time>2025-01-15T11:45:48Z</time>
      </trkpt>
      <trkpt lat="45.15416" lon="3.86385">
        <ele>773.52</ele>
        <time>2025-01-15T11:46:05Z</time>
      </trkpt>
      <trkpt lat="45.15419" lon="3.86359">
        <ele>774.96</ele>
        <time>2025-01-15T11:46:19Z</time>
      </trkpt>
      <trkpt lat="45.15415" lon="3.86327">
        <ele>775.44</ele>
        <time>2025-01-15T11:46:37Z</time>
      </trkpt>
      <trkpt lat="45.1541" lon="3.86323">
        <ele>775.92</ele>
        <time>2025-01-15T11:46:41Z</time>
      </trkpt>
      <trkpt lat="45.15409" lon="3.86322">
        <ele>775.92</ele>
        <time>2025-01-15T11:46:42Z</time>
      </trkpt>
      <trkpt lat="45.15407" lon="3.86322">
        <ele>775.92</ele>
        <time>2025-01-15T11:46:44Z</time>
      </trkpt>
      <trkpt lat="45.15406" lon="3.86322">
        <ele>775.92</ele>
        <time>2025-01-15T11:46:45Z</time>
      </trkpt>
      <trkpt lat="45.15404" lon="3.86321">
        <ele>776.4</ele>
        <time>2025-01-15T11:46:46Z</time>
      </trkpt>
      <trkpt lat="45.15403" lon="3.86321">
        <ele>776.4</ele>
        <time>2025-01-15T11:46:47Z</time>
      </trkpt>
      <trkpt lat="45.15402" lon="3.86321">
        <ele>777.36</ele>
        <time>2025-01-15T11:46:49Z</time>
      </trkpt>
      <trkpt lat="45.15397" lon="3.86326">
        <ele>777.84</ele>
        <time>2025-01-15T11:46:54Z</time>
      </trkpt>
      <trkpt lat="45.15397" lon="3.86327">
        <ele>778.32</ele>
        <time>2025-01-15T11:46:55Z</time>
      </trkpt>
      <trkpt lat="45.15396" lon="3.86329">
        <ele>778.32</ele>
        <time>2025-01-15T11:46:56Z</time>
      </trkpt>
      <trkpt lat="45.15389" lon="3.86344">
        <ele>778.32</ele>
        <time>2025-01-15T11:47:07Z</time>
      </trkpt>
      <trkpt lat="45.15388" lon="3.86346">
        <ele>777.84</ele>
        <time>2025-01-15T11:47:08Z</time>
      </trkpt>
      <trkpt lat="45.15387" lon="3.86347">
        <ele>777.84</ele>
        <time>2025-01-15T11:47:09Z</time>
      </trkpt>
      <trkpt lat="45.15373" lon="3.86366">
        <ele>778.32</ele>
        <time>2025-01-15T11:47:23Z</time>
      </trkpt>
      <trkpt lat="45.15372" lon="3.86367">
        <ele>778.81</ele>
        <time>2025-01-15T11:47:24Z</time>
      </trkpt>
      <trkpt lat="45.15353" lon="3.86379">
        <ele>779.77</ele>
        <time>2025-01-15T11:47:40Z</time>
      </trkpt>
      <trkpt lat="45.15335" lon="3.86382">
        <ele>780.73</ele>
        <time>2025-01-15T11:47:55Z</time>
      </trkpt>
      <trkpt lat="45.1532" lon="3.86381">
        <ele>783.13</ele>
        <time>2025-01-15T11:48:09Z</time>
      </trkpt>
      <trkpt lat="45.15305" lon="3.8638">
        <ele>785.53</ele>
        <time>2025-01-15T11:48:22Z</time>
      </trkpt>
      <trkpt lat="45.153" lon="3.86378">
        <ele>786.5</ele>
        <time>2025-01-15T11:48:27Z</time>
      </trkpt>
      <trkpt lat="45.15278" lon="3.86372">
        <ele>792.74</ele>
        <time>2025-01-15T11:48:42Z</time>
      </trkpt>
      <trkpt lat="45.15261" lon="3.86361">
        <ele>798.99</ele>
        <time>2025-01-15T11:48:57Z</time>
      </trkpt>
      <trkpt lat="45.15255" lon="3.86349">
        <ele>799.47</ele>
        <time>2025-01-15T11:49:05Z</time>
      </trkpt>
      <trkpt lat="45.1526" lon="3.86339">
        <ele>801.88</ele>
        <time>2025-01-15T11:49:15Z</time>
      </trkpt>
      <trkpt lat="45.15276" lon="3.8633">
        <ele>808.13</ele>
        <time>2025-01-15T11:49:30Z</time>
      </trkpt>
      <trkpt lat="45.15294" lon="3.86319">
        <ele>814.85</ele>
        <time>2025-01-15T11:49:47Z</time>
      </trkpt>
      <trkpt lat="45.153" lon="3.86314">
        <ele>815.34</ele>
        <time>2025-01-15T11:49:53Z</time>
      </trkpt>
      <trkpt lat="45.15314" lon="3.86287">
        <ele>816.3</ele>
        <time>2025-01-15T11:50:10Z</time>
      </trkpt>
      <trkpt lat="45.15318" lon="3.86263">
        <ele>817.26</ele>
        <time>2025-01-15T11:50:25Z</time>
      </trkpt>
      <trkpt lat="45.15317" lon="3.86234">
        <ele>816.3</ele>
        <time>2025-01-15T11:50:40Z</time>
      </trkpt>
      <trkpt lat="45.15318" lon="3.86204">
        <ele>819.18</ele>
        <time>2025-01-15T11:50:58Z</time>
      </trkpt>
      <trkpt lat="45.15319" lon="3.8618">
        <ele>822.06</ele>
        <time>2025-01-15T11:51:13Z</time>
      </trkpt>
      <trkpt lat="45.15312" lon="3.8615">
        <ele>822.06</ele>
        <time>2025-01-15T11:51:30Z</time>
      </trkpt>
      <trkpt lat="45.15311" lon="3.86118">
        <ele>822.06</ele>
        <time>2025-01-15T11:51:50Z</time>
      </trkpt>
      <trkpt lat="45.15315" lon="3.86105">
        <ele>822.06</ele>
        <time>2025-01-15T11:51:58Z</time>
      </trkpt>
      <trkpt lat="45.15317" lon="3.86103">
        <ele>822.06</ele>
        <time>2025-01-15T11:51:59Z</time>
      </trkpt>
      <trkpt lat="45.15317" lon="3.86101">
        <ele>822.06</ele>
        <time>2025-01-15T11:52:00Z</time>
      </trkpt>
      <trkpt lat="45.15317" lon="3.861">
        <ele>822.06</ele>
        <time>2025-01-15T11:52:01Z</time>
      </trkpt>
      <trkpt lat="45.15318" lon="3.86098">
        <ele>822.55</ele>
        <time>2025-01-15T11:52:02Z</time>
      </trkpt>
      <trkpt lat="45.15318" lon="3.86096">
        <ele>822.55</ele>
        <time>2025-01-15T11:52:03Z</time>
      </trkpt>
      <trkpt lat="45.15308" lon="3.86067">
        <ele>822.55</ele>
        <time>2025-01-15T11:52:20Z</time>
      </trkpt>
      <trkpt lat="45.15291" lon="3.8606">
        <ele>824.95</ele>
        <time>2025-01-15T11:52:36Z</time>
      </trkpt>
      <trkpt lat="45.1528" lon="3.86067">
        <ele>824.95</ele>
        <time>2025-01-15T11:52:50Z</time>
      </trkpt>
      <trkpt lat="45.15277" lon="3.86075">
        <ele>825.43</ele>
        <time>2025-01-15T11:53:06Z</time>
      </trkpt>
      <trkpt lat="45.15279" lon="3.86071">
        <ele>825.91</ele>
        <time>2025-01-15T11:53:20Z</time>
      </trkpt>
      <trkpt lat="45.15279" lon="3.8607">
        <ele>825.91</ele>
        <time>2025-01-15T11:53:33Z</time>
      </trkpt>
      <trkpt lat="45.15276" lon="3.86069">
        <ele>825.43</ele>
        <time>2025-01-15T11:53:45Z</time>
      </trkpt>
      <trkpt lat="45.15275" lon="3.86066">
        <ele>824.95</ele>
        <time>2025-01-15T11:53:58Z</time>
      </trkpt>
      <trkpt lat="45.15276" lon="3.86066">
        <ele>825.91</ele>
        <time>2025-01-15T11:54:17Z</time>
      </trkpt>
      <trkpt lat="45.15277" lon="3.86066">
        <ele>824.95</ele>
        <time>2025-01-15T11:54:35Z</time>
      </trkpt>
      <trkpt lat="45.15276" lon="3.86066">
        <ele>823.03</ele>
        <time>2025-01-15T11:54:55Z</time>
      </trkpt>
      <trkpt lat="45.15275" lon="3.8607">
        <ele>823.51</ele>
        <time>2025-01-15T11:55:13Z</time>
      </trkpt>
      <trkpt lat="45.15275" lon="3.86071">
        <ele>823.51</ele>
        <time>2025-01-15T11:55:14Z</time>
      </trkpt>
      <trkpt lat="45.15276" lon="3.86075">
        <ele>823.51</ele>
        <time>2025-01-15T11:55:16Z</time>
      </trkpt>
      <trkpt lat="45.15277" lon="3.86077">
        <ele>823.51</ele>
        <time>2025-01-15T11:55:17Z</time>
      </trkpt>
      <trkpt lat="45.15279" lon="3.86086">
        <ele>823.51</ele>
        <time>2025-01-15T11:55:23Z</time>
      </trkpt>
      <trkpt lat="45.15286" lon="3.86106">
        <ele>824.47</ele>
        <time>2025-01-15T11:55:37Z</time>
      </trkpt>
      <trkpt lat="45.15291" lon="3.86131">
        <ele>828.79</ele>
        <time>2025-01-15T11:55:52Z</time>
      </trkpt>
      <trkpt lat="45.15291" lon="3.86153">
        <ele>832.16</ele>
        <time>2025-01-15T11:56:05Z</time>
      </trkpt>
      <trkpt lat="45.15289" lon="3.86179">
        <ele>835.52</ele>
        <time>2025-01-15T11:56:22Z</time>
      </trkpt>
      <trkpt lat="45.15287" lon="3.86191">
        <ele>835.04</ele>
        <time>2025-01-15T11:56:30Z</time>
      </trkpt>
      <trkpt lat="45.15287" lon="3.86193">
        <ele>835.04</ele>
        <time>2025-01-15T11:56:31Z</time>
      </trkpt>
      <trkpt lat="45.15282" lon="3.86218">
        <ele>836.48</ele>
        <time>2025-01-15T11:56:46Z</time>
      </trkpt>
      <trkpt lat="45.15282" lon="3.8622">
        <ele>836.96</ele>
        <time>2025-01-15T11:56:47Z</time>
      </trkpt>
      <trkpt lat="45.15282" lon="3.86221">
        <ele>836.96</ele>
        <time>2025-01-15T11:56:48Z</time>
      </trkpt>
      <trkpt lat="45.15281" lon="3.86223">
        <ele>836.96</ele>
        <time>2025-01-15T11:56:49Z</time>
      </trkpt>
      <trkpt lat="45.15281" lon="3.86224">
        <ele>837.45</ele>
        <time>2025-01-15T11:56:50Z</time>
      </trkpt>
      <trkpt lat="45.15274" lon="3.86241">
        <ele>837.45</ele>
        <time>2025-01-15T11:57:03Z</time>
      </trkpt>
      <trkpt lat="45.15273" lon="3.86243">
        <ele>837.45</ele>
        <time>2025-01-15T11:57:04Z</time>
      </trkpt>
      <trkpt lat="45.15272" lon="3.86244">
        <ele>837.45</ele>
        <time>2025-01-15T11:57:05Z</time>
      </trkpt>
      <trkpt lat="45.15271" lon="3.86244">
        <ele>837.45</ele>
        <time>2025-01-15T11:57:06Z</time>
      </trkpt>
      <trkpt lat="45.1527" lon="3.86245">
        <ele>837.45</ele>
        <time>2025-01-15T11:57:07Z</time>
      </trkpt>
      <trkpt lat="45.15268" lon="3.86245">
        <ele>837.45</ele>
        <time>2025-01-15T11:57:08Z</time>
      </trkpt>
      <trkpt lat="45.15251" lon="3.86246">
        <ele>837.45</ele>
        <time>2025-01-15T11:57:24Z</time>
      </trkpt>
      <trkpt lat="45.15235" lon="3.86244">
        <ele>839.85</ele>
        <time>2025-01-15T11:57:40Z</time>
      </trkpt>
      <trkpt lat="45.15218" lon="3.86246">
        <ele>842.73</ele>
        <time>2025-01-15T11:57:57Z</time>
      </trkpt>
      <trkpt lat="45.15199" lon="3.86254">
        <ele>844.18</ele>
        <time>2025-01-15T11:58:13Z</time>
      </trkpt>
      <trkpt lat="45.1518" lon="3.86266">
        <ele>847.54</ele>
        <time>2025-01-15T11:58:29Z</time>
      </trkpt>
      <trkpt lat="45.15178" lon="3.86268">
        <ele>848.02</ele>
        <time>2025-01-15T11:58:31Z</time>
      </trkpt>
      <trkpt lat="45.15177" lon="3.86269">
        <ele>848.5</ele>
        <time>2025-01-15T11:58:32Z</time>
      </trkpt>
      <trkpt lat="45.15157" lon="3.86277">
        <ele>852.83</ele>
        <time>2025-01-15T11:58:49Z</time>
      </trkpt>
      <trkpt lat="45.1514" lon="3.86279">
        <ele>853.79</ele>
        <time>2025-01-15T11:59:06Z</time>
      </trkpt>
      <trkpt lat="45.15132" lon="3.86279">
        <ele>853.31</ele>
        <time>2025-01-15T11:59:13Z</time>
      </trkpt>
      <trkpt lat="45.15113" lon="3.86277">
        <ele>854.75</ele>
        <time>2025-01-15T11:59:29Z</time>
      </trkpt>
      <trkpt lat="45.1509" lon="3.8627">
        <ele>856.19</ele>
        <time>2025-01-15T11:59:45Z</time>
      </trkpt>
      <trkpt lat="45.15062" lon="3.86266">
        <ele>861</ele>
        <time>2025-01-15T12:00:05Z</time>
      </trkpt>
      <trkpt lat="45.15042" lon="3.86269">
        <ele>862.92</ele>
        <time>2025-01-15T12:00:21Z</time>
      </trkpt>
      <trkpt lat="45.15026" lon="3.86286">
        <ele>870.13</ele>
        <time>2025-01-15T12:00:36Z</time>
      </trkpt>
      <trkpt lat="45.15023" lon="3.8631">
        <ele>873.98</ele>
        <time>2025-01-15T12:00:51Z</time>
      </trkpt>
      <trkpt lat="45.15025" lon="3.86337">
        <ele>880.22</ele>
        <time>2025-01-15T12:01:08Z</time>
      </trkpt>
      <trkpt lat="45.15028" lon="3.86364">
        <ele>883.59</ele>
        <time>2025-01-15T12:01:23Z</time>
      </trkpt>
      <trkpt lat="45.15028" lon="3.86366">
        <ele>883.59</ele>
        <time>2025-01-15T12:01:24Z</time>
      </trkpt>
      <trkpt lat="45.15028" lon="3.86368">
        <ele>883.59</ele>
        <time>2025-01-15T12:01:25Z</time>
      </trkpt>
      <trkpt lat="45.15029" lon="3.8637">
        <ele>883.59</ele>
        <time>2025-01-15T12:01:26Z</time>
      </trkpt>
      <trkpt lat="45.15029" lon="3.86372">
        <ele>884.07</ele>
        <time>2025-01-15T12:01:27Z</time>
      </trkpt>
      <trkpt lat="45.1503" lon="3.86373">
        <ele>884.07</ele>
        <time>2025-01-15T12:01:28Z</time>
      </trkpt>
      <trkpt lat="45.15031" lon="3.86375">
        <ele>884.07</ele>
        <time>2025-01-15T12:01:29Z</time>
      </trkpt>
      <trkpt lat="45.15039" lon="3.864">
        <ele>885.51</ele>
        <time>2025-01-15T12:01:44Z</time>
      </trkpt>
      <trkpt lat="45.15049" lon="3.8642">
        <ele>885.99</ele>
        <time>2025-01-15T12:01:58Z</time>
      </trkpt>
      <trkpt lat="45.15058" lon="3.86444">
        <ele>886.47</ele>
        <time>2025-01-15T12:02:13Z</time>
      </trkpt>
      <trkpt lat="45.15069" lon="3.86473">
        <ele>886.47</ele>
        <time>2025-01-15T12:02:30Z</time>
      </trkpt>
      <trkpt lat="45.15085" lon="3.86501">
        <ele>887.91</ele>
        <time>2025-01-15T12:02:48Z</time>
      </trkpt>
      <trkpt lat="45.15097" lon="3.86518">
        <ele>888.88</ele>
        <time>2025-01-15T12:03:02Z</time>
      </trkpt>
      <trkpt lat="45.15106" lon="3.86535">
        <ele>888.4</ele>
        <time>2025-01-15T12:03:15Z</time>
      </trkpt>
      <trkpt lat="45.1511" lon="3.86547">
        <ele>888.4</ele>
        <time>2025-01-15T12:03:21Z</time>
      </trkpt>
      <trkpt lat="45.1511" lon="3.86549">
        <ele>888.88</ele>
        <time>2025-01-15T12:03:22Z</time>
      </trkpt>
      <trkpt lat="45.15109" lon="3.86551">
        <ele>888.88</ele>
        <time>2025-01-15T12:03:23Z</time>
      </trkpt>
      <trkpt lat="45.1511" lon="3.86553">
        <ele>888.88</ele>
        <time>2025-01-15T12:03:24Z</time>
      </trkpt>
      <trkpt lat="45.1511" lon="3.86555">
        <ele>888.88</ele>
        <time>2025-01-15T12:03:25Z</time>
      </trkpt>
      <trkpt lat="45.1511" lon="3.86557">
        <ele>888.88</ele>
        <time>2025-01-15T12:03:26Z</time>
      </trkpt>
      <trkpt lat="45.1511" lon="3.86559">
        <ele>888.88</ele>
        <time>2025-01-15T12:03:27Z</time>
      </trkpt>
      <trkpt lat="45.15093" lon="3.86576">
        <ele>888.88</ele>
        <time>2025-01-15T12:03:42Z</time>
      </trkpt>
      <trkpt lat="45.15091" lon="3.86576">
        <ele>888.88</ele>
        <time>2025-01-15T12:03:44Z</time>
      </trkpt>
      <trkpt lat="45.1508" lon="3.8657">
        <ele>890.8</ele>
        <time>2025-01-15T12:03:57Z</time>
      </trkpt>
      <trkpt lat="45.15077" lon="3.86569">
        <ele>892.24</ele>
        <time>2025-01-15T12:04:09Z</time>
      </trkpt>
      <trkpt lat="45.15077" lon="3.86567">
        <ele>892.24</ele>
        <time>2025-01-15T12:04:22Z</time>
      </trkpt>
      <trkpt lat="45.15081" lon="3.86565">
        <ele>895.61</ele>
        <time>2025-01-15T12:04:40Z</time>
      </trkpt>
      <trkpt lat="45.15079" lon="3.86564">
        <ele>897.05</ele>
        <time>2025-01-15T12:04:54Z</time>
      </trkpt>
      <trkpt lat="45.15071" lon="3.8656">
        <ele>897.05</ele>
        <time>2025-01-15T12:05:05Z</time>
      </trkpt>
      <trkpt lat="45.1507" lon="3.8656">
        <ele>897.05</ele>
        <time>2025-01-15T12:05:06Z</time>
      </trkpt>
      <trkpt lat="45.15063" lon="3.8656">
        <ele>898.49</ele>
        <time>2025-01-15T12:05:20Z</time>
      </trkpt>
      <trkpt lat="45.15064" lon="3.8656">
        <ele>898.97</ele>
        <time>2025-01-15T12:05:33Z</time>
      </trkpt>
      <trkpt lat="45.15062" lon="3.86563">
        <ele>899.93</ele>
        <time>2025-01-15T12:05:43Z</time>
      </trkpt>
      <trkpt lat="45.15062" lon="3.86563">
        <ele>899.45</ele>
        <time>2025-01-15T12:05:53Z</time>
      </trkpt>
      <trkpt lat="45.15059" lon="3.86561">
        <ele>899.45</ele>
        <time>2025-01-15T12:06:18Z</time>
      </trkpt>
      <trkpt lat="45.15058" lon="3.8656">
        <ele>899.45</ele>
        <time>2025-01-15T12:06:47Z</time>
      </trkpt>
      <trkpt lat="45.15057" lon="3.8656">
        <ele>899.45</ele>
        <time>2025-01-15T12:07:23Z</time>
      </trkpt>
      <trkpt lat="45.15057" lon="3.8656">
        <ele>903.3</ele>
        <time>2025-01-15T12:08:00Z</time>
      </trkpt>
      <trkpt lat="45.1506" lon="3.86565">
        <ele>896.57</ele>
        <time>2025-01-15T12:08:36Z</time>
      </trkpt>
      <trkpt lat="45.15056" lon="3.86564">
        <ele>897.53</ele>
        <time>2025-01-15T12:09:18Z</time>
      </trkpt>
      <trkpt lat="45.15057" lon="3.86566">
        <ele>894.16</ele>
        <time>2025-01-15T12:09:50Z</time>
      </trkpt>
      <trkpt lat="45.15061" lon="3.86566">
        <ele>893.68</ele>
        <time>2025-01-15T12:10:16Z</time>
      </trkpt>
      <trkpt lat="45.15068" lon="3.86563">
        <ele>891.76</ele>
        <time>2025-01-15T12:10:51Z</time>
      </trkpt>
      <trkpt lat="45.15066" lon="3.86566">
        <ele>892.72</ele>
        <time>2025-01-15T12:11:23Z</time>
      </trkpt>
      <trkpt lat="45.15065" lon="3.86565">
        <ele>893.68</ele>
        <time>2025-01-15T12:12:00Z</time>
      </trkpt>
      <trkpt lat="45.15068" lon="3.86568">
        <ele>895.61</ele>
        <time>2025-01-15T12:12:26Z</time>
      </trkpt>
      <trkpt lat="45.15073" lon="3.86567">
        <ele>903.78</ele>
        <time>2025-01-15T12:12:56Z</time>
      </trkpt>
      <trkpt lat="45.1507" lon="3.86566">
        <ele>902.33</ele>
        <time>2025-01-15T12:13:18Z</time>
      </trkpt>
      <trkpt lat="45.15064" lon="3.86564">
        <ele>898.97</ele>
        <time>2025-01-15T12:13:43Z</time>
      </trkpt>
      <trkpt lat="45.15055" lon="3.86567">
        <ele>894.16</ele>
        <time>2025-01-15T12:14:18Z</time>
      </trkpt>
      <trkpt lat="45.15052" lon="3.86569">
        <ele>894.64</ele>
        <time>2025-01-15T12:14:52Z</time>
      </trkpt>
      <trkpt lat="45.15052" lon="3.86567">
        <ele>896.09</ele>
        <time>2025-01-15T12:15:43Z</time>
      </trkpt>
      <trkpt lat="45.15053" lon="3.86569">
        <ele>897.05</ele>
        <time>2025-01-15T12:16:24Z</time>
      </trkpt>
      <trkpt lat="45.15053" lon="3.86571">
        <ele>895.61</ele>
        <time>2025-01-15T12:17:00Z</time>
      </trkpt>
      <trkpt lat="45.15056" lon="3.86575">
        <ele>898.01</ele>
        <time>2025-01-15T12:17:41Z</time>
      </trkpt>
      <trkpt lat="45.15053" lon="3.86574">
        <ele>896.57</ele>
        <time>2025-01-15T12:18:16Z</time>
      </trkpt>
      <trkpt lat="45.15052" lon="3.86575">
        <ele>896.09</ele>
        <time>2025-01-15T12:18:58Z</time>
      </trkpt>
      <trkpt lat="45.15054" lon="3.8657">
        <ele>895.61</ele>
        <time>2025-01-15T12:19:41Z</time>
      </trkpt>
      <trkpt lat="45.15054" lon="3.86573">
        <ele>898.97</ele>
        <time>2025-01-15T12:20:22Z</time>
      </trkpt>
      <trkpt lat="45.15053" lon="3.86571">
        <ele>901.85</ele>
        <time>2025-01-15T12:21:05Z</time>
      </trkpt>
      <trkpt lat="45.15055" lon="3.86575">
        <ele>902.33</ele>
        <time>2025-01-15T12:21:43Z</time>
      </trkpt>
      <trkpt lat="45.15053" lon="3.86573">
        <ele>899.45</ele>
        <time>2025-01-15T12:22:30Z</time>
      </trkpt>
      <trkpt lat="45.15053" lon="3.86571">
        <ele>898.01</ele>
        <time>2025-01-15T12:23:10Z</time>
      </trkpt>
      <trkpt lat="45.15053" lon="3.86573">
        <ele>898.97</ele>
        <time>2025-01-15T12:23:45Z</time>
      </trkpt>
      <trkpt lat="45.15054" lon="3.86573">
        <ele>904.74</ele>
        <time>2025-01-15T12:24:29Z</time>
      </trkpt>
      <trkpt lat="45.1505" lon="3.86568">
        <ele>903.78</ele>
        <time>2025-01-15T12:25:02Z</time>
      </trkpt>
      <trkpt lat="45.1505" lon="3.86568">
        <ele>901.37</ele>
        <time>2025-01-15T12:25:34Z</time>
      </trkpt>
      <trkpt lat="45.1505" lon="3.86567">
        <ele>896.57</ele>
        <time>2025-01-15T12:26:11Z</time>
      </trkpt>
      <trkpt lat="45.15052" lon="3.86572">
        <ele>896.09</ele>
        <time>2025-01-15T12:26:46Z</time>
      </trkpt>
      <trkpt lat="45.15051" lon="3.86571">
        <ele>897.05</ele>
        <time>2025-01-15T12:27:20Z</time>
      </trkpt>
      <trkpt lat="45.15051" lon="3.8657">
        <ele>898.01</ele>
        <time>2025-01-15T12:27:50Z</time>
      </trkpt>
      <trkpt lat="45.15051" lon="3.8657">
        <ele>897.05</ele>
        <time>2025-01-15T12:28:18Z</time>
      </trkpt>
      <trkpt lat="45.15051" lon="3.86567">
        <ele>895.12</ele>
        <time>2025-01-15T12:28:53Z</time>
      </trkpt>
      <trkpt lat="45.1505" lon="3.86573">
        <ele>892.24</ele>
        <time>2025-01-15T12:29:32Z</time>
      </trkpt>
      <trkpt lat="45.15052" lon="3.86573">
        <ele>894.64</ele>
        <time>2025-01-15T12:30:08Z</time>
      </trkpt>
      <trkpt lat="45.15051" lon="3.86571">
        <ele>897.05</ele>
        <time>2025-01-15T12:30:42Z</time>
      </trkpt>
      <trkpt lat="45.15052" lon="3.86569">
        <ele>896.09</ele>
        <time>2025-01-15T12:31:17Z</time>
      </trkpt>
      <trkpt lat="45.15052" lon="3.86567">
        <ele>900.89</ele>
        <time>2025-01-15T12:31:47Z</time>
      </trkpt>
      <trkpt lat="45.1505" lon="3.86564">
        <ele>899.93</ele>
        <time>2025-01-15T12:32:18Z</time>
      </trkpt>
      <trkpt lat="45.15049" lon="3.86563">
        <ele>898.01</ele>
        <time>2025-01-15T12:32:38Z</time>
      </trkpt>
      <trkpt lat="45.15049" lon="3.86566">
        <ele>895.61</ele>
        <time>2025-01-15T12:33:10Z</time>
      </trkpt>
      <trkpt lat="45.15048" lon="3.86569">
        <ele>892.24</ele>
        <time>2025-01-15T12:33:45Z</time>
      </trkpt>
      <trkpt lat="45.15052" lon="3.86569">
        <ele>895.61</ele>
        <time>2025-01-15T12:34:17Z</time>
      </trkpt>
      <trkpt lat="45.15054" lon="3.86566">
        <ele>896.09</ele>
        <time>2025-01-15T12:34:50Z</time>
      </trkpt>
      <trkpt lat="45.15055" lon="3.86565">
        <ele>896.09</ele>
        <time>2025-01-15T12:35:10Z</time>
      </trkpt>
      <trkpt lat="45.15054" lon="3.86563">
        <ele>894.16</ele>
        <time>2025-01-15T12:35:44Z</time>
      </trkpt>
      <trkpt lat="45.15056" lon="3.86563">
        <ele>891.76</ele>
        <time>2025-01-15T12:36:03Z</time>
      </trkpt>
      <trkpt lat="45.15056" lon="3.86563">
        <ele>895.12</ele>
        <time>2025-01-15T12:36:19Z</time>
      </trkpt>
      <trkpt lat="45.15055" lon="3.86562">
        <ele>896.57</ele>
        <time>2025-01-15T12:36:37Z</time>
      </trkpt>
      <trkpt lat="45.15054" lon="3.86561">
        <ele>897.05</ele>
        <time>2025-01-15T12:36:59Z</time>
      </trkpt>
      <trkpt lat="45.15053" lon="3.8656">
        <ele>896.57</ele>
        <time>2025-01-15T12:37:21Z</time>
      </trkpt>
      <trkpt lat="45.15054" lon="3.86559">
        <ele>897.53</ele>
        <time>2025-01-15T12:37:44Z</time>
      </trkpt>
      <trkpt lat="45.15054" lon="3.8656">
        <ele>896.57</ele>
        <time>2025-01-15T12:38:07Z</time>
      </trkpt>
      <trkpt lat="45.15055" lon="3.86561">
        <ele>897.05</ele>
        <time>2025-01-15T12:38:21Z</time>
      </trkpt>
      <trkpt lat="45.15056" lon="3.86562">
        <ele>897.53</ele>
        <time>2025-01-15T12:38:35Z</time>
      </trkpt>
      <trkpt lat="45.15057" lon="3.8656">
        <ele>895.61</ele>
        <time>2025-01-15T12:38:49Z</time>
      </trkpt>
      <trkpt lat="45.15064" lon="3.86555">
        <ele>892.24</ele>
        <time>2025-01-15T12:38:59Z</time>
      </trkpt>
      <trkpt lat="45.15065" lon="3.86552">
        <ele>891.76</ele>
        <time>2025-01-15T12:39:09Z</time>
      </trkpt>
      <trkpt lat="45.15063" lon="3.86551">
        <ele>891.28</ele>
        <time>2025-01-15T12:39:12Z</time>
      </trkpt>
      <trkpt lat="45.15053" lon="3.86537">
        <ele>893.68</ele>
        <time>2025-01-15T12:39:28Z</time>
      </trkpt>
      <trkpt lat="45.15045" lon="3.86526">
        <ele>894.16</ele>
        <time>2025-01-15T12:39:41Z</time>
      </trkpt>
      <trkpt lat="45.15034" lon="3.86511">
        <ele>896.57</ele>
        <time>2025-01-15T12:39:58Z</time>
      </trkpt>
      <trkpt lat="45.1502" lon="3.86498">
        <ele>899.93</ele>
        <time>2025-01-15T12:40:15Z</time>
      </trkpt>
      <trkpt lat="45.15008" lon="3.8649">
        <ele>905.22</ele>
        <time>2025-01-15T12:40:31Z</time>
      </trkpt>
      <trkpt lat="45.14997" lon="3.86478">
        <ele>909.06</ele>
        <time>2025-01-15T12:40:48Z</time>
      </trkpt>
      <trkpt lat="45.14987" lon="3.8646">
        <ele>910.99</ele>
        <time>2025-01-15T12:41:03Z</time>
      </trkpt>
      <trkpt lat="45.14976" lon="3.86435">
        <ele>915.31</ele>
        <time>2025-01-15T12:41:22Z</time>
      </trkpt>
      <trkpt lat="45.14967" lon="3.86417">
        <ele>915.79</ele>
        <time>2025-01-15T12:41:37Z</time>
      </trkpt>
      <trkpt lat="45.14955" lon="3.86403">
        <ele>916.75</ele>
        <time>2025-01-15T12:41:53Z</time>
      </trkpt>
      <trkpt lat="45.14929" lon="3.86385">
        <ele>915.79</ele>
        <time>2025-01-15T12:42:12Z</time>
      </trkpt>
      <trkpt lat="45.14919" lon="3.86377">
        <ele>914.83</ele>
        <time>2025-01-15T12:42:22Z</time>
      </trkpt>
      <trkpt lat="45.14909" lon="3.86373">
        <ele>915.31</ele>
        <time>2025-01-15T12:42:33Z</time>
      </trkpt>
      <trkpt lat="45.14894" lon="3.86364">
        <ele>913.39</ele>
        <time>2025-01-15T12:42:49Z</time>
      </trkpt>
      <trkpt lat="45.14879" lon="3.86356">
        <ele>912.91</ele>
        <time>2025-01-15T12:43:05Z</time>
      </trkpt>
      <trkpt lat="45.14872" lon="3.86343">
        <ele>916.27</ele>
        <time>2025-01-15T12:43:19Z</time>
      </trkpt>
      <trkpt lat="45.14862" lon="3.86327">
        <ele>917.72</ele>
        <time>2025-01-15T12:43:34Z</time>
      </trkpt>
      <trkpt lat="45.14859" lon="3.86318">
        <ele>919.16</ele>
        <time>2025-01-15T12:43:40Z</time>
      </trkpt>
      <trkpt lat="45.1485" lon="3.86297">
        <ele>921.56</ele>
        <time>2025-01-15T12:43:55Z</time>
      </trkpt>
      <trkpt lat="45.14844" lon="3.86274">
        <ele>923.96</ele>
        <time>2025-01-15T12:44:12Z</time>
      </trkpt>
      <trkpt lat="45.14844" lon="3.86272">
        <ele>923.96</ele>
        <time>2025-01-15T12:44:13Z</time>
      </trkpt>
      <trkpt lat="45.14844" lon="3.86271">
        <ele>923.96</ele>
        <time>2025-01-15T12:44:14Z</time>
      </trkpt>
      <trkpt lat="45.14842" lon="3.86263">
        <ele>923.96</ele>
        <time>2025-01-15T12:44:19Z</time>
      </trkpt>
      <trkpt lat="45.14844" lon="3.86245">
        <ele>925.89</ele>
        <time>2025-01-15T12:44:31Z</time>
      </trkpt>
      <trkpt lat="45.14843" lon="3.86243">
        <ele>925.89</ele>
        <time>2025-01-15T12:44:32Z</time>
      </trkpt>
      <trkpt lat="45.14847" lon="3.86219">
        <ele>929.73</ele>
        <time>2025-01-15T12:44:50Z</time>
      </trkpt>
      <trkpt lat="45.14847" lon="3.862">
        <ele>934.06</ele>
        <time>2025-01-15T12:45:04Z</time>
      </trkpt>
      <trkpt lat="45.14848" lon="3.86198">
        <ele>934.06</ele>
        <time>2025-01-15T12:45:06Z</time>
      </trkpt>
      <trkpt lat="45.14858" lon="3.86179">
        <ele>935.98</ele>
        <time>2025-01-15T12:45:20Z</time>
      </trkpt>
      <trkpt lat="45.14861" lon="3.86175">
        <ele>936.46</ele>
        <time>2025-01-15T12:45:24Z</time>
      </trkpt>
      <trkpt lat="45.14877" lon="3.86155">
        <ele>937.42</ele>
        <time>2025-01-15T12:45:42Z</time>
      </trkpt>
      <trkpt lat="45.1489" lon="3.86135">
        <ele>935.02</ele>
        <time>2025-01-15T12:45:58Z</time>
      </trkpt>
      <trkpt lat="45.14897" lon="3.86117">
        <ele>935.02</ele>
        <time>2025-01-15T12:46:12Z</time>
      </trkpt>
      <trkpt lat="45.14898" lon="3.86116">
        <ele>935.02</ele>
        <time>2025-01-15T12:46:13Z</time>
      </trkpt>
      <trkpt lat="45.149" lon="3.86094">
        <ele>937.42</ele>
        <time>2025-01-15T12:46:29Z</time>
      </trkpt>
      <trkpt lat="45.14892" lon="3.86073">
        <ele>938.86</ele>
        <time>2025-01-15T12:46:45Z</time>
      </trkpt>
      <trkpt lat="45.14877" lon="3.86056">
        <ele>940.31</ele>
        <time>2025-01-15T12:47:05Z</time>
      </trkpt>
      <trkpt lat="45.1486" lon="3.86048">
        <ele>941.75</ele>
        <time>2025-01-15T12:47:24Z</time>
      </trkpt>
      <trkpt lat="45.14841" lon="3.86042">
        <ele>942.23</ele>
        <time>2025-01-15T12:47:44Z</time>
      </trkpt>
      <trkpt lat="45.14822" lon="3.86032">
        <ele>944.63</ele>
        <time>2025-01-15T12:48:08Z</time>
      </trkpt>
      <trkpt lat="45.14806" lon="3.86015">
        <ele>948.96</ele>
        <time>2025-01-15T12:48:27Z</time>
      </trkpt>
      <trkpt lat="45.14792" lon="3.8599">
        <ele>957.13</ele>
        <time>2025-01-15T12:48:43Z</time>
      </trkpt>
      <trkpt lat="45.14783" lon="3.85968">
        <ele>961.94</ele>
        <time>2025-01-15T12:49:00Z</time>
      </trkpt>
      <trkpt lat="45.14779" lon="3.85944">
        <ele>965.3</ele>
        <time>2025-01-15T12:49:16Z</time>
      </trkpt>
      <trkpt lat="45.14769" lon="3.85919">
        <ele>969.63</ele>
        <time>2025-01-15T12:49:33Z</time>
      </trkpt>
      <trkpt lat="45.1476" lon="3.85894">
        <ele>971.07</ele>
        <time>2025-01-15T12:49:51Z</time>
      </trkpt>
      <trkpt lat="45.14752" lon="3.85873">
        <ele>973.95</ele>
        <time>2025-01-15T12:50:06Z</time>
      </trkpt>
      <trkpt lat="45.14748" lon="3.85849">
        <ele>974.91</ele>
        <time>2025-01-15T12:50:22Z</time>
      </trkpt>
      <trkpt lat="45.14741" lon="3.85823">
        <ele>975.39</ele>
        <time>2025-01-15T12:50:39Z</time>
      </trkpt>
      <trkpt lat="45.14735" lon="3.858">
        <ele>976.36</ele>
        <time>2025-01-15T12:50:56Z</time>
      </trkpt>
      <trkpt lat="45.14738" lon="3.85778">
        <ele>981.64</ele>
        <time>2025-01-15T12:51:10Z</time>
      </trkpt>
      <trkpt lat="45.14745" lon="3.85745">
        <ele>979.72</ele>
        <time>2025-01-15T12:51:27Z</time>
      </trkpt>
      <trkpt lat="45.14748" lon="3.85737">
        <ele>979.24</ele>
        <time>2025-01-15T12:51:32Z</time>
      </trkpt>
      <trkpt lat="45.14765" lon="3.85706">
        <ele>971.07</ele>
        <time>2025-01-15T12:51:49Z</time>
      </trkpt>
      <trkpt lat="45.14766" lon="3.85705">
        <ele>971.07</ele>
        <time>2025-01-15T12:51:50Z</time>
      </trkpt>
      <trkpt lat="45.14767" lon="3.85704">
        <ele>970.59</ele>
        <time>2025-01-15T12:51:51Z</time>
      </trkpt>
      <trkpt lat="45.14779" lon="3.85689">
        <ele>967.22</ele>
        <time>2025-01-15T12:52:03Z</time>
      </trkpt>
      <trkpt lat="45.1478" lon="3.85688">
        <ele>967.22</ele>
        <time>2025-01-15T12:52:04Z</time>
      </trkpt>
      <trkpt lat="45.1478" lon="3.85686">
        <ele>966.74</ele>
        <time>2025-01-15T12:52:05Z</time>
      </trkpt>
      <trkpt lat="45.14781" lon="3.85685">
        <ele>966.74</ele>
        <time>2025-01-15T12:52:06Z</time>
      </trkpt>
      <trkpt lat="45.14782" lon="3.85683">
        <ele>966.26</ele>
        <time>2025-01-15T12:52:07Z</time>
      </trkpt>
      <trkpt lat="45.14783" lon="3.85682">
        <ele>965.78</ele>
        <time>2025-01-15T12:52:08Z</time>
      </trkpt>
      <trkpt lat="45.14783" lon="3.85681">
        <ele>965.78</ele>
        <time>2025-01-15T12:52:09Z</time>
      </trkpt>
      <trkpt lat="45.14784" lon="3.8568">
        <ele>965.78</ele>
        <time>2025-01-15T12:52:10Z</time>
      </trkpt>
      <trkpt lat="45.14784" lon="3.85678">
        <ele>965.3</ele>
        <time>2025-01-15T12:52:11Z</time>
      </trkpt>
      <trkpt lat="45.14784" lon="3.85676">
        <ele>965.3</ele>
        <time>2025-01-15T12:52:12Z</time>
      </trkpt>
      <trkpt lat="45.14784" lon="3.85675">
        <ele>965.3</ele>
        <time>2025-01-15T12:52:13Z</time>
      </trkpt>
      <trkpt lat="45.14786" lon="3.85657">
        <ele>963.86</ele>
        <time>2025-01-15T12:52:24Z</time>
      </trkpt>
      <trkpt lat="45.14781" lon="3.85629">
        <ele>958.09</ele>
        <time>2025-01-15T12:52:42Z</time>
      </trkpt>
      <trkpt lat="45.14768" lon="3.85602">
        <ele>955.21</ele>
        <time>2025-01-15T12:52:59Z</time>
      </trkpt>
      <trkpt lat="45.14757" lon="3.85587">
        <ele>952.8</ele>
        <time>2025-01-15T12:53:15Z</time>
      </trkpt>
      <trkpt lat="45.14745" lon="3.85575">
        <ele>952.8</ele>
        <time>2025-01-15T12:53:31Z</time>
      </trkpt>
      <trkpt lat="45.14746" lon="3.85572">
        <ele>952.8</ele>
        <time>2025-01-15T12:53:46Z</time>
      </trkpt>
      <trkpt lat="45.14746" lon="3.85572">
        <ele>952.8</ele>
        <time>2025-01-15T12:53:59Z</time>
      </trkpt>
      <trkpt lat="45.14745" lon="3.8557">
        <ele>951.84</ele>
        <time>2025-01-15T12:54:24Z</time>
      </trkpt>
      <trkpt lat="45.14743" lon="3.8557">
        <ele>951.36</ele>
        <time>2025-01-15T12:54:36Z</time>
      </trkpt>
      <trkpt lat="45.14743" lon="3.85574">
        <ele>951.84</ele>
        <time>2025-01-15T12:54:40Z</time>
      </trkpt>
      <trkpt lat="45.14743" lon="3.85575">
        <ele>952.32</ele>
        <time>2025-01-15T12:54:41Z</time>
      </trkpt>
      <trkpt lat="45.14747" lon="3.85585">
        <ele>954.73</ele>
        <time>2025-01-15T12:54:50Z</time>
      </trkpt>
      <trkpt lat="45.1476" lon="3.85603">
        <ele>958.09</ele>
        <time>2025-01-15T12:55:08Z</time>
      </trkpt>
      <trkpt lat="45.14765" lon="3.85627">
        <ele>960.01</ele>
        <time>2025-01-15T12:55:24Z</time>
      </trkpt>
      <trkpt lat="45.14762" lon="3.85656">
        <ele>962.9</ele>
        <time>2025-01-15T12:55:42Z</time>
      </trkpt>
      <trkpt lat="45.14757" lon="3.85675">
        <ele>964.82</ele>
        <time>2025-01-15T12:55:57Z</time>
      </trkpt>
      <trkpt lat="45.14756" lon="3.85676">
        <ele>964.82</ele>
        <time>2025-01-15T12:55:58Z</time>
      </trkpt>
      <trkpt lat="45.14746" lon="3.85692">
        <ele>966.26</ele>
        <time>2025-01-15T12:56:13Z</time>
      </trkpt>
      <trkpt lat="45.14742" lon="3.85704">
        <ele>968.67</ele>
        <time>2025-01-15T12:56:29Z</time>
      </trkpt>
      <trkpt lat="45.14734" lon="3.85721">
        <ele>970.11</ele>
        <time>2025-01-15T12:56:45Z</time>
      </trkpt>
      <trkpt lat="45.1473" lon="3.85737">
        <ele>972.03</ele>
        <time>2025-01-15T12:56:59Z</time>
      </trkpt>
      <trkpt lat="45.14723" lon="3.85748">
        <ele>969.8</ele>
      </trkpt>
      <trkpt lat="45.14692" lon="3.8577">
        <ele>978.9</ele>
      </trkpt>
      <trkpt lat="45.14676" lon="3.85775">
        <ele>982.7</ele>
      </trkpt>
      <trkpt lat="45.14657" lon="3.85792">
        <ele>988.9</ele>
      </trkpt>
      <trkpt lat="45.14634" lon="3.85796">
        <ele>991.6</ele>
      </trkpt>
      <trkpt lat="45.14597" lon="3.85808">
        <ele>996</ele>
      </trkpt>
      <trkpt lat="45.14575" lon="3.85818">
        <ele>998.4</ele>
      </trkpt>
      <trkpt lat="45.1455" lon="3.85839">
        <ele>1002</ele>
      </trkpt>
      <trkpt lat="45.14532" lon="3.85871">
        <ele>1007.5</ele>
      </trkpt>
      <trkpt lat="45.14524" lon="3.85891">
        <ele>1010.2</ele>
      </trkpt>
      <trkpt lat="45.14522" lon="3.85929">
        <ele>1016.5</ele>
      </trkpt>
      <trkpt lat="45.14517" lon="3.85949">
        <ele>1020</ele>
      </trkpt>
      <trkpt lat="45.14514" lon="3.85968">
        <ele>1022</ele>
      </trkpt>
      <trkpt lat="45.14513" lon="3.85988">
        <ele>1025.2</ele>
      </trkpt>
      <trkpt lat="45.14515" lon="3.86003">
        <ele>1028.2</ele>
      </trkpt>
      <trkpt lat="45.14535" lon="3.86067">
        <ele>1038.8</ele>
      </trkpt>
      <trkpt lat="45.14543" lon="3.86106">
        <ele>1041.5</ele>
      </trkpt>
      <trkpt lat="45.14545" lon="3.86114">
        <ele>1041.9</ele>
      </trkpt>
      <trkpt lat="45.14559" lon="3.86133">
        <ele>1043.1</ele>
      </trkpt>
      <trkpt lat="45.14603" lon="3.86162">
        <ele>1041.4</ele>
      </trkpt>
      <trkpt lat="45.14605" lon="3.86169">
        <ele>1041.1</ele>
      </trkpt>
      <trkpt lat="45.14576" lon="3.86228">
        <ele>1044.9</ele>
      </trkpt>
      <trkpt lat="45.14562" lon="3.86272">
        <ele>1049.3</ele>
      </trkpt>
      <trkpt lat="45.14556" lon="3.86285">
        <ele>1050.8</ele>
      </trkpt>
      <trkpt lat="45.1452" lon="3.8632">
        <ele>1052.9</ele>
      </trkpt>
      <trkpt lat="45.14499" lon="3.86347">
        <ele>1053.9</ele>
      </trkpt>
      <trkpt lat="45.14495" lon="3.86379">
        <ele>1057.3</ele>
      </trkpt>
      <trkpt lat="45.14499" lon="3.86421">
        <ele>1060.9</ele>
      </trkpt>
      <trkpt lat="45.14492" lon="3.86478">
        <ele>1059.1</ele>
      </trkpt>
      <trkpt lat="45.14497" lon="3.86489">
        <ele>1058.7</ele>
      </trkpt>
      <trkpt lat="45.14504" lon="3.86494">
        <ele>1058</ele>
      </trkpt>
      <trkpt lat="45.14516" lon="3.86497">
        <ele>1056.2</ele>
      </trkpt>
      <trkpt lat="45.14576" lon="3.86481">
        <ele>1052.3</ele>
      </trkpt>
      <trkpt lat="45.14592" lon="3.8649">
        <ele>1047.4</ele>
      </trkpt>
      <trkpt lat="45.14594" lon="3.86503">
        <ele>1043.6</ele>
      </trkpt>
      <trkpt lat="45.14589" lon="3.8652">
        <ele>1039.4</ele>
      </trkpt>
      <trkpt lat="45.1458" lon="3.86529">
        <ele>1038</ele>
      </trkpt>
      <trkpt lat="45.1456" lon="3.8655">
        <ele>1034</ele>
      </trkpt>
      <trkpt lat="45.1456" lon="3.86557">
        <ele>1031.8</ele>
      </trkpt>
      <trkpt lat="45.14566" lon="3.86563">
        <ele>1028.8</ele>
      </trkpt>
      <trkpt lat="45.14662" lon="3.86606">
        <ele>1006</ele>
      </trkpt>
      <trkpt lat="45.147" lon="3.8661">
        <ele>997.2</ele>
      </trkpt>
      <trkpt lat="45.14698" lon="3.86615">
        <ele>996.9</ele>
      </trkpt>
      <trkpt lat="45.14685" lon="3.86652">
        <ele>990.6</ele>
      </trkpt>
      <trkpt lat="45.14683" lon="3.86654">
        <ele>990.2</ele>
      </trkpt>
      <trkpt lat="45.14674" lon="3.86667">
        <ele>990.78</ele>
        <time>2025-01-15T13:09:16Z</time>
      </trkpt>
      <trkpt lat="45.14659" lon="3.86669">
        <ele>989.33</ele>
        <time>2025-01-15T13:09:29Z</time>
      </trkpt>
      <trkpt lat="45.14645" lon="3.86673">
        <ele>990.3</ele>
        <time>2025-01-15T13:09:43Z</time>
      </trkpt>
      <trkpt lat="45.1463" lon="3.86677">
        <ele>995.58</ele>
        <time>2025-01-15T13:10:00Z</time>
      </trkpt>
      <trkpt lat="45.14615" lon="3.86683">
        <ele>998.95</ele>
        <time>2025-01-15T13:10:13Z</time>
      </trkpt>
      <trkpt lat="45.14598" lon="3.86692">
        <ele>1000.87</ele>
        <time>2025-01-15T13:10:27Z</time>
      </trkpt>
      <trkpt lat="45.14588" lon="3.867">
        <ele>997.02</ele>
        <time>2025-01-15T13:10:39Z</time>
      </trkpt>
      <trkpt lat="45.14579" lon="3.8671">
        <ele>991.26</ele>
        <time>2025-01-15T13:10:54Z</time>
      </trkpt>
      <trkpt lat="45.14569" lon="3.86717">
        <ele>985.97</ele>
        <time>2025-01-15T13:11:07Z</time>
      </trkpt>
      <trkpt lat="45.14555" lon="3.86727">
        <ele>983.57</ele>
        <time>2025-01-15T13:11:22Z</time>
      </trkpt>
      <trkpt lat="45.14543" lon="3.86737">
        <ele>979.72</ele>
        <time>2025-01-15T13:11:36Z</time>
      </trkpt>
      <trkpt lat="45.14528" lon="3.86748">
        <ele>979.72</ele>
        <time>2025-01-15T13:11:52Z</time>
      </trkpt>
      <trkpt lat="45.14516" lon="3.86758">
        <ele>980.68</ele>
        <time>2025-01-15T13:12:06Z</time>
      </trkpt>
      <trkpt lat="45.14502" lon="3.86766">
        <ele>981.16</ele>
        <time>2025-01-15T13:12:21Z</time>
      </trkpt>
      <trkpt lat="45.14481" lon="3.86776">
        <ele>987.41</ele>
        <time>2025-01-15T13:12:39Z</time>
      </trkpt>
      <trkpt lat="45.14466" lon="3.86781">
        <ele>991.26</ele>
        <time>2025-01-15T13:12:53Z</time>
      </trkpt>
      <trkpt lat="45.1446" lon="3.86781">
        <ele>991.74</ele>
        <time>2025-01-15T13:12:57Z</time>
      </trkpt>
      <trkpt lat="45.14439" lon="3.86783">
        <ele>993.18</ele>
        <time>2025-01-15T13:13:11Z</time>
      </trkpt>
      <trkpt lat="45.14423" lon="3.8678">
        <ele>991.74</ele>
        <time>2025-01-15T13:13:25Z</time>
      </trkpt>
      <trkpt lat="45.14409" lon="3.86777">
        <ele>993.18</ele>
        <time>2025-01-15T13:13:40Z</time>
      </trkpt>
      <trkpt lat="45.14385" lon="3.86774">
        <ele>994.62</ele>
        <time>2025-01-15T13:13:57Z</time>
      </trkpt>
      <trkpt lat="45.14365" lon="3.8677">
        <ele>995.58</ele>
        <time>2025-01-15T13:14:12Z</time>
      </trkpt>
      <trkpt lat="45.14353" lon="3.86772">
        <ele>997.51</ele>
        <time>2025-01-15T13:14:24Z</time>
      </trkpt>
      <trkpt lat="45.14336" lon="3.86768">
        <ele>996.54</ele>
        <time>2025-01-15T13:14:39Z</time>
      </trkpt>
      <trkpt lat="45.14321" lon="3.8677">
        <ele>996.06</ele>
        <time>2025-01-15T13:14:53Z</time>
      </trkpt>
      <trkpt lat="45.14302" lon="3.86767">
        <ele>996.54</ele>
        <time>2025-01-15T13:15:09Z</time>
      </trkpt>
      <trkpt lat="45.14291" lon="3.86769">
        <ele>994.62</ele>
        <time>2025-01-15T13:15:22Z</time>
      </trkpt>
      <trkpt lat="45.14277" lon="3.86769">
        <ele>991.74</ele>
        <time>2025-01-15T13:15:36Z</time>
      </trkpt>
      <trkpt lat="45.1426" lon="3.86764">
        <ele>989.33</ele>
        <time>2025-01-15T13:15:49Z</time>
      </trkpt>
      <trkpt lat="45.14248" lon="3.86755">
        <ele>985.49</ele>
        <time>2025-01-15T13:16:03Z</time>
      </trkpt>
      <trkpt lat="45.14236" lon="3.86749">
        <ele>983.57</ele>
        <time>2025-01-15T13:16:19Z</time>
      </trkpt>
      <trkpt lat="45.14224" lon="3.86742">
        <ele>981.64</ele>
        <time>2025-01-15T13:16:32Z</time>
      </trkpt>
      <trkpt lat="45.14208" lon="3.86726">
        <ele>980.2</ele>
        <time>2025-01-15T13:16:49Z</time>
      </trkpt>
      <trkpt lat="45.14194" lon="3.8671">
        <ele>978.76</ele>
        <time>2025-01-15T13:17:04Z</time>
      </trkpt>
      <trkpt lat="45.1418" lon="3.86699">
        <ele>979.72</ele>
        <time>2025-01-15T13:17:20Z</time>
      </trkpt>
      <trkpt lat="45.14163" lon="3.86694">
        <ele>978.28</ele>
        <time>2025-01-15T13:17:37Z</time>
      </trkpt>
      <trkpt lat="45.14149" lon="3.86688">
        <ele>979.72</ele>
        <time>2025-01-15T13:17:53Z</time>
      </trkpt>
      <trkpt lat="45.14135" lon="3.86676">
        <ele>973.95</ele>
        <time>2025-01-15T13:18:09Z</time>
      </trkpt>
      <trkpt lat="45.14117" lon="3.86667">
        <ele>968.18</ele>
        <time>2025-01-15T13:18:28Z</time>
      </trkpt>
      <trkpt lat="45.14105" lon="3.86671">
        <ele>964.82</ele>
        <time>2025-01-15T13:18:44Z</time>
      </trkpt>
      <trkpt lat="45.14092" lon="3.86672">
        <ele>961.94</ele>
        <time>2025-01-15T13:18:59Z</time>
      </trkpt>
      <trkpt lat="45.14076" lon="3.86675">
        <ele>958.09</ele>
        <time>2025-01-15T13:19:14Z</time>
      </trkpt>
      <trkpt lat="45.14064" lon="3.86678">
        <ele>954.73</ele>
        <time>2025-01-15T13:19:27Z</time>
      </trkpt>
      <trkpt lat="45.14047" lon="3.86681">
        <ele>953.28</ele>
        <time>2025-01-15T13:19:43Z</time>
      </trkpt>
      <trkpt lat="45.14042" lon="3.86681">
        <ele>953.28</ele>
        <time>2025-01-15T13:19:47Z</time>
      </trkpt>
      <trkpt lat="45.14026" lon="3.86686">
        <ele>951.84</ele>
        <time>2025-01-15T13:20:02Z</time>
      </trkpt>
      <trkpt lat="45.14012" lon="3.8669">
        <ele>950.4</ele>
        <time>2025-01-15T13:20:17Z</time>
      </trkpt>
      <trkpt lat="45.13999" lon="3.86693">
        <ele>949.92</ele>
        <time>2025-01-15T13:20:32Z</time>
      </trkpt>
      <trkpt lat="45.13987" lon="3.86696">
        <ele>950.4</ele>
        <time>2025-01-15T13:20:48Z</time>
      </trkpt>
      <trkpt lat="45.13983" lon="3.86697">
        <ele>949.44</ele>
        <time>2025-01-15T13:21:07Z</time>
      </trkpt>
      <trkpt lat="45.13984" lon="3.86694">
        <ele>950.4</ele>
        <time>2025-01-15T13:21:31Z</time>
      </trkpt>
      <trkpt lat="45.13983" lon="3.86694">
        <ele>950.4</ele>
        <time>2025-01-15T13:22:01Z</time>
      </trkpt>
      <trkpt lat="45.13983" lon="3.86695">
        <ele>950.88</ele>
        <time>2025-01-15T13:22:21Z</time>
      </trkpt>
      <trkpt lat="45.13981" lon="3.86698">
        <ele>951.36</ele>
        <time>2025-01-15T13:22:40Z</time>
      </trkpt>
      <trkpt lat="45.13977" lon="3.86703">
        <ele>950.4</ele>
        <time>2025-01-15T13:22:56Z</time>
      </trkpt>
      <trkpt lat="45.13971" lon="3.86705">
        <ele>949.44</ele>
        <time>2025-01-15T13:23:10Z</time>
      </trkpt>
      <trkpt lat="45.13963" lon="3.86709">
        <ele>946.07</ele>
        <time>2025-01-15T13:23:23Z</time>
      </trkpt>
      <trkpt lat="45.13958" lon="3.86712">
        <ele>944.15</ele>
        <time>2025-01-15T13:23:34Z</time>
      </trkpt>
      <trkpt lat="45.13955" lon="3.86717">
        <ele>943.67</ele>
        <time>2025-01-15T13:23:46Z</time>
      </trkpt>
      <trkpt lat="45.13953" lon="3.86719">
        <ele>943.19</ele>
        <time>2025-01-15T13:23:58Z</time>
      </trkpt>
      <trkpt lat="45.13949" lon="3.86721">
        <ele>942.71</ele>
        <time>2025-01-15T13:24:12Z</time>
      </trkpt>
      <trkpt lat="45.13946" lon="3.86723">
        <ele>940.31</ele>
        <time>2025-01-15T13:24:26Z</time>
      </trkpt>
      <trkpt lat="45.13944" lon="3.86725">
        <ele>940.31</ele>
        <time>2025-01-15T13:24:38Z</time>
      </trkpt>
      <trkpt lat="45.13939" lon="3.8673">
        <ele>939.83</ele>
        <time>2025-01-15T13:24:51Z</time>
      </trkpt>
      <trkpt lat="45.13934" lon="3.86733">
        <ele>938.38</ele>
        <time>2025-01-15T13:25:03Z</time>
      </trkpt>
      <trkpt lat="45.13902" lon="3.86761">
        <ele>929</ele>
      </trkpt>
      <trkpt lat="45.13874" lon="3.86798">
        <ele>923.1</ele>
      </trkpt>
      <trkpt lat="45.13858" lon="3.86792">
        <ele>923.8</ele>
      </trkpt>
      <trkpt lat="45.13845" lon="3.86782">
        <ele>924.4</ele>
      </trkpt>
      <trkpt lat="45.13786" lon="3.8672">
        <ele>924.1</ele>
      </trkpt>
      <trkpt lat="45.13712" lon="3.86666">
        <ele>923.3</ele>
      </trkpt>
      <trkpt lat="45.13694" lon="3.86658">
        <ele>922.6</ele>
      </trkpt>
      <trkpt lat="45.13646" lon="3.86647">
        <ele>922.2</ele>
      </trkpt>
      <trkpt lat="45.13633" lon="3.86642">
        <ele>921.6</ele>
      </trkpt>
      <trkpt lat="45.1346" lon="3.86575">
        <ele>906.3</ele>
      </trkpt>
      <trkpt lat="45.13403" lon="3.86545">
        <ele>902.6</ele>
      </trkpt>
      <trkpt lat="45.13382" lon="3.86546">
        <ele>901.3</ele>
      </trkpt>
      <trkpt lat="45.13382" lon="3.86546">
        <ele>901.3</ele>
      </trkpt>
      <trkpt lat="45.1336" lon="3.86552">
        <ele>899.6</ele>
      </trkpt>
      <trkpt lat="45.13339" lon="3.86572">
        <ele>898.5</ele>
      </trkpt>
      <trkpt lat="45.13333" lon="3.86572">
        <ele>897.8</ele>
      </trkpt>
      <trkpt lat="45.13328" lon="3.86566">
        <ele>896.7</ele>
      </trkpt>
      <trkpt lat="45.1332" lon="3.86582">
        <ele>897.9</ele>
      </trkpt>
      <trkpt lat="45.13303" lon="3.86625">
        <ele>898.8</ele>
      </trkpt>
      <trkpt lat="45.133" lon="3.86633">
        <ele>899.1</ele>
      </trkpt>
      <trkpt lat="45.13297" lon="3.86659">
        <ele>900.6</ele>
      </trkpt>
      <trkpt lat="45.13297" lon="3.86677">
        <ele>901.1</ele>
      </trkpt>
      <trkpt lat="45.133" lon="3.86694">
        <ele>901.4</ele>
      </trkpt>
      <trkpt lat="45.13302" lon="3.86698">
        <ele>901.5</ele>
      </trkpt>
      <trkpt lat="45.13305" lon="3.86706">
        <ele>901.5</ele>
      </trkpt>
      <trkpt lat="45.13344" lon="3.86703">
        <ele>904.8</ele>
      </trkpt>
      <trkpt lat="45.13349" lon="3.86702">
        <ele>905.4</ele>
      </trkpt>
      <trkpt lat="45.13384" lon="3.86708">
        <ele>906.5</ele>
      </trkpt>
      <trkpt lat="45.13403" lon="3.86707">
        <ele>906.5</ele>
      </trkpt>
      <trkpt lat="45.13409" lon="3.86711">
        <ele>906.4</ele>
      </trkpt>
      <trkpt lat="45.13411" lon="3.86712">
        <ele>906.4</ele>
      </trkpt>
      <trkpt lat="45.13416" lon="3.86792">
        <ele>900.4</ele>
      </trkpt>
      <trkpt lat="45.13417" lon="3.86797">
        <ele>900</ele>
      </trkpt>
      <trkpt lat="45.13431" lon="3.86824">
        <ele>899.9</ele>
      </trkpt>
      <trkpt lat="45.13434" lon="3.86842">
        <ele>899.8</ele>
      </trkpt>
      <trkpt lat="45.1343" lon="3.86861">
        <ele>898.9</ele>
      </trkpt>
      <trkpt lat="45.1343" lon="3.86876">
        <ele>898.7</ele>
      </trkpt>
      <trkpt lat="45.13433" lon="3.86895">
        <ele>898.5</ele>
      </trkpt>
      <trkpt lat="45.1344" lon="3.86914">
        <ele>898</ele>
      </trkpt>
      <trkpt lat="45.13446" lon="3.86949">
        <ele>897.1</ele>
      </trkpt>
      <trkpt lat="45.13449" lon="3.86994">
        <ele>897.2</ele>
      </trkpt>
      <trkpt lat="45.1346" lon="3.87082">
        <ele>897.1</ele>
      </trkpt>
      <trkpt lat="45.13463" lon="3.87111">
        <ele>897</ele>
      </trkpt>
      <trkpt lat="45.13481" lon="3.87182">
        <ele>895.8</ele>
      </trkpt>
      <trkpt lat="45.13497" lon="3.87258">
        <ele>893.6</ele>
      </trkpt>
      <trkpt lat="45.13497" lon="3.8729">
        <ele>892.3</ele>
      </trkpt>
      <trkpt lat="45.13501" lon="3.87284">
        <ele>892.8</ele>
      </trkpt>
      <trkpt lat="45.13497" lon="3.8729">
        <ele>892.3</ele>
      </trkpt>
      <trkpt lat="45.13485" lon="3.87316">
        <ele>890.2</ele>
      </trkpt>
      <trkpt lat="45.13458" lon="3.8737">
        <ele>885.8</ele>
      </trkpt>
      <trkpt lat="45.13451" lon="3.87378">
        <ele>885.1</ele>
      </trkpt>
      <trkpt lat="45.13448" lon="3.87374">
        <ele>884.8</ele>
      </trkpt>
      <trkpt lat="45.13444" lon="3.87372">
        <ele>887.43</ele>
        <time>2025-01-15T13:36:18Z</time>
      </trkpt>
      <trkpt lat="45.13425" lon="3.87363">
        <ele>884.55</ele>
        <time>2025-01-15T13:36:33Z</time>
      </trkpt>
      <trkpt lat="45.13401" lon="3.87362">
        <ele>883.11</ele>
        <time>2025-01-15T13:36:50Z</time>
      </trkpt>
      <trkpt lat="45.13372" lon="3.87369">
        <ele>881.19</ele>
        <time>2025-01-15T13:37:11Z</time>
      </trkpt>
      <trkpt lat="45.13351" lon="3.87377">
        <ele>880.71</ele>
        <time>2025-01-15T13:37:26Z</time>
      </trkpt>
      <trkpt lat="45.13322" lon="3.87383">
        <ele>876.86</ele>
        <time>2025-01-15T13:37:45Z</time>
      </trkpt>
      <trkpt lat="45.13293" lon="3.87394">
        <ele>876.86</ele>
        <time>2025-01-15T13:38:06Z</time>
      </trkpt>
      <trkpt lat="45.1327" lon="3.87406">
        <ele>875.9</ele>
        <time>2025-01-15T13:38:23Z</time>
      </trkpt>
      <trkpt lat="45.13238" lon="3.87429">
        <ele>876.38</ele>
        <time>2025-01-15T13:38:46Z</time>
      </trkpt>
      <trkpt lat="45.13207" lon="3.87455">
        <ele>875.9</ele>
        <time>2025-01-15T13:39:10Z</time>
      </trkpt>
      <trkpt lat="45.13184" lon="3.87473">
        <ele>876.38</ele>
        <time>2025-01-15T13:39:28Z</time>
      </trkpt>
      <trkpt lat="45.13163" lon="3.87498">
        <ele>874.46</ele>
        <time>2025-01-15T13:39:47Z</time>
      </trkpt>
      <trkpt lat="45.13144" lon="3.87526">
        <ele>873.5</ele>
        <time>2025-01-15T13:40:07Z</time>
      </trkpt>
      <trkpt lat="45.13122" lon="3.8755">
        <ele>872.53</ele>
        <time>2025-01-15T13:40:26Z</time>
      </trkpt>
      <trkpt lat="45.13096" lon="3.87564">
        <ele>871.57</ele>
        <time>2025-01-15T13:40:46Z</time>
      </trkpt>
      <trkpt lat="45.13075" lon="3.87575">
        <ele>870.61</ele>
        <time>2025-01-15T13:41:02Z</time>
      </trkpt>
      <trkpt lat="45.13055" lon="3.87587">
        <ele>870.61</ele>
        <time>2025-01-15T13:41:18Z</time>
      </trkpt>
      <trkpt lat="45.13028" lon="3.87598">
        <ele>867.73</ele>
        <time>2025-01-15T13:41:39Z</time>
      </trkpt>
      <trkpt lat="45.12998" lon="3.87589">
        <ele>867.73</ele>
        <time>2025-01-15T13:42:01Z</time>
      </trkpt>
      <trkpt lat="45.12974" lon="3.87563">
        <ele>867.73</ele>
        <time>2025-01-15T13:42:23Z</time>
      </trkpt>
      <trkpt lat="45.12951" lon="3.87557">
        <ele>865.8</ele>
        <time>2025-01-15T13:42:42Z</time>
      </trkpt>
      <trkpt lat="45.12926" lon="3.87575">
        <ele>865.32</ele>
        <time>2025-01-15T13:43:02Z</time>
      </trkpt>
      <trkpt lat="45.12899" lon="3.87585">
        <ele>862.44</ele>
        <time>2025-01-15T13:43:21Z</time>
      </trkpt>
      <trkpt lat="45.12873" lon="3.87584">
        <ele>862.92</ele>
        <time>2025-01-15T13:43:40Z</time>
      </trkpt>
      <trkpt lat="45.12853" lon="3.87583">
        <ele>862.92</ele>
        <time>2025-01-15T13:43:57Z</time>
      </trkpt>
      <trkpt lat="45.12828" lon="3.8758">
        <ele>862.92</ele>
        <time>2025-01-15T13:44:16Z</time>
      </trkpt>
      <trkpt lat="45.12804" lon="3.8758">
        <ele>861</ele>
        <time>2025-01-15T13:44:34Z</time>
      </trkpt>
      <trkpt lat="45.1278" lon="3.87582">
        <ele>859.56</ele>
        <time>2025-01-15T13:44:52Z</time>
      </trkpt>
      <trkpt lat="45.12754" lon="3.87586">
        <ele>860.04</ele>
        <time>2025-01-15T13:45:11Z</time>
      </trkpt>
      <trkpt lat="45.1273" lon="3.87581">
        <ele>859.08</ele>
        <time>2025-01-15T13:45:29Z</time>
      </trkpt>
      <trkpt lat="45.1272" lon="3.8758">
        <ele>860.04</ele>
        <time>2025-01-15T13:45:37Z</time>
      </trkpt>
      <trkpt lat="45.12699" lon="3.87603">
        <ele>859.56</ele>
        <time>2025-01-15T13:45:56Z</time>
      </trkpt>
      <trkpt lat="45.12674" lon="3.8761">
        <ele>858.11</ele>
        <time>2025-01-15T13:46:15Z</time>
      </trkpt>
      <trkpt lat="45.12644" lon="3.87603">
        <ele>857.63</ele>
        <time>2025-01-15T13:46:37Z</time>
      </trkpt>
      <trkpt lat="45.12614" lon="3.87601">
        <ele>855.71</ele>
        <time>2025-01-15T13:46:58Z</time>
      </trkpt>
      <trkpt lat="45.12585" lon="3.87599">
        <ele>854.27</ele>
        <time>2025-01-15T13:47:19Z</time>
      </trkpt>
      <trkpt lat="45.12553" lon="3.876">
        <ele>853.31</ele>
        <time>2025-01-15T13:47:43Z</time>
      </trkpt>
      <trkpt lat="45.12533" lon="3.87599">
        <ele>853.79</ele>
        <time>2025-01-15T13:48:02Z</time>
      </trkpt>
      <trkpt lat="45.12532" lon="3.87599">
        <ele>853.31</ele>
        <time>2025-01-15T13:48:14Z</time>
      </trkpt>
      <trkpt lat="45.12532" lon="3.876">
        <ele>853.79</ele>
        <time>2025-01-15T13:48:27Z</time>
      </trkpt>
      <trkpt lat="45.12531" lon="3.876">
        <ele>855.71</ele>
        <time>2025-01-15T13:48:48Z</time>
      </trkpt>
      <trkpt lat="45.12531" lon="3.876">
        <ele>856.19</ele>
        <time>2025-01-15T13:49:01Z</time>
      </trkpt>
      <trkpt lat="45.12531" lon="3.876">
        <ele>856.19</ele>
        <time>2025-01-15T13:49:24Z</time>
      </trkpt>
      <trkpt lat="45.1253" lon="3.876">
        <ele>856.67</ele>
        <time>2025-01-15T13:49:41Z</time>
      </trkpt>
      <trkpt lat="45.12529" lon="3.87599">
        <ele>857.15</ele>
        <time>2025-01-15T13:49:56Z</time>
      </trkpt>
      <trkpt lat="45.12523" lon="3.87597">
        <ele>857.63</ele>
        <time>2025-01-15T13:50:09Z</time>
      </trkpt>
      <trkpt lat="45.12522" lon="3.87596">
        <ele>857.63</ele>
        <time>2025-01-15T13:50:11Z</time>
      </trkpt>
      <trkpt lat="45.12508" lon="3.87587">
        <ele>856.67</ele>
        <time>2025-01-15T13:50:27Z</time>
      </trkpt>
      <trkpt lat="45.12506" lon="3.87585">
        <ele>855.71</ele>
        <time>2025-01-15T13:50:33Z</time>
      </trkpt>
      <trkpt lat="45.12484" lon="3.87583">
        <ele>854.27</ele>
        <time>2025-01-15T13:50:52Z</time>
      </trkpt>
      <trkpt lat="45.12462" lon="3.87599">
        <ele>853.79</ele>
        <time>2025-01-15T13:51:13Z</time>
      </trkpt>
      <trkpt lat="45.1244" lon="3.87614">
        <ele>853.79</ele>
        <time>2025-01-15T13:51:34Z</time>
      </trkpt>
      <trkpt lat="45.12418" lon="3.87631">
        <ele>853.79</ele>
        <time>2025-01-15T13:51:53Z</time>
      </trkpt>
      <trkpt lat="45.12394" lon="3.87648">
        <ele>852.35</ele>
        <time>2025-01-15T13:52:13Z</time>
      </trkpt>
      <trkpt lat="45.12374" lon="3.87662">
        <ele>852.35</ele>
        <time>2025-01-15T13:52:29Z</time>
      </trkpt>
      <trkpt lat="45.12353" lon="3.87677">
        <ele>853.79</ele>
        <time>2025-01-15T13:52:46Z</time>
      </trkpt>
      <trkpt lat="45.12325" lon="3.87694">
        <ele>854.27</ele>
        <time>2025-01-15T13:53:09Z</time>
      </trkpt>
      <trkpt lat="45.12302" lon="3.8771">
        <ele>854.75</ele>
        <time>2025-01-15T13:53:27Z</time>
      </trkpt>
      <trkpt lat="45.12278" lon="3.87726">
        <ele>856.67</ele>
        <time>2025-01-15T13:53:47Z</time>
      </trkpt>
      <trkpt lat="45.12256" lon="3.87742">
        <ele>858.59</ele>
        <time>2025-01-15T13:54:05Z</time>
      </trkpt>
      <trkpt lat="45.12236" lon="3.87759">
        <ele>860.04</ele>
        <time>2025-01-15T13:54:23Z</time>
      </trkpt>
      <trkpt lat="45.12214" lon="3.87774">
        <ele>862.44</ele>
        <time>2025-01-15T13:54:42Z</time>
      </trkpt>
      <trkpt lat="45.12186" lon="3.87788">
        <ele>864.36</ele>
        <time>2025-01-15T13:55:04Z</time>
      </trkpt>
      <trkpt lat="45.1216" lon="3.87805">
        <ele>866.29</ele>
        <time>2025-01-15T13:55:25Z</time>
      </trkpt>
      <trkpt lat="45.12137" lon="3.87823">
        <ele>868.69</ele>
        <time>2025-01-15T13:55:44Z</time>
      </trkpt>
      <trkpt lat="45.12118" lon="3.87846">
        <ele>870.61</ele>
        <time>2025-01-15T13:56:02Z</time>
      </trkpt>
      <trkpt lat="45.12103" lon="3.87868">
        <ele>872.05</ele>
        <time>2025-01-15T13:56:20Z</time>
      </trkpt>
      <trkpt lat="45.12085" lon="3.87885">
        <ele>873.5</ele>
        <time>2025-01-15T13:56:37Z</time>
      </trkpt>
      <trkpt lat="45.12064" lon="3.879">
        <ele>876.38</ele>
        <time>2025-01-15T13:56:55Z</time>
      </trkpt>
      <trkpt lat="45.12049" lon="3.87919">
        <ele>877.82</ele>
        <time>2025-01-15T13:57:12Z</time>
      </trkpt>
      <trkpt lat="45.12052" lon="3.87955">
        <ele>878.3</ele>
        <time>2025-01-15T13:57:31Z</time>
      </trkpt>
      <trkpt lat="45.12051" lon="3.87995">
        <ele>878.3</ele>
        <time>2025-01-15T13:57:51Z</time>
      </trkpt>
      <trkpt lat="45.12051" lon="3.88029">
        <ele>878.3</ele>
        <time>2025-01-15T13:58:10Z</time>
      </trkpt>
      <trkpt lat="45.12058" lon="3.88069">
        <ele>874.94</ele>
        <time>2025-01-15T13:58:32Z</time>
      </trkpt>
      <trkpt lat="45.12057" lon="3.88102">
        <ele>872.53</ele>
        <time>2025-01-15T13:58:51Z</time>
      </trkpt>
      <trkpt lat="45.12034" lon="3.88121">
        <ele>869.17</ele>
        <time>2025-01-15T13:59:10Z</time>
      </trkpt>
      <trkpt lat="45.12013" lon="3.8813">
        <ele>869.17</ele>
        <time>2025-01-15T13:59:27Z</time>
      </trkpt>
      <trkpt lat="45.11981" lon="3.88138">
        <ele>871.09</ele>
        <time>2025-01-15T13:59:49Z</time>
      </trkpt>
      <trkpt lat="45.11956" lon="3.88151">
        <ele>873.01</ele>
        <time>2025-01-15T14:00:09Z</time>
      </trkpt>
      <trkpt lat="45.11936" lon="3.8816">
        <ele>874.46</ele>
        <time>2025-01-15T14:00:25Z</time>
      </trkpt>
      <trkpt lat="45.11907" lon="3.88176">
        <ele>875.42</ele>
        <time>2025-01-15T14:00:48Z</time>
      </trkpt>
      <trkpt lat="45.11882" lon="3.88191">
        <ele>874.94</ele>
        <time>2025-01-15T14:01:08Z</time>
      </trkpt>
      <trkpt lat="45.11864" lon="3.88205">
        <ele>875.42</ele>
        <time>2025-01-15T14:01:26Z</time>
      </trkpt>
      <trkpt lat="45.11858" lon="3.88212">
        <ele>873.98</ele>
        <time>2025-01-15T14:01:40Z</time>
      </trkpt>
      <trkpt lat="45.11856" lon="3.88215">
        <ele>873.98</ele>
        <time>2025-01-15T14:01:53Z</time>
      </trkpt>
      <trkpt lat="45.11856" lon="3.88215">
        <ele>874.46</ele>
        <time>2025-01-15T14:02:07Z</time>
      </trkpt>
      <trkpt lat="45.11857" lon="3.88217">
        <ele>873.98</ele>
        <time>2025-01-15T14:02:29Z</time>
      </trkpt>
      <trkpt lat="45.11857" lon="3.88216">
        <ele>872.05</ele>
        <time>2025-01-15T14:02:49Z</time>
      </trkpt>
      <trkpt lat="45.11857" lon="3.88216">
        <ele>870.13</ele>
        <time>2025-01-15T14:03:16Z</time>
      </trkpt>
      <trkpt lat="45.11857" lon="3.88216">
        <ele>870.13</ele>
        <time>2025-01-15T14:03:35Z</time>
      </trkpt>
      <trkpt lat="45.11852" lon="3.88227">
        <ele>869.65</ele>
        <time>2025-01-15T14:03:51Z</time>
      </trkpt>
      <trkpt lat="45.11839" lon="3.88243">
        <ele>869.65</ele>
        <time>2025-01-15T14:04:09Z</time>
      </trkpt>
      <trkpt lat="45.11826" lon="3.8825">
        <ele>869.65</ele>
        <time>2025-01-15T14:04:23Z</time>
      </trkpt>
      <trkpt lat="45.11818" lon="3.88247">
        <ele>867.25</ele>
        <time>2025-01-15T14:04:30Z</time>
      </trkpt>
      <trkpt lat="45.11809" lon="3.88245">
        <ele>865.32</ele>
        <time>2025-01-15T14:04:43Z</time>
      </trkpt>
      <trkpt lat="45.11808" lon="3.88247">
        <ele>865.32</ele>
        <time>2025-01-15T14:04:45Z</time>
      </trkpt>
      <trkpt lat="45.11792" lon="3.88237">
        <ele>865.32</ele>
        <time>2025-01-15T14:05:02Z</time>
      </trkpt>
      <trkpt lat="45.11779" lon="3.88232">
        <ele>864.84</ele>
        <time>2025-01-15T14:05:17Z</time>
      </trkpt>
      <trkpt lat="45.1178" lon="3.88234">
        <ele>864.84</ele>
        <time>2025-01-15T14:05:20Z</time>
      </trkpt>
      <trkpt lat="45.11792" lon="3.88244">
        <ele>864.36</ele>
        <time>2025-01-15T14:05:35Z</time>
      </trkpt>
      <trkpt lat="45.11801" lon="3.8827">
        <ele>864.36</ele>
        <time>2025-01-15T14:05:54Z</time>
      </trkpt>
      <trkpt lat="45.11798" lon="3.88282">
        <ele>862.92</ele>
        <time>2025-01-15T14:06:07Z</time>
      </trkpt>
      <trkpt lat="45.1178" lon="3.88267">
        <ele>857.63</ele>
        <time>2025-01-15T14:06:25Z</time>
      </trkpt>
      <trkpt lat="45.11764" lon="3.88253">
        <ele>852.83</ele>
        <time>2025-01-15T14:06:42Z</time>
      </trkpt>
      <trkpt lat="45.11747" lon="3.88247">
        <ele>849.46</ele>
        <time>2025-01-15T14:06:58Z</time>
      </trkpt>
      <trkpt lat="45.11732" lon="3.8824">
        <ele>844.66</ele>
        <time>2025-01-15T14:07:14Z</time>
      </trkpt>
      <trkpt lat="45.11717" lon="3.88243">
        <ele>846.1</ele>
        <time>2025-01-15T14:07:26Z</time>
      </trkpt>
      <trkpt lat="45.11709" lon="3.88246">
        <ele>846.58</ele>
        <time>2025-01-15T14:07:32Z</time>
      </trkpt>
      <trkpt lat="45.11693" lon="3.88249">
        <ele>845.62</ele>
        <time>2025-01-15T14:07:47Z</time>
      </trkpt>
      <trkpt lat="45.11692" lon="3.88252">
        <ele>844.18</ele>
        <time>2025-01-15T14:08:01Z</time>
      </trkpt>
      <trkpt lat="45.11692" lon="3.88252">
        <ele>844.18</ele>
        <time>2025-01-15T14:08:02Z</time>
      </trkpt>
      <trkpt lat="45.11703" lon="3.88254">
        <ele>845.62</ele>
        <time>2025-01-15T14:08:17Z</time>
      </trkpt>
      <trkpt lat="45.11718" lon="3.88264">
        <ele>849.46</ele>
        <time>2025-01-15T14:08:34Z</time>
      </trkpt>
      <trkpt lat="45.1173" lon="3.88274">
        <ele>851.87</ele>
        <time>2025-01-15T14:08:51Z</time>
      </trkpt>
      <trkpt lat="45.11741" lon="3.88291">
        <ele>849.46</ele>
        <time>2025-01-15T14:09:08Z</time>
      </trkpt>
      <trkpt lat="45.11749" lon="3.88308">
        <ele>847.06</ele>
        <time>2025-01-15T14:09:24Z</time>
      </trkpt>
      <trkpt lat="45.11753" lon="3.8832">
        <ele>843.69</ele>
        <time>2025-01-15T14:09:33Z</time>
      </trkpt>
      <trkpt lat="45.11757" lon="3.88346">
        <ele>840.33</ele>
        <time>2025-01-15T14:09:50Z</time>
      </trkpt>
      <trkpt lat="45.11761" lon="3.88357">
        <ele>839.37</ele>
        <time>2025-01-15T14:10:00Z</time>
      </trkpt>
      <trkpt lat="45.11766" lon="3.88375">
        <ele>836.48</ele>
        <time>2025-01-15T14:10:12Z</time>
      </trkpt>
      <trkpt lat="45.1177" lon="3.88381">
        <ele>834.56</ele>
        <time>2025-01-15T14:10:17Z</time>
      </trkpt>
      <trkpt lat="45.1178" lon="3.88402">
        <ele>827.83</ele>
        <time>2025-01-15T14:10:32Z</time>
      </trkpt>
      <trkpt lat="45.1179" lon="3.8842">
        <ele>818.22</ele>
        <time>2025-01-15T14:10:47Z</time>
      </trkpt>
      <trkpt lat="45.118" lon="3.88431">
        <ele>814.85</ele>
        <time>2025-01-15T14:11:01Z</time>
      </trkpt>
      <trkpt lat="45.11813" lon="3.88448">
        <ele>811.01</ele>
        <time>2025-01-15T14:11:15Z</time>
      </trkpt>
      <trkpt lat="45.11819" lon="3.88464">
        <ele>806.2</ele>
        <time>2025-01-15T14:11:30Z</time>
      </trkpt>
      <trkpt lat="45.11822" lon="3.88471">
        <ele>805.72</ele>
        <time>2025-01-15T14:11:39Z</time>
      </trkpt>
      <trkpt lat="45.11824" lon="3.88475">
        <ele>805.24</ele>
        <time>2025-01-15T14:11:42Z</time>
      </trkpt>
      <trkpt lat="45.1183" lon="3.88486">
        <ele>801.88</ele>
        <time>2025-01-15T14:11:52Z</time>
      </trkpt>
      <trkpt lat="45.11818" lon="3.88494">
        <ele>799.47</ele>
        <time>2025-01-15T14:12:05Z</time>
      </trkpt>
      <trkpt lat="45.11803" lon="3.88495">
        <ele>795.15</ele>
        <time>2025-01-15T14:12:18Z</time>
      </trkpt>
      <trkpt lat="45.11796" lon="3.88494">
        <ele>793.22</ele>
        <time>2025-01-15T14:12:24Z</time>
      </trkpt>
      <trkpt lat="45.11789" lon="3.88494">
        <ele>791.78</ele>
        <time>2025-01-15T14:12:38Z</time>
      </trkpt>
      <trkpt lat="45.1179" lon="3.88496">
        <ele>792.74</ele>
        <time>2025-01-15T14:12:53Z</time>
      </trkpt>
      <trkpt lat="45.11794" lon="3.88498">
        <ele>792.26</ele>
        <time>2025-01-15T14:13:04Z</time>
      </trkpt>
      <trkpt lat="45.11796" lon="3.88499">
        <ele>792.26</ele>
        <time>2025-01-15T14:13:06Z</time>
      </trkpt>
      <trkpt lat="45.11803" lon="3.88502">
        <ele>791.3</ele>
        <time>2025-01-15T14:13:20Z</time>
      </trkpt>
      <trkpt lat="45.11805" lon="3.88506">
        <ele>790.82</ele>
        <time>2025-01-15T14:13:27Z</time>
      </trkpt>
      <trkpt lat="45.11804" lon="3.88511">
        <ele>789.86</ele>
        <time>2025-01-15T14:13:31Z</time>
      </trkpt>
      <trkpt lat="45.11801" lon="3.88513">
        <ele>789.38</ele>
        <time>2025-01-15T14:13:34Z</time>
      </trkpt>
      <trkpt lat="45.11795" lon="3.88515">
        <ele>788.42</ele>
        <time>2025-01-15T14:13:47Z</time>
      </trkpt>
      <trkpt lat="45.11795" lon="3.88526">
        <ele>786.5</ele>
        <time>2025-01-15T14:14:01Z</time>
      </trkpt>
      <trkpt lat="45.11796" lon="3.88538">
        <ele>784.57</ele>
        <time>2025-01-15T14:14:15Z</time>
      </trkpt>
      <trkpt lat="45.11796" lon="3.88546">
        <ele>783.61</ele>
        <time>2025-01-15T14:14:22Z</time>
      </trkpt>
      <trkpt lat="45.11804" lon="3.88563">
        <ele>781.69</ele>
        <time>2025-01-15T14:14:39Z</time>
      </trkpt>
      <trkpt lat="45.11814" lon="3.88574">
        <ele>783.61</ele>
        <time>2025-01-15T14:14:56Z</time>
      </trkpt>
      <trkpt lat="45.11819" lon="3.88581">
        <ele>784.57</ele>
        <time>2025-01-15T14:15:09Z</time>
      </trkpt>
      <trkpt lat="45.11825" lon="3.88587">
        <ele>783.61</ele>
        <time>2025-01-15T14:15:22Z</time>
      </trkpt>
      <trkpt lat="45.11838" lon="3.88591">
        <ele>782.65</ele>
        <time>2025-01-15T14:15:36Z</time>
      </trkpt>
      <trkpt lat="45.11847" lon="3.88597">
        <ele>782.17</ele>
        <time>2025-01-15T14:15:48Z</time>
      </trkpt>
      <trkpt lat="45.11845" lon="3.88599">
        <ele>781.69</ele>
        <time>2025-01-15T14:16:00Z</time>
      </trkpt>
      <trkpt lat="45.11843" lon="3.88603">
        <ele>783.61</ele>
        <time>2025-01-15T14:16:28Z</time>
      </trkpt>
      <trkpt lat="45.11844" lon="3.88603">
        <ele>783.61</ele>
        <time>2025-01-15T14:16:32Z</time>
      </trkpt>
      <trkpt lat="45.11849" lon="3.88604">
        <ele>783.61</ele>
        <time>2025-01-15T14:16:37Z</time>
      </trkpt>
      <trkpt lat="45.11864" lon="3.88612">
        <ele>783.13</ele>
        <time>2025-01-15T14:16:50Z</time>
      </trkpt>
      <trkpt lat="45.11874" lon="3.88621">
        <ele>781.69</ele>
        <time>2025-01-15T14:17:00Z</time>
      </trkpt>
      <trkpt lat="45.11877" lon="3.8863">
        <ele>778.81</ele>
        <time>2025-01-15T14:17:05Z</time>
      </trkpt>
      <trkpt lat="45.11882" lon="3.88632">
        <ele>777.84</ele>
        <time>2025-01-15T14:17:09Z</time>
      </trkpt>
      <trkpt lat="45.11901" lon="3.88625">
        <ele>775.92</ele>
        <time>2025-01-15T14:17:25Z</time>
      </trkpt>
      <trkpt lat="45.11914" lon="3.88615">
        <ele>775.44</ele>
        <time>2025-01-15T14:17:38Z</time>
      </trkpt>
      <trkpt lat="45.11929" lon="3.88601">
        <ele>774.96</ele>
        <time>2025-01-15T14:17:55Z</time>
      </trkpt>
      <trkpt lat="45.1194" lon="3.88589">
        <ele>771.11</ele>
        <time>2025-01-15T14:18:10Z</time>
      </trkpt>
      <trkpt lat="45.11949" lon="3.88581">
        <ele>769.67</ele>
        <time>2025-01-15T14:18:23Z</time>
      </trkpt>
      <trkpt lat="45.11956" lon="3.8858">
        <ele>769.19</ele>
        <time>2025-01-15T14:18:37Z</time>
      </trkpt>
      <trkpt lat="45.11961" lon="3.8858">
        <ele>769.67</ele>
        <time>2025-01-15T14:18:48Z</time>
      </trkpt>
      <trkpt lat="45.11967" lon="3.88581">
        <ele>769.67</ele>
        <time>2025-01-15T14:19:02Z</time>
      </trkpt>
      <trkpt lat="45.11971" lon="3.88583">
        <ele>770.15</ele>
        <time>2025-01-15T14:19:16Z</time>
      </trkpt>
      <trkpt lat="45.11977" lon="3.88586">
        <ele>770.15</ele>
        <time>2025-01-15T14:19:28Z</time>
      </trkpt>
      <trkpt lat="45.11986" lon="3.88588">
        <ele>769.67</ele>
        <time>2025-01-15T14:19:42Z</time>
      </trkpt>
      <trkpt lat="45.11994" lon="3.88595">
        <ele>769.19</ele>
        <time>2025-01-15T14:19:53Z</time>
      </trkpt>
      <trkpt lat="45.12003" lon="3.88604">
        <ele>765.83</ele>
        <time>2025-01-15T14:20:07Z</time>
      </trkpt>
      <trkpt lat="45.12011" lon="3.88613">
        <ele>759.1</ele>
        <time>2025-01-15T14:20:21Z</time>
      </trkpt>
      <trkpt lat="45.1202" lon="3.88624">
        <ele>751.89</ele>
        <time>2025-01-15T14:20:36Z</time>
      </trkpt>
      <trkpt lat="45.12029" lon="3.88633">
        <ele>747.56</ele>
        <time>2025-01-15T14:20:50Z</time>
      </trkpt>
      <trkpt lat="45.12033" lon="3.8864">
        <ele>742.76</ele>
        <time>2025-01-15T14:21:03Z</time>
      </trkpt>
      <trkpt lat="45.12038" lon="3.88653">
        <ele>740.35</ele>
        <time>2025-01-15T14:21:13Z</time>
      </trkpt>
      <trkpt lat="45.12026" lon="3.88649">
        <ele>732.66</ele>
        <time>2025-01-15T14:21:29Z</time>
      </trkpt>
      <trkpt lat="45.12014" lon="3.8865">
        <ele>727.86</ele>
        <time>2025-01-15T14:21:44Z</time>
      </trkpt>
      <trkpt lat="45.11998" lon="3.88654">
        <ele>723.53</ele>
        <time>2025-01-15T14:22:01Z</time>
      </trkpt>
      <trkpt lat="45.12004" lon="3.88656">
        <ele>719.2</ele>
        <time>2025-01-15T14:22:15Z</time>
      </trkpt>
      <trkpt lat="45.1201" lon="3.88659">
        <ele>718.72</ele>
        <time>2025-01-15T14:22:23Z</time>
      </trkpt>
      <trkpt lat="45.12022" lon="3.88673">
        <ele>717.28</ele>
        <time>2025-01-15T14:22:38Z</time>
      </trkpt>
      <trkpt lat="45.12029" lon="3.88681">
        <ele>718.24</ele>
        <time>2025-01-15T14:22:50Z</time>
      </trkpt>
      <trkpt lat="45.12032" lon="3.88684">
        <ele>717.76</ele>
        <time>2025-01-15T14:22:57Z</time>
      </trkpt>
      <trkpt lat="45.12032" lon="3.88697">
        <ele>713.92</ele>
        <time>2025-01-15T14:23:09Z</time>
      </trkpt>
      <trkpt lat="45.12029" lon="3.88697">
        <ele>713.92</ele>
        <time>2025-01-15T14:23:18Z</time>
      </trkpt>
      <trkpt lat="45.12014" lon="3.88697">
        <ele>711.03</ele>
        <time>2025-01-15T14:23:32Z</time>
      </trkpt>
      <trkpt lat="45.11999" lon="3.88696">
        <ele>705.75</ele>
        <time>2025-01-15T14:23:47Z</time>
      </trkpt>
      <trkpt lat="45.11986" lon="3.8869">
        <ele>702.86</ele>
        <time>2025-01-15T14:24:01Z</time>
      </trkpt>
      <trkpt lat="45.11972" lon="3.88684">
        <ele>699.5</ele>
        <time>2025-01-15T14:24:15Z</time>
      </trkpt>
      <trkpt lat="45.1197" lon="3.88685">
        <ele>699.98</ele>
        <time>2025-01-15T14:24:21Z</time>
      </trkpt>
      <trkpt lat="45.11965" lon="3.88704">
        <ele>694.21</ele>
        <time>2025-01-15T14:24:38Z</time>
      </trkpt>
      <trkpt lat="45.11959" lon="3.88716">
        <ele>689.4</ele>
        <time>2025-01-15T14:24:53Z</time>
      </trkpt>
      <trkpt lat="45.11956" lon="3.88727">
        <ele>686.52</ele>
        <time>2025-01-15T14:25:04Z</time>
      </trkpt>
      <trkpt lat="45.11955" lon="3.88744">
        <ele>684.6</ele>
        <time>2025-01-15T14:25:19Z</time>
      </trkpt>
      <trkpt lat="45.11953" lon="3.88764">
        <ele>684.12</ele>
        <time>2025-01-15T14:25:34Z</time>
      </trkpt>
      <trkpt lat="45.1195" lon="3.88779">
        <ele>682.19</ele>
        <time>2025-01-15T14:25:42Z</time>
      </trkpt>
      <trkpt lat="45.11936" lon="3.8879">
        <ele>678.83</ele>
        <time>2025-01-15T14:25:57Z</time>
      </trkpt>
      <trkpt lat="45.11931" lon="3.88794">
        <ele>677.87</ele>
        <time>2025-01-15T14:26:13Z</time>
      </trkpt>
      <trkpt lat="45.11922" lon="3.88797">
        <ele>674.5</ele>
        <time>2025-01-15T14:26:23Z</time>
      </trkpt>
      <trkpt lat="45.11928" lon="3.88808">
        <ele>671.62</ele>
        <time>2025-01-15T14:26:34Z</time>
      </trkpt>
      <trkpt lat="45.11936" lon="3.88813">
        <ele>670.66</ele>
        <time>2025-01-15T14:26:46Z</time>
      </trkpt>
      <trkpt lat="45.11943" lon="3.88815">
        <ele>668.25</ele>
        <time>2025-01-15T14:26:58Z</time>
      </trkpt>
      <trkpt lat="45.11944" lon="3.88815">
        <ele>668.25</ele>
        <time>2025-01-15T14:26:59Z</time>
      </trkpt>
      <trkpt lat="45.11947" lon="3.88821">
        <ele>669.7</ele>
        <time>2025-01-15T14:27:12Z</time>
      </trkpt>
      <trkpt lat="45.1194" lon="3.88827">
        <ele>669.22</ele>
        <time>2025-01-15T14:27:25Z</time>
      </trkpt>
      <trkpt lat="45.11935" lon="3.88831">
        <ele>666.33</ele>
        <time>2025-01-15T14:27:36Z</time>
      </trkpt>
      <trkpt lat="45.11922" lon="3.88837">
        <ele>663.45</ele>
        <time>2025-01-15T14:27:51Z</time>
      </trkpt>
      <trkpt lat="45.11915" lon="3.88847">
        <ele>662.01</ele>
        <time>2025-01-15T14:28:06Z</time>
      </trkpt>
      <trkpt lat="45.11908" lon="3.88854">
        <ele>661.04</ele>
        <time>2025-01-15T14:28:19Z</time>
      </trkpt>
      <trkpt lat="45.11902" lon="3.88862">
        <ele>656.72</ele>
        <time>2025-01-15T14:28:37Z</time>
      </trkpt>
      <trkpt lat="45.11898" lon="3.8887">
        <ele>656.24</ele>
        <time>2025-01-15T14:28:48Z</time>
      </trkpt>
      <trkpt lat="45.11899" lon="3.88874">
        <ele>655.76</ele>
        <time>2025-01-15T14:29:07Z</time>
      </trkpt>
      <trkpt lat="45.1189" lon="3.88881">
        <ele>654.8</ele>
        <time>2025-01-15T14:29:23Z</time>
      </trkpt>
      <trkpt lat="45.11879" lon="3.88891">
        <ele>651.43</ele>
        <time>2025-01-15T14:29:38Z</time>
      </trkpt>
      <trkpt lat="45.11876" lon="3.88896">
        <ele>649.03</ele>
        <time>2025-01-15T14:29:44Z</time>
      </trkpt>
      <trkpt lat="45.11874" lon="3.88898">
        <ele>649.03</ele>
        <time>2025-01-15T14:29:46Z</time>
      </trkpt>
      <trkpt lat="45.11872" lon="3.88903">
        <ele>648.07</ele>
        <time>2025-01-15T14:29:50Z</time>
      </trkpt>
      <trkpt lat="45.11864" lon="3.88914">
        <ele>645.18</ele>
        <time>2025-01-15T14:30:02Z</time>
      </trkpt>
      <trkpt lat="45.11878" lon="3.88911">
        <ele>641.34</ele>
        <time>2025-01-15T14:30:16Z</time>
      </trkpt>
      <trkpt lat="45.11885" lon="3.88913">
        <ele>640.38</ele>
        <time>2025-01-15T14:30:24Z</time>
      </trkpt>
      <trkpt lat="45.11899" lon="3.88916">
        <ele>638.45</ele>
        <time>2025-01-15T14:30:39Z</time>
      </trkpt>
      <trkpt lat="45.11913" lon="3.88915">
        <ele>635.09</ele>
        <time>2025-01-15T14:30:53Z</time>
      </trkpt>
      <trkpt lat="45.1193" lon="3.8891">
        <ele>632.2</ele>
        <time>2025-01-15T14:31:07Z</time>
      </trkpt>
      <trkpt lat="45.11933" lon="3.88916">
        <ele>630.28</ele>
        <time>2025-01-15T14:31:20Z</time>
      </trkpt>
      <trkpt lat="45.11924" lon="3.88924">
        <ele>627.88</ele>
        <time>2025-01-15T14:31:31Z</time>
      </trkpt>
      <trkpt lat="45.11916" lon="3.88933">
        <ele>624.51</ele>
        <time>2025-01-15T14:31:44Z</time>
      </trkpt>
      <trkpt lat="45.11914" lon="3.88934">
        <ele>624.03</ele>
        <time>2025-01-15T14:31:46Z</time>
      </trkpt>
      <trkpt lat="45.11901" lon="3.88944">
        <ele>620.67</ele>
        <time>2025-01-15T14:32:01Z</time>
      </trkpt>
      <trkpt lat="45.1189" lon="3.88955">
        <ele>618.75</ele>
        <time>2025-01-15T14:32:14Z</time>
      </trkpt>
      <trkpt lat="45.11885" lon="3.88966">
        <ele>616.34</ele>
        <time>2025-01-15T14:32:28Z</time>
      </trkpt>
      <trkpt lat="45.11887" lon="3.88968">
        <ele>614.9</ele>
        <time>2025-01-15T14:32:32Z</time>
      </trkpt>
      <trkpt lat="45.119" lon="3.88973">
        <ele>611.06</ele>
        <time>2025-01-15T14:32:47Z</time>
      </trkpt>
      <trkpt lat="45.11912" lon="3.88977">
        <ele>609.61</ele>
        <time>2025-01-15T14:33:01Z</time>
      </trkpt>
      <trkpt lat="45.11924" lon="3.88977">
        <ele>608.65</ele>
        <time>2025-01-15T14:33:15Z</time>
      </trkpt>
      <trkpt lat="45.11919" lon="3.88985">
        <ele>607.69</ele>
        <time>2025-01-15T14:33:31Z</time>
      </trkpt>
      <trkpt lat="45.1191" lon="3.88996">
        <ele>603.85</ele>
        <time>2025-01-15T14:33:45Z</time>
      </trkpt>
      <trkpt lat="45.11906" lon="3.89">
        <ele>602.88</ele>
        <time>2025-01-15T14:33:50Z</time>
      </trkpt>
      <trkpt lat="45.11903" lon="3.89012">
        <ele>598.56</ele>
        <time>2025-01-15T14:34:03Z</time>
      </trkpt>
      <trkpt lat="45.11912" lon="3.89011">
        <ele>595.19</ele>
        <time>2025-01-15T14:34:19Z</time>
      </trkpt>
      <trkpt lat="45.11919" lon="3.89009">
        <ele>595.19</ele>
        <time>2025-01-15T14:34:29Z</time>
      </trkpt>
      <trkpt lat="45.11931" lon="3.8901">
        <ele>595.67</ele>
        <time>2025-01-15T14:34:44Z</time>
      </trkpt>
      <trkpt lat="45.1193" lon="3.89015">
        <ele>597.12</ele>
        <time>2025-01-15T14:34:59Z</time>
      </trkpt>
      <trkpt lat="45.11927" lon="3.89024">
        <ele>596.64</ele>
        <time>2025-01-15T14:35:13Z</time>
      </trkpt>
      <trkpt lat="45.11924" lon="3.89029">
        <ele>595.19</ele>
        <time>2025-01-15T14:35:19Z</time>
      </trkpt>
      <trkpt lat="45.11921" lon="3.89045">
        <ele>592.79</ele>
        <time>2025-01-15T14:35:34Z</time>
      </trkpt>
      <trkpt lat="45.1193" lon="3.89067">
        <ele>587.98</ele>
        <time>2025-01-15T14:35:49Z</time>
      </trkpt>
      <trkpt lat="45.11934" lon="3.89073">
        <ele>586.54</ele>
        <time>2025-01-15T14:35:53Z</time>
      </trkpt>
      <trkpt lat="45.11948" lon="3.89089">
        <ele>583.18</ele>
        <time>2025-01-15T14:36:07Z</time>
      </trkpt>
      <trkpt lat="45.11963" lon="3.89109">
        <ele>579.81</ele>
        <time>2025-01-15T14:36:23Z</time>
      </trkpt>
      <trkpt lat="45.11975" lon="3.89121">
        <ele>575.01</ele>
        <time>2025-01-15T14:36:37Z</time>
      </trkpt>
      <trkpt lat="45.11984" lon="3.89129">
        <ele>572.6</ele>
        <time>2025-01-15T14:36:47Z</time>
      </trkpt>
      <trkpt lat="45.11992" lon="3.89138">
        <ele>570.68</ele>
        <time>2025-01-15T14:36:54Z</time>
      </trkpt>
      <trkpt lat="45.11999" lon="3.89145">
        <ele>569.72</ele>
        <time>2025-01-15T14:37:00Z</time>
      </trkpt>
      <trkpt lat="45.12018" lon="3.89165">
        <ele>566.83</ele>
        <time>2025-01-15T14:37:17Z</time>
      </trkpt>
      <trkpt lat="45.12028" lon="3.89186">
        <ele>569.72</ele>
        <time>2025-01-15T14:37:33Z</time>
      </trkpt>
      <trkpt lat="45.12029" lon="3.89188">
        <ele>569.72</ele>
        <time>2025-01-15T14:37:34Z</time>
      </trkpt>
      <trkpt lat="45.12045" lon="3.89208">
        <ele>569.24</ele>
        <time>2025-01-15T14:37:50Z</time>
      </trkpt>
      <trkpt lat="45.12058" lon="3.89231">
        <ele>570.2</ele>
        <time>2025-01-15T14:38:09Z</time>
      </trkpt>
      <trkpt lat="45.12063" lon="3.89259">
        <ele>574.53</ele>
        <time>2025-01-15T14:38:26Z</time>
      </trkpt>
      <trkpt lat="45.12065" lon="3.89269">
        <ele>575.49</ele>
        <time>2025-01-15T14:38:32Z</time>
      </trkpt>
      <trkpt lat="45.12074" lon="3.89297">
        <ele>575.49</ele>
        <time>2025-01-15T14:38:48Z</time>
      </trkpt>
      <trkpt lat="45.12073" lon="3.89322">
        <ele>574.53</ele>
        <time>2025-01-15T14:39:03Z</time>
      </trkpt>
      <trkpt lat="45.12069" lon="3.89356">
        <ele>575.49</ele>
        <time>2025-01-15T14:39:19Z</time>
      </trkpt>
      <trkpt lat="45.12071" lon="3.89393">
        <ele>576.45</ele>
        <time>2025-01-15T14:39:36Z</time>
      </trkpt>
      <trkpt lat="45.12067" lon="3.89429">
        <ele>576.45</ele>
        <time>2025-01-15T14:39:56Z</time>
      </trkpt>
      <trkpt lat="45.12059" lon="3.8945">
        <ele>576.45</ele>
        <time>2025-01-15T14:40:11Z</time>
      </trkpt>
      <trkpt lat="45.12051" lon="3.89485">
        <ele>576.45</ele>
        <time>2025-01-15T14:40:30Z</time>
      </trkpt>
      <trkpt lat="45.12048" lon="3.8952">
        <ele>573.56</ele>
        <time>2025-01-15T14:40:47Z</time>
      </trkpt>
      <trkpt lat="45.12046" lon="3.89555">
        <ele>569.24</ele>
        <time>2025-01-15T14:41:05Z</time>
      </trkpt>
      <trkpt lat="45.1204" lon="3.89588">
        <ele>565.39</ele>
        <time>2025-01-15T14:41:23Z</time>
      </trkpt>
      <trkpt lat="45.12035" lon="3.89622">
        <ele>565.39</ele>
        <time>2025-01-15T14:41:44Z</time>
      </trkpt>
      <trkpt lat="45.12033" lon="3.89639">
        <ele>563.95</ele>
        <time>2025-01-15T14:41:55Z</time>
      </trkpt>
      <trkpt lat="45.1203" lon="3.89651">
        <ele>563.47</ele>
        <time>2025-01-15T14:42:07Z</time>
      </trkpt>
      <trkpt lat="45.12024" lon="3.89679">
        <ele>564.43</ele>
        <time>2025-01-15T14:42:23Z</time>
      </trkpt>
      <trkpt lat="45.1202" lon="3.8971">
        <ele>564.91</ele>
        <time>2025-01-15T14:42:39Z</time>
      </trkpt>
      <trkpt lat="45.12016" lon="3.89748">
        <ele>567.8</ele>
        <time>2025-01-15T14:42:59Z</time>
      </trkpt>
      <trkpt lat="45.1201" lon="3.89787">
        <ele>568.76</ele>
        <time>2025-01-15T14:43:20Z</time>
      </trkpt>
      <trkpt lat="45.12008" lon="3.89815">
        <ele>566.83</ele>
        <time>2025-01-15T14:43:35Z</time>
      </trkpt>
      <trkpt lat="45.12008" lon="3.89826">
        <ele>566.35</ele>
        <time>2025-01-15T14:43:51Z</time>
      </trkpt>
      <trkpt lat="45.12011" lon="3.89827">
        <ele>565.39</ele>
        <time>2025-01-15T14:44:07Z</time>
      </trkpt>
      <trkpt lat="45.12009" lon="3.89828">
        <ele>564.43</ele>
        <time>2025-01-15T14:44:21Z</time>
      </trkpt>
      <trkpt lat="45.12007" lon="3.8986">
        <ele>564.43</ele>
        <time>2025-01-15T14:44:41Z</time>
      </trkpt>
      <trkpt lat="45.12013" lon="3.89885">
        <ele>565.87</ele>
        <time>2025-01-15T14:44:59Z</time>
      </trkpt>
      <trkpt lat="45.12015" lon="3.89893">
        <ele>566.35</ele>
        <time>2025-01-15T14:45:05Z</time>
      </trkpt>
      <trkpt lat="45.12018" lon="3.89898">
        <ele>566.83</ele>
        <time>2025-01-15T14:45:09Z</time>
      </trkpt>
      <trkpt lat="45.12029" lon="3.89913">
        <ele>568.76</ele>
        <time>2025-01-15T14:45:24Z</time>
      </trkpt>
      <trkpt lat="45.1205" lon="3.89933">
        <ele>570.2</ele>
        <time>2025-01-15T14:45:43Z</time>
      </trkpt>
      <trkpt lat="45.12067" lon="3.89952">
        <ele>572.12</ele>
        <time>2025-01-15T14:46:01Z</time>
      </trkpt>
      <trkpt lat="45.12085" lon="3.89977">
        <ele>574.04</ele>
        <time>2025-01-15T14:46:20Z</time>
      </trkpt>
      <trkpt lat="45.12104" lon="3.90004">
        <ele>575.49</ele>
        <time>2025-01-15T14:46:40Z</time>
      </trkpt>
      <trkpt lat="45.12124" lon="3.90036">
        <ele>574.53</ele>
        <time>2025-01-15T14:47:03Z</time>
      </trkpt>
      <trkpt lat="45.12137" lon="3.9007">
        <ele>574.04</ele>
        <time>2025-01-15T14:47:23Z</time>
      </trkpt>
      <trkpt lat="45.12147" lon="3.901">
        <ele>575.01</ele>
        <time>2025-01-15T14:47:41Z</time>
      </trkpt>
      <trkpt lat="45.12151" lon="3.90113">
        <ele>576.45</ele>
        <time>2025-01-15T14:47:49Z</time>
      </trkpt>
      <trkpt lat="45.12157" lon="3.9013">
        <ele>573.08</ele>
        <time>2025-01-15T14:47:58Z</time>
      </trkpt>
      <trkpt lat="45.12163" lon="3.90153">
        <ele>572.6</ele>
        <time>2025-01-15T14:48:12Z</time>
      </trkpt>
      <trkpt lat="45.1217" lon="3.90176">
        <ele>568.76</ele>
        <time>2025-01-15T14:48:25Z</time>
      </trkpt>
      <trkpt lat="45.12171" lon="3.90201">
        <ele>568.28</ele>
        <time>2025-01-15T14:48:39Z</time>
      </trkpt>
      <trkpt lat="45.12171" lon="3.90203">
        <ele>568.28</ele>
        <time>2025-01-15T14:48:40Z</time>
      </trkpt>
      <trkpt lat="45.1217" lon="3.90205">
        <ele>568.28</ele>
        <time>2025-01-15T14:48:42Z</time>
      </trkpt>
      <trkpt lat="45.12166" lon="3.90208">
        <ele>567.8</ele>
        <time>2025-01-15T14:48:48Z</time>
      </trkpt>
      <trkpt lat="45.12149" lon="3.90217">
        <ele>568.76</ele>
        <time>2025-01-15T14:49:04Z</time>
      </trkpt>
      <trkpt lat="45.12142" lon="3.90224">
        <ele>570.2</ele>
        <time>2025-01-15T14:49:17Z</time>
      </trkpt>
      <trkpt lat="45.12128" lon="3.90244">
        <ele>568.76</ele>
        <time>2025-01-15T14:49:33Z</time>
      </trkpt>
      <trkpt lat="45.12122" lon="3.90268">
        <ele>570.2</ele>
        <time>2025-01-15T14:49:48Z</time>
      </trkpt>
      <trkpt lat="45.12121" lon="3.90272">
        <ele>570.2</ele>
        <time>2025-01-15T14:49:50Z</time>
      </trkpt>
      <trkpt lat="45.12121" lon="3.90302">
        <ele>570.68</ele>
        <time>2025-01-15T14:50:08Z</time>
      </trkpt>
      <trkpt lat="45.12121" lon="3.90309">
        <ele>571.16</ele>
        <time>2025-01-15T14:50:12Z</time>
      </trkpt>
      <trkpt lat="45.12112" lon="3.90337">
        <ele>567.8</ele>
        <time>2025-01-15T14:50:30Z</time>
      </trkpt>
      <trkpt lat="45.12107" lon="3.90366">
        <ele>567.8</ele>
        <time>2025-01-15T14:50:47Z</time>
      </trkpt>
      <trkpt lat="45.12104" lon="3.90399">
        <ele>567.8</ele>
        <time>2025-01-15T14:51:06Z</time>
      </trkpt>
      <trkpt lat="45.12103" lon="3.90416">
        <ele>568.28</ele>
        <time>2025-01-15T14:51:16Z</time>
      </trkpt>
      <trkpt lat="45.121" lon="3.90427">
        <ele>568.28</ele>
        <time>2025-01-15T14:51:22Z</time>
      </trkpt>
      <trkpt lat="45.12096" lon="3.90463">
        <ele>566.83</ele>
        <time>2025-01-15T14:51:41Z</time>
      </trkpt>
      <trkpt lat="45.12092" lon="3.90495">
        <ele>567.32</ele>
        <time>2025-01-15T14:51:59Z</time>
      </trkpt>
      <trkpt lat="45.12088" lon="3.90514">
        <ele>567.8</ele>
        <time>2025-01-15T14:52:11Z</time>
      </trkpt>
      <trkpt lat="45.12085" lon="3.90551">
        <ele>567.32</ele>
        <time>2025-01-15T14:52:31Z</time>
      </trkpt>
      <trkpt lat="45.12086" lon="3.90583">
        <ele>565.87</ele>
        <time>2025-01-15T14:52:50Z</time>
      </trkpt>
      <trkpt lat="45.12089" lon="3.90619">
        <ele>564.43</ele>
        <time>2025-01-15T14:53:08Z</time>
      </trkpt>
      <trkpt lat="45.12091" lon="3.90651">
        <ele>566.35</ele>
        <time>2025-01-15T14:53:24Z</time>
      </trkpt>
      <trkpt lat="45.12093" lon="3.90681">
        <ele>568.28</ele>
        <time>2025-01-15T14:53:41Z</time>
      </trkpt>
      <trkpt lat="45.12084" lon="3.90702">
        <ele>570.2</ele>
        <time>2025-01-15T14:53:57Z</time>
      </trkpt>
      <trkpt lat="45.1208" lon="3.90704">
        <ele>570.2</ele>
        <time>2025-01-15T14:54:00Z</time>
      </trkpt>
      <trkpt lat="45.12077" lon="3.90702">
        <ele>570.68</ele>
        <time>2025-01-15T14:54:04Z</time>
      </trkpt>
      <trkpt lat="45.1206" lon="3.90695">
        <ele>572.6</ele>
        <time>2025-01-15T14:54:20Z</time>
      </trkpt>
      <trkpt lat="45.12043" lon="3.9069">
        <ele>575.97</ele>
        <time>2025-01-15T14:54:34Z</time>
      </trkpt>
      <trkpt lat="45.12025" lon="3.9069">
        <ele>575.01</ele>
        <time>2025-01-15T14:54:50Z</time>
      </trkpt>
      <trkpt lat="45.12019" lon="3.90688">
        <ele>572.12</ele>
        <time>2025-01-15T14:55:05Z</time>
      </trkpt>
      <trkpt lat="45.12012" lon="3.90688">
        <ele>571.16</ele>
        <time>2025-01-15T14:55:11Z</time>
      </trkpt>
      <trkpt lat="45.12005" lon="3.90683">
        <ele>567.32</ele>
        <time>2025-01-15T14:55:28Z</time>
      </trkpt>
      <trkpt lat="45.12" lon="3.90681">
        <ele>566.83</ele>
        <time>2025-01-15T14:55:32Z</time>
      </trkpt>
      <trkpt lat="45.11984" lon="3.90681">
        <ele>566.83</ele>
        <time>2025-01-15T14:55:44Z</time>
      </trkpt>
      <trkpt lat="45.11978" lon="3.90681">
        <ele>566.35</ele>
        <time>2025-01-15T14:55:51Z</time>
      </trkpt>
      <trkpt lat="45.1197" lon="3.90682">
        <ele>568.76</ele>
        <time>2025-01-15T14:55:58Z</time>
      </trkpt>
      <trkpt lat="45.11954" lon="3.9068">
        <ele>569.24</ele>
        <time>2025-01-15T14:56:10Z</time>
      </trkpt>
      <trkpt lat="45.11949" lon="3.9068">
        <ele>569.24</ele>
        <time>2025-01-15T14:56:14Z</time>
      </trkpt>
      <trkpt lat="45.1193" lon="3.90676">
        <ele>569.72</ele>
        <time>2025-01-15T14:56:32Z</time>
      </trkpt>
      <trkpt lat="45.11919" lon="3.90676">
        <ele>572.6</ele>
        <time>2025-01-15T14:56:42Z</time>
      </trkpt>
      <trkpt lat="45.11912" lon="3.90676">
        <ele>572.12</ele>
        <time>2025-01-15T14:56:47Z</time>
      </trkpt>
      <trkpt lat="45.11908" lon="3.90673">
        <ele>571.64</ele>
        <time>2025-01-15T14:56:49Z</time>
      </trkpt>
      <trkpt lat="45.11902" lon="3.90663">
        <ele>569.24</ele>
        <time>2025-01-15T14:56:57Z</time>
      </trkpt>
      <trkpt lat="45.11899" lon="3.90657">
        <ele>567.32</ele>
        <time>2025-01-15T14:57:13Z</time>
      </trkpt>
      <trkpt lat="45.11899" lon="3.90657">
        <ele>567.32</ele>
        <time>2025-01-15T14:57:47Z</time>
      </trkpt>
      <trkpt lat="45.11901" lon="3.90656">
        <ele>569.24</ele>
        <time>2025-01-15T14:58:06Z</time>
      </trkpt>
    </trkseg>
  </trk>
</gpx>